Date StartTime U_cm/s V_cm/s W_cm/s Ustd_cm/s Vstd_cm/s Wstd_cm/s Uvar_(cm/s)^2 Vvar_(cm/s)^2 Wvar_(cm/s)^2 KE_(m/s)^2 TurbulentKE_(m/s)^2 HorizWindSpeed_cm/s FrictionSpeec_cm/s DragCoef SpeedOfSound_m/s SonicTemperature_C Pressure_mb 
05/02/2014  00:00:00      -85.563      -35.680        1.237       66.969       38.968       33.803     4484.903     1518.538     1142.614        0.787        0.357       92.705       30.659        0.109      342.703       18.299      866.168
05/02/2014  00:01:00     -151.373      -54.181        2.026       69.493       65.355       38.572     4829.333     4271.319     1487.833        1.822        0.529      160.777       23.392        0.021      342.744       18.367      866.175
05/02/2014  00:02:00     -148.363     -106.876       -2.322       76.877       68.032       37.817     5910.129     4628.412     1430.104        2.270        0.598      182.850       40.683        0.050      342.798       18.457      866.175
05/02/2014  00:03:00     -105.558       -8.267       -0.753       51.074       33.212       23.533     2608.520     1103.031      553.790        0.774        0.213      105.882       22.970        0.047      342.640       18.192      866.183
05/02/2014  00:04:00     -122.808      -17.405       -3.554       45.664       40.275       27.071     2085.168     1622.080      732.858        0.992        0.222      124.035       25.677        0.043      342.585       18.098      866.188
05/02/2014  00:05:00     -141.062      -12.466       -7.515       48.951       29.825       24.630     2396.239      889.529      606.651        1.200        0.195      141.612       25.410        0.032      342.545       18.029      866.200
05/02/2014  00:06:00     -116.229      -51.937        3.396       52.524       37.535       28.203     2758.760     1408.877      795.436        1.059        0.248      127.305       29.804        0.055      342.550       18.038      866.212
05/02/2014  00:07:00     -120.940      -24.370      -11.356       33.191       23.311       15.300     1101.673      543.395      234.087        0.861        0.094      123.371       12.034        0.010      342.592       18.111      866.211
05/02/2014  00:08:00     -129.358      -55.909      -17.941       23.995       22.725       17.159      575.757      516.406      294.419        1.078        0.069      140.923        9.389        0.004      342.527       17.999      866.212
05/02/2014  00:09:00     -128.357      -54.209       -8.792       25.736       36.214       20.003      662.360     1311.418      400.138        1.093        0.119      139.335       13.225        0.009      342.517       17.982      866.229
05/02/2014  00:10:00     -146.009      -40.565       -1.566       31.971       31.194       21.145     1022.125      973.060      447.103        1.270        0.122      151.540       18.575        0.015      342.479       17.917      866.234
05/02/2014  00:11:00     -140.614        4.644       -8.085       64.506       44.078       25.146     4161.016     1942.855      632.317        1.330        0.337      140.690       24.566        0.030      342.379       17.746      866.245
05/02/2014  00:12:00     -203.550       56.390      -14.411       63.452       33.352       24.880     4026.096     1112.367      619.025        2.529        0.288      211.217       29.972        0.020      342.544       18.023      866.260
05/02/2014  00:13:00     -160.848       50.742       -9.767       38.204       31.140       23.196     1459.517      969.695      538.058        1.575        0.148      168.661       15.246        0.008      342.484       17.925      866.269
05/02/2014  00:14:00     -161.430       30.745      -10.898       24.249       29.405       17.595      588.037      864.659      309.588        1.444        0.088      164.332       13.406        0.007      342.476       17.911      866.287
05/02/2014  00:15:00     -127.748      -29.259       -8.710       58.368       44.325       30.639     3406.864     1964.718      938.732        1.178        0.316      131.056       25.555        0.038      342.543       18.026      866.291
05/02/2014  00:16:00     -144.836      -29.264       -1.077       55.437       55.778       26.408     3073.298     3111.160      697.360        1.436        0.344      147.762       21.875        0.022      342.531       18.005      866.292
05/02/2014  00:17:00      -97.519      -37.042       -1.700       35.877       34.169       24.002     1287.193     1167.495      576.085        0.696        0.152      104.317       20.143        0.037      342.498       17.950      866.298
05/02/2014  00:18:00     -104.631      -14.773       -2.699       32.323       18.714       14.167     1044.799      350.207      200.711        0.638        0.080      105.669       14.006        0.018      342.403       17.788      866.296
05/02/2014  00:19:00     -119.978       37.391      -12.434       36.908       35.962       22.189     1362.206     1293.246      492.352        0.955        0.157      125.669       19.515        0.024      342.260       17.544      866.303
05/02/2014  00:20:00     -157.378       22.006      -14.976       36.143       28.578       16.577     1306.320      816.717      274.812        1.394        0.120      158.909        9.464        0.004      342.390       17.767      866.298
05/02/2014  00:21:00     -143.610        5.377      -13.549       16.256       23.372       11.723      264.267      546.229      137.438        1.089        0.047      143.710       11.083        0.006      342.478       17.916      866.295
05/02/2014  00:22:00     -111.512      -37.294       -3.874       25.392       16.753       15.079      644.754      280.657      227.389        0.750        0.058      117.583       15.589        0.018      342.366       17.726      866.301
05/02/2014  00:23:00     -113.134      -33.078       -1.130       43.889       30.683       21.058     1926.262      941.429      443.429        0.860        0.166      117.871       23.793        0.041      342.224       17.484      866.307
05/02/2014  00:24:00      -76.745      -16.674        2.717       38.433       28.850       19.133     1477.125      832.336      366.069        0.442        0.134       78.536       19.260        0.060      342.088       17.253      866.317
05/02/2014  00:25:00      -89.809       19.999       -3.388       37.561       26.340       14.264     1410.820      693.771      203.470        0.539        0.115       92.009       10.479        0.013      342.107       17.286      866.306
05/02/2014  00:26:00      -62.911       67.153      -11.908       31.703       26.800       18.727     1005.080      718.242      350.695        0.534        0.104       92.018       19.625        0.045      342.323       17.652      866.293
05/02/2014  00:27:00      -20.194       26.745       -3.351       21.136       31.049       13.253      446.726      964.030      175.640        0.136        0.079       33.513       10.565        0.099      342.321       17.648      866.284
05/02/2014  00:28:00      -61.715      -13.191       -7.558       43.619       34.436       12.348     1902.599     1185.811      152.482        0.364        0.162       63.109        8.502        0.018      342.239       17.510      866.285
05/02/2014  00:29:00     -114.132       -0.920      -10.705       24.170       16.195       13.013      584.171      262.292      169.337        0.708        0.051      114.136       11.721        0.011      341.884       16.908      866.302
05/02/2014  00:30:00     -121.274       -4.294      -20.473       32.137       24.839       17.696     1032.794      616.982      313.149        0.855        0.098      121.350       17.826        0.022      342.001       17.107      866.297
05/02/2014  00:31:00      -76.289        6.964       -0.704       32.293       12.766       13.161     1042.843      162.966      173.206        0.362        0.069       76.606       14.547        0.036      342.103       17.278      866.289
05/02/2014  00:32:00      -81.058      -40.259       -3.608       17.078       22.362        9.469      291.642      500.049       89.655        0.454        0.044       90.506        7.120        0.006      342.113       17.296      866.281
05/02/2014  00:33:00     -122.322      -53.207       -7.870       21.784       16.540       15.126      474.532      273.585      228.809        0.942        0.049      133.392       12.512        0.009      342.148       17.354      866.284
05/02/2014  00:34:00     -107.195      -41.817       -5.061       15.391       22.478       11.598      236.896      505.267      134.521        0.707        0.044      115.063        7.985        0.005      342.146       17.351      866.284
05/02/2014  00:35:00      -91.649      -33.343        1.782       34.729       22.790       13.379     1206.098      519.382      178.988        0.571        0.095       97.526       14.451        0.022      342.131       17.327      866.285
05/02/2014  00:36:00      -68.398      -39.922        0.825       39.259       24.679       16.401     1541.286      609.071      268.998        0.435        0.121       79.197       18.937        0.057      342.084       17.246      866.285
05/02/2014  00:37:00      -55.599       -6.300        3.405       33.746       30.956       17.828     1138.814      958.248      317.822        0.278        0.121       55.955       18.931        0.114      342.002       17.107      866.271
05/02/2014  00:38:00        7.095       -4.342        1.863       42.029       23.607       13.723     1766.418      557.273      188.316        0.129        0.126        8.318        8.065        0.940      341.741       16.664      866.262
05/02/2014  00:39:00        7.961      -26.241      -13.269       23.711       31.546       18.140      562.234      995.160      329.068        0.141        0.094       27.422        8.426        0.094      341.636       16.486      866.252
05/02/2014  00:40:00       25.620      -18.337      -15.008       22.458       17.766       16.114      504.373      315.644      259.653        0.115        0.054       31.506        6.651        0.045      341.837       16.827      866.251
05/02/2014  00:41:00       50.636      -23.964       -0.195       30.178       24.315       20.868      910.682      591.223      435.486        0.254        0.097       56.020       17.564        0.098      341.513       16.278      866.266
05/02/2014  00:42:00       45.102        6.593       -5.517       22.618       21.095       23.782      511.553      445.010      565.563        0.181        0.076       45.582       12.223        0.072      341.457       16.183      866.277
05/02/2014  00:43:00       23.108       27.855        1.178       17.528       21.546       21.262      307.227      464.244      452.076        0.127        0.061       36.192        4.721        0.017      341.440       16.156      866.280
05/02/2014  00:44:00        7.799       -1.384        3.124       17.389       19.249       13.636      302.365      370.535      185.944        0.047        0.043        7.921        1.839        0.054      341.398       16.082      866.282
05/02/2014  00:45:00       10.623       15.093       15.889       25.906       21.431       14.527      671.133      459.299      211.021        0.097        0.067       18.457        4.695        0.065      341.467       16.199      866.291
05/02/2014  00:46:00       80.554       52.012       10.195       24.740       19.906       24.438      612.059      396.257      597.214        0.545        0.080       95.887       11.863        0.015      341.743       16.667      866.301
05/02/2014  00:47:00       79.677       48.083       17.474       24.938       31.120       18.027      621.896      968.425      324.970        0.544        0.096       93.061       10.417        0.013      341.700       16.594      866.309
05/02/2014  00:48:00       26.940        8.857       23.132       38.266       29.646       17.058     1464.283      878.882      290.967        0.199        0.132       28.359       12.690        0.200      341.461       16.190      866.322
05/02/2014  00:49:00       15.603      -29.085       -2.727       17.125       15.792       13.104      293.276      249.400      171.716        0.091        0.036       33.006        6.386        0.037      341.266       15.861      866.336
05/02/2014  00:50:00       -5.457      -27.708        6.448       19.343       16.897       17.929      374.167      285.506      321.453        0.091        0.049       28.240        8.463        0.090      341.353       16.006      866.329
05/02/2014  00:51:00       31.955      -44.227       -4.493       30.204       32.684       17.461      912.266     1068.217      304.879        0.264        0.114       54.563       11.868        0.047      341.667       16.539      866.328
05/02/2014  00:52:00       31.751        6.495       31.557       35.915       32.995       27.596     1289.870     1088.671      761.527        0.259        0.157       32.408       25.723        0.630      341.298       15.913      866.327
05/02/2014  00:53:00      -13.519       -7.975       13.206       24.352       14.689       17.644      593.016      215.771      311.313        0.077        0.056       15.696       11.908        0.576      341.309       15.932      866.327
05/02/2014  00:54:00      -93.812       22.171       -2.908       49.403       31.629       19.436     2440.640     1000.387      377.767        0.656        0.191       96.396       25.110        0.068      341.726       16.639      866.315
05/02/2014  00:55:00      -76.922      -25.789        4.031       43.862       25.781       17.879     1923.896      664.651      319.647        0.475        0.145       81.130       20.920        0.066      341.883       16.905      866.302
05/02/2014  00:56:00       -9.476       -6.189        1.022       19.833       19.421        6.193      393.346      377.179       38.351        0.047        0.040       11.318        9.148        0.653      342.020       17.137      866.281
05/02/2014  00:57:00       -1.809       -3.926        6.839       12.990       14.526       12.647      168.740      211.000      159.951        0.030        0.027        4.323        8.010        3.434      341.770       16.715      866.260
05/02/2014  00:58:00      -27.424      -16.288        3.918       18.621       22.485       12.663      346.746      505.593      160.354        0.102        0.051       31.896       13.028        0.167      341.882       16.905      866.243
05/02/2014  00:59:00      -53.225       -7.980       -4.492       21.732       17.522       13.568      472.296      307.026      184.082        0.194        0.048       53.819        7.293        0.018      341.807       16.776      866.222
05/02/2014  01:00:00       -4.361       -2.600       10.141       16.863       16.483       16.320      284.362      271.692      266.348        0.048        0.041        5.077       13.082        6.639      341.539       16.323      866.209
05/02/2014  01:01:00       12.355      -11.731        5.502       24.327       24.298       17.381      591.814      590.374      302.091        0.090        0.074       17.037       14.806        0.755      341.402       16.090      866.210
05/02/2014  01:02:00       50.894      -47.063       -5.678       38.212       29.584       25.463     1460.146      875.235      648.388        0.391        0.149       69.319       21.585        0.097      341.359       16.017      866.214
05/02/2014  01:03:00       71.261      -35.546        3.631       41.266       34.788       23.305     1702.889     1210.223      543.107        0.490        0.173       79.635       22.648        0.081      341.487       16.234      866.202
05/02/2014  01:04:00       40.200      -34.837        2.745       35.197       29.145       24.916     1238.823      849.452      620.798        0.277        0.135       53.195       20.004        0.141      341.258       15.847      866.208
05/02/2014  01:05:00       50.956      -42.006        9.782       32.251       25.150       23.228     1040.103      632.547      539.548        0.333        0.111       66.038       19.083        0.083      341.360       16.018      866.231
05/02/2014  01:06:00       25.214        3.237       35.789       30.092       29.929       18.270      905.506      895.716      333.787        0.203        0.107       25.421       17.799        0.490      341.310       15.933      866.227
05/02/2014  01:07:00       49.786       -7.761       13.739       29.842       31.730       32.842      890.559     1006.789     1078.601        0.285        0.149       50.388       26.497        0.277      341.117       15.607      866.217
05/02/2014  01:08:00       34.747      -17.008       -2.710       19.021       16.571       24.546      361.798      274.594      602.512        0.137        0.062       38.686       10.042        0.067      341.267       15.861      866.223
05/02/2014  01:09:00       38.509      -35.744       -3.988       21.772       19.077       17.945      474.000      363.931      322.009        0.197        0.058       52.541        8.112        0.024      341.190       15.730      866.234
05/02/2014  01:10:00       29.562      -10.691       21.334       31.212       16.585       22.716      974.176      275.048      516.036        0.160        0.088       31.436       10.583        0.113      340.959       15.340      866.233
05/02/2014  01:11:00       16.558        8.483        1.785       13.538       12.031       13.042      183.288      144.736      170.105        0.042        0.025       18.605       10.378        0.311      341.211       15.768      866.223
05/02/2014  01:12:00        9.098       11.442       -0.017       16.378       21.834       16.308      268.226      476.743      265.948        0.061        0.051       14.618        7.679        0.276      341.333       15.973      866.206
05/02/2014  01:13:00       11.816        0.221        5.543       10.159       16.699       11.884      103.201      278.872      141.220        0.035        0.026       11.818        9.700        0.674      341.447       16.166      866.188
05/02/2014  01:14:00       15.519      -32.267        0.042       27.684       13.458       18.541      766.424      181.113      343.759        0.129        0.065       35.806        7.305        0.042      341.147       15.657      866.176
05/02/2014  01:15:00      -26.647       -8.714       -2.903       17.390       24.370       15.140      302.398      593.902      229.230        0.096        0.056       28.035       12.752        0.207      341.103       15.584      866.178
05/02/2014  01:16:00      -22.729       -1.422       -0.493       18.885       13.009       11.808      356.637      169.223      139.441        0.059        0.033       22.773        7.583        0.111      341.187       15.726      866.164
05/02/2014  01:17:00      -20.903        3.874       -0.907       12.181        6.084        4.451      148.379       37.021       19.810        0.033        0.010       21.259        5.567        0.069      341.351       16.003      866.148
05/02/2014  01:18:00        6.785      -10.037        4.985       15.644       10.364        9.286      244.742      107.419       86.234        0.030        0.022       12.115        9.154        0.571      341.044       15.483      866.144
05/02/2014  01:19:00       28.457       15.741        2.522       10.130       17.419       11.149      102.625      303.432      124.299        0.080        0.027       32.521        7.785        0.057      340.963       15.348      866.142
05/02/2014  01:20:00       19.911       65.887       -9.028       15.162       14.302        6.920      229.899      204.536       47.890        0.265        0.024       68.830        4.801        0.005      341.356       16.011      866.134
05/02/2014  01:21:00       -3.593       70.838      -10.622       10.417       18.691        7.922      108.513      349.371       62.756        0.283        0.026       70.929        6.666        0.009      341.399       16.085      866.126
05/02/2014  01:22:00        9.153       89.634       -9.770       12.435       12.987        5.889      154.638      168.655       34.675        0.429        0.018       90.100        2.662        0.001      341.727       16.641      866.142
05/02/2014  01:23:00       27.794       34.765        0.293       19.812       21.338       13.941      392.533      455.322      194.351        0.151        0.052       44.509       11.103        0.062      341.546       16.333      866.136
05/02/2014  01:24:00       11.315       14.059        1.816       23.882       17.565       14.680      570.363      308.545      215.511        0.071        0.055       18.047       12.557        0.484      341.445       16.162      866.127
05/02/2014  01:25:00        1.844        2.686       -1.522       14.791       18.613       12.363      218.762      346.438      152.837        0.037        0.036        3.258       10.923       11.238      341.507       16.267      866.127
05/02/2014  01:26:00       22.790        1.299       -9.549       13.459       19.458       10.978      181.155      378.614      120.508        0.065        0.034       22.827        8.065        0.125      341.231       15.801      866.132
05/02/2014  01:27:00       31.426        6.617       18.136       20.413       12.945       20.717      416.687      167.561      429.203        0.119        0.051       32.115        9.734        0.092      341.129       15.627      866.118
05/02/2014  01:28:00       11.071       -1.181        4.072        9.373        8.212        7.450       87.851       67.436       55.510        0.018        0.011       11.134        3.125        0.079      341.329       15.966      866.109
05/02/2014  01:29:00      -36.573      -11.279       -1.217       20.754        9.941       13.236      430.714       98.818      175.195        0.109        0.035       38.273       13.812        0.130      341.009       15.426      866.106
05/02/2014  01:30:00      -56.097       -6.012       -9.473       15.194       10.947        9.035      230.861      119.847       81.631        0.185        0.022       56.418        5.396        0.009      340.615       14.757      866.114
05/02/2014  01:31:00      -77.246        0.575      -13.433       13.321       14.761       10.845      177.446      217.894      117.611        0.333        0.026       77.248        8.205        0.011      340.586       14.708      866.103
05/02/2014  01:32:00      -99.826      -17.028       -7.462       40.879       40.525       20.996     1671.095     1642.287      440.816        0.703        0.188      101.268       20.514        0.041      340.407       14.407      866.096
05/02/2014  01:33:00      -70.007       -2.927       -5.772       49.282       41.726       29.837     2428.693     1741.041      890.253        0.500        0.253       70.068       25.828        0.136      340.437       14.456      866.090
05/02/2014  01:34:00      -43.296       31.237      -10.646       45.946       36.408       17.632     2110.998     1325.569      310.881        0.335        0.187       53.388       21.987        0.170      340.611       14.751      866.070
05/02/2014  01:35:00      -71.470       22.518      -12.538       26.385       25.249       17.600      696.150      637.515      309.751        0.371        0.082       74.933       12.682        0.029      340.677       14.863      866.065
05/02/2014  01:36:00      -33.881       45.126        1.488       43.624       19.575       23.145     1903.047      383.179      535.668        0.300        0.141       56.429       24.443        0.188      341.089       15.560      866.046
05/02/2014  01:37:00      -46.338       25.580      -11.570       58.854       43.322       20.422     3463.811     1876.831      417.060        0.435        0.288       52.930       19.810        0.140      341.128       15.626      866.024
05/02/2014  01:38:00      -68.924        0.723      -12.005       70.127       43.201       27.836     4917.864     1866.310      774.822        0.623        0.378       68.928       27.854        0.163      340.897       15.236      866.027
05/02/2014  01:39:00       38.463       30.457       19.969       50.071       41.628       40.783     2507.097     1732.885     1663.252        0.435        0.295       49.062       29.954        0.373      340.970       15.357      865.998
05/02/2014  01:40:00      -62.339        4.525      -10.859       87.226       35.675       23.360     7608.327     1272.695      545.703        0.672        0.471       62.503       19.215        0.095      340.795       15.061      865.999
05/02/2014  01:41:00     -179.768       17.135      -11.353       66.919       48.905       35.981     4478.161     2391.713     1294.648        2.045        0.408      180.583       30.098        0.028      340.866       15.182      866.005
05/02/2014  01:42:00      -65.259        6.269       -1.770       36.349       34.790       24.849     1321.273     1210.321      617.455        0.372        0.157       65.560       23.002        0.123      340.933       15.297      866.008
05/02/2014  01:43:00      -69.755      106.772       -1.398       38.933       50.041       26.853     1515.783     2504.081      721.074        1.050        0.237      127.538       25.368        0.040      341.349       15.999      866.002
05/02/2014  01:44:00      -79.610       88.132       -9.736       40.534       37.772       30.435     1643.041     1426.761      926.273        0.910        0.200      118.765       29.901        0.063      341.372       16.040      865.995
05/02/2014  01:45:00      -35.602       17.693        1.304       20.428       27.112       18.778      417.285      735.056      352.608        0.154        0.075       39.756       11.608        0.085      341.274       15.875      865.982
05/02/2014  01:46:00      -45.051      -47.550        1.025       39.571       35.758       25.284     1565.890     1278.636      639.281        0.389        0.174       65.503       22.035        0.113      340.884       15.211      865.978
05/02/2014  01:47:00     -122.923      -81.978        4.130       52.509       43.353       27.946     2757.174     1879.515      780.951        1.363        0.271      147.752       26.345        0.032      340.626       14.776      865.979
05/02/2014  01:48:00      -67.014      -26.562        0.833       25.666       36.654       19.735      658.719     1343.546      389.452        0.379        0.120       72.086       15.939        0.049      340.822       15.108      865.969
05/02/2014  01:49:00      -32.156        8.921        4.447       19.295       20.860       13.199      372.301      435.145      174.211        0.106        0.049       33.370       11.367        0.116      340.973       15.363      865.942
05/02/2014  01:50:00      -24.855       -5.670       -2.189       20.044       15.447       11.344      401.766      238.607      128.685        0.071        0.038       25.493        5.857        0.053      341.184       15.722      865.925
05/02/2014  01:51:00      -92.931      -55.113       -5.943       43.726       33.561       19.982     1911.974     1126.372      399.277        0.757        0.172      108.045       11.589        0.012      340.980       15.376      865.929
05/02/2014  01:52:00     -101.924      -80.279        3.498       60.243       41.894       25.697     3629.268     1755.135      660.340        1.144        0.302      129.743       25.126        0.038      340.665       14.842      865.935
05/02/2014  01:53:00      -70.463      -66.973        2.710       38.255       36.966       27.223     1463.448     1366.506      741.074        0.651        0.179       97.213       23.187        0.057      340.656       14.827      865.936
05/02/2014  01:54:00      -69.703      -35.200       -1.519       36.256       29.697       20.361     1314.473      881.928      414.568        0.435        0.131       78.087       22.513        0.083      340.637       14.795      865.923
05/02/2014  01:55:00      -85.265      -44.444        0.919       58.893       41.956       31.048     3468.370     1760.335      963.975        0.772        0.310       96.152       37.048        0.148      340.531       14.616      865.923
05/02/2014  01:56:00     -118.904      -55.603       -7.379       31.813       35.333       21.175     1012.055     1248.407      448.388        1.000        0.135      131.262       15.956        0.015      340.533       14.619      865.923
05/02/2014  01:57:00     -118.840      -58.141        4.844       64.147       73.939       33.216     4114.788     5466.942     1103.281        1.410        0.534      132.300       37.661        0.081      340.485       14.536      865.911
05/02/2014  01:58:00     -125.773      -26.058       -0.090       71.089       64.881       33.997     5053.677     4209.577     1155.783        1.346        0.521      128.444       29.748        0.054      340.441       14.463      865.921
05/02/2014  01:59:00     -137.955      -24.593       -8.290       69.508       38.881       28.391     4831.324     1511.713      806.050        1.343        0.357      140.130       32.328        0.053      340.453       14.484      865.925
05/02/2014  02:00:00     -153.362      -40.657      -10.678       52.969       36.762       31.237     2805.686     1351.468      975.767        1.521        0.257      158.660       30.004        0.036      340.428       14.439      865.919
05/02/2014  02:01:00     -149.089       13.870      -10.999       48.321       43.627       26.997     2334.902     1903.288      728.860        1.375        0.248      149.732       25.803        0.030      340.448       14.476      865.909
05/02/2014  02:02:00     -162.771      -16.404      -14.670       43.973       34.592       33.775     1933.615     1196.641     1140.735        1.562        0.214      163.595       30.968        0.036      340.486       14.541      865.909
05/02/2014  02:03:00     -194.167      -29.505      -18.993       48.419       33.926       26.058     2344.369     1150.956      679.009        2.155        0.209      196.396       25.686        0.017      340.304       14.231      865.905
05/02/2014  02:04:00     -137.004      -31.459       -6.679       50.246       40.350       22.989     2524.682     1628.118      528.515        1.224        0.234      140.569       24.515        0.030      340.316       14.253      865.913
05/02/2014  02:05:00     -114.693      -34.694       -6.753       38.823       35.567       21.618     1507.208     1264.982      467.344        0.882        0.162      119.826       16.934        0.020      340.341       14.293      865.915
05/02/2014  02:06:00     -101.587      -34.217       -9.355       24.229       42.534       16.057      587.020     1809.118      257.828        0.712        0.133      107.195       10.786        0.010      340.349       14.308      865.890
05/02/2014  02:07:00     -141.397      -34.885       -9.711       33.695       23.818       20.120     1135.375      567.296      404.833        1.171        0.105      145.637       20.816        0.020      340.325       14.268      865.871
05/02/2014  02:08:00     -153.943      -40.037       -9.184       37.929       28.101       29.301     1438.634      789.694      858.527        1.424        0.154      159.064       26.352        0.027      340.274       14.182      865.855
05/02/2014  02:09:00     -158.528      -63.004       -9.842       33.737       44.164       21.914     1138.160     1950.487      480.240        1.638        0.178      170.589       16.012        0.009      340.253       14.146      865.854
05/02/2014  02:10:00     -164.337      -58.277      -10.579       48.240       54.490       26.681     2327.086     2969.124      711.895        1.826        0.300      174.364       24.329        0.019      340.255       14.148      865.843
05/02/2014  02:11:00     -140.872       -5.412      -16.463       43.177       28.600       21.263     1864.220      817.947      452.130        1.164        0.157      140.976       24.525        0.030      340.313       14.248      865.830
05/02/2014  02:12:00     -168.177      -13.783      -15.784       43.340       43.939       25.744     1878.385     1930.597      662.730        1.660        0.224      168.741       23.878        0.020      340.362       14.330      865.829
05/02/2014  02:13:00     -117.280      -29.844       -9.956       60.222       35.468       25.221     3626.670     1257.994      636.122        1.013        0.276      121.017       28.541        0.056      340.203       14.062      865.836
05/02/2014  02:14:00     -112.246        3.611      -10.560       34.158       33.161       19.573     1166.752     1099.642      383.112        0.769        0.132      112.304       20.226        0.032      340.333       14.280      865.841
05/02/2014  02:15:00     -135.133      -19.776       -9.311       38.932       30.718       24.233     1515.720      943.605      587.249        1.089        0.152      136.572       23.284        0.029      340.344       14.300      865.850
05/02/2014  02:16:00     -104.964      -28.398       -4.246       20.253       26.085       13.126      410.188      680.424      172.302        0.655        0.063      108.738       10.288        0.009      340.303       14.231      865.847
05/02/2014  02:17:00      -33.136        6.408        2.238       30.616       31.610       11.452      937.350      999.168      131.146        0.161        0.103       33.750        7.021        0.043      340.168       14.002      865.847
05/02/2014  02:18:00      -62.506       -5.881        1.383       27.779       33.150       20.641      771.701     1098.895      426.039        0.312        0.115       62.782       18.852        0.090      340.306       14.235      865.848
05/02/2014  02:19:00     -108.851      -40.536      -12.671       25.163       22.385       15.000      633.186      501.110      225.007        0.751        0.068      116.154       15.864        0.019      340.231       14.108      865.850
05/02/2014  02:20:00      -58.605      -42.797       -0.213       41.041       28.271       18.653     1684.344      799.271      347.929        0.405        0.142       72.568       21.308        0.086      340.148       13.967      865.860
05/02/2014  02:21:00      -72.915      -40.740      -11.254       25.276       21.905       14.526      638.873      479.815      211.013        0.422        0.066       83.524       12.622        0.023      340.157       13.983      865.862
05/02/2014  02:22:00      -72.966      -28.702        0.079       27.341       25.629       14.964      747.552      656.847      223.916        0.389        0.081       78.409       14.248        0.033      340.388       14.374      865.854
05/02/2014  02:23:00      -32.192       -4.246        4.776       30.937       26.447       14.753      957.121      699.434      217.651        0.148        0.094       32.471       11.352        0.122      340.091       13.871      865.842
05/02/2014  02:24:00     -101.919      -20.540       -7.946       19.027       20.168        8.679      362.020      406.729       75.330        0.586        0.042      103.968        7.380        0.005      340.267       14.169      865.819
05/02/2014  02:25:00      -72.160        3.071       -0.787       23.973       28.885       15.768      574.697      834.323      248.623        0.344        0.083       72.225       11.806        0.027      340.272       14.178      865.806
05/02/2014  02:26:00      -90.652        2.340       -5.761       43.975       28.459       24.662     1933.811      809.897      608.207        0.580        0.168       90.682       22.368        0.061      340.503       14.569      865.814
05/02/2014  02:27:00      -97.101      -16.042       -3.453       39.480       24.519       20.803     1558.655      601.198      432.775        0.614        0.130       98.418       19.807        0.041      340.468       14.509      865.812
05/02/2014  02:28:00     -115.296      -27.854       -1.945       34.726       26.113       18.354     1205.898      681.883      336.856        0.815        0.111      118.613       18.114        0.023      340.281       14.192      865.805
05/02/2014  02:29:00     -127.924      -62.898       -4.037       22.217       20.725       14.359      493.584      429.514      206.170        1.073        0.056      142.551        9.732        0.005      340.139       13.954      865.812
05/02/2014  02:30:00     -122.114      -43.380       -1.226       15.900       27.046       13.710      252.809      731.489      187.973        0.898        0.059      129.591       11.247        0.008      340.124       13.930      865.819
05/02/2014  02:31:00     -124.851      -34.564       -9.332       20.533       22.630       15.723      421.587      512.115      247.201        0.903        0.059      129.548       14.785        0.013      340.119       13.919      865.818
05/02/2014  02:32:00     -119.751      -22.066      -10.235       30.682       30.939       15.951      941.378      957.196      254.445        0.854        0.108      121.767       14.046        0.013      340.135       13.947      865.815
05/02/2014  02:33:00     -121.808      -14.496       -4.532       41.667       30.475       24.178     1736.113      928.727      584.588        0.916        0.162      122.668       25.374        0.043      340.126       13.931      865.818
05/02/2014  02:34:00      -79.140      -41.709        3.364       40.011       27.620       19.052     1600.859      762.877      362.988        0.537        0.136       89.458       16.427        0.034      340.139       13.953      865.816
05/02/2014  02:35:00      -81.973      -46.481        1.290       34.173       27.285       20.165     1167.806      744.498      406.609        0.560        0.116       94.234       20.675        0.048      340.145       13.963      865.812
05/02/2014  02:36:00      -83.628      -54.205        0.233       41.881       38.778       24.776     1754.031     1503.715      613.833        0.690        0.194       99.659       15.503        0.024      340.084       13.860      865.809
05/02/2014  02:37:00      -68.244      -50.039        5.765       51.977       29.621       24.278     2701.603      877.397      589.434        0.568        0.208       84.623       22.380        0.070      339.987       13.696      865.812
05/02/2014  02:38:00      -92.653      -59.513        4.237       66.871       43.218       27.615     4471.764     1867.758      762.602        0.962        0.355      110.120       27.074        0.060      340.031       13.771      865.821
05/02/2014  02:39:00     -139.917      -47.166        2.814       66.157       48.277       26.258     4376.690     2330.627      689.488        1.460        0.370      147.653       21.202        0.021      339.974       13.675      865.822
05/02/2014  02:40:00     -162.977      -68.953       -0.934       66.093       48.103       25.911     4368.239     2313.915      671.369        1.933        0.368      176.964       30.122        0.029      339.974       13.673      865.802
05/02/2014  02:41:00     -169.677      -60.543       -4.096       55.875       50.216       26.461     3121.986     2521.620      700.191        1.941        0.317      180.155       26.335        0.021      339.848       13.461      865.793
05/02/2014  02:42:00      -95.208      -49.553       -6.951       60.321       36.905       24.902     3638.613     1361.988      620.127        0.859        0.281      107.331       24.562        0.052      339.852       13.469      865.788
05/02/2014  02:43:00     -121.827      -49.566      -11.870       30.738       35.427       22.080      944.835     1255.097      487.514        1.006        0.134      131.524       11.883        0.008      339.886       13.526      865.784
05/02/2014  02:44:00     -185.470        0.357      -20.904       49.667       35.273       24.642     2466.780     1244.154      607.252        1.958        0.216      185.470       15.810        0.007      339.801       13.382      865.796
05/02/2014  02:45:00     -205.852      -45.462      -10.110       48.009       31.951       28.424     2304.848     1020.845      807.912        2.434        0.207      210.813       26.145        0.015      339.605       13.050      865.806
05/02/2014  02:46:00     -175.529      -29.440       -3.233       62.669       62.988       38.499     3927.369     3967.448     1482.167        2.053        0.469      177.981       32.076        0.032      339.581       13.010      865.817
05/02/2014  02:47:00     -175.016       30.431      -15.610       38.672       27.826       20.310     1495.554      774.293      412.478        1.724        0.134      177.642       14.104        0.006      339.743       13.284      865.807
05/02/2014  02:48:00     -142.959      -51.083       -5.490       56.592       42.100       27.320     3202.624     1772.426      746.400        1.440        0.286      151.811       31.442        0.043      339.642       13.114      865.814
05/02/2014  02:49:00     -151.380      -44.031       -0.238       55.170       42.061       24.664     3043.678     1769.111      608.296        1.514        0.271      157.653       23.420        0.022      339.485       12.849      865.813
05/02/2014  02:50:00     -134.518      -12.767      -11.920       49.467       33.342       20.468     2446.977     1111.692      418.935        1.119        0.199      135.123       23.441        0.030      339.584       13.017      865.789
05/02/2014  02:51:00     -101.048        6.530       -6.807       62.379       33.926       27.347     3891.167     1150.962      747.872        0.804        0.290      101.259       25.039        0.061      339.627       13.092      865.776
05/02/2014  02:52:00     -108.254      -21.824        0.401       33.553       28.983       18.573     1125.793      840.002      344.958        0.725        0.116      110.432       17.024        0.024      339.452       12.795      865.787
05/02/2014  02:53:00      -84.920      -67.185        6.720       72.453       51.359       28.807     5249.386     2637.756      829.839        1.024        0.436      108.283       32.267        0.089      339.437       12.770      865.795
05/02/2014  02:54:00     -128.294     -104.137       -8.480       44.156       36.599       28.918     1949.772     1339.484      836.241        1.575        0.206      165.238       22.608        0.019      339.601       13.046      865.789
05/02/2014  02:55:00      -95.719      -98.086       -9.883       51.591       38.534       24.043     2661.637     1484.880      578.057        1.180        0.236      137.050       15.215        0.012      339.709       13.229      865.776
05/02/2014  02:56:00     -115.128      -96.426        4.258       58.202       57.725       31.972     3387.517     3332.147     1022.212        1.515        0.387      150.175       31.611        0.044      339.669       13.161      865.779
05/02/2014  02:57:00     -132.977      -54.361       -2.260       43.803       38.435       21.354     1918.682     1477.228      456.009        1.225        0.193      143.659       17.778        0.015      339.662       13.148      865.777
05/02/2014  02:58:00     -144.046      -49.172       -7.182       29.877       24.922       17.819      892.631      621.091      317.532        1.252        0.092      152.207       10.988        0.005      339.622       13.081      865.765
05/02/2014  02:59:00      -92.858      -49.754        1.066       50.233       33.596       20.124     2523.343     1128.723      404.967        0.758        0.203      105.347       24.325        0.053      339.553       12.966      865.759
05/02/2014  03:00:00      -99.541      -90.616        1.742       59.032       46.086       27.488     3484.751     2123.918      755.578        1.224        0.318      134.609       27.181        0.041      339.536       12.937      865.764
05/02/2014  03:01:00     -127.513      -68.149        3.423       48.523       30.511       19.304     2354.437      930.937      372.651        1.229        0.183      144.581       12.662        0.008      339.526       12.919      865.766
05/02/2014  03:02:00     -123.409      -48.547      -12.496       42.004       38.674       23.727     1764.335     1495.696      562.970        1.078        0.191      132.614       22.126        0.028      339.410       12.724      865.763
05/02/2014  03:03:00     -125.842      -26.544       -5.409       46.310       30.023       28.350     2144.661      901.406      803.704        1.021        0.192      128.611       30.614        0.057      339.278       12.502      865.755
05/02/2014  03:04:00     -142.458      -20.977      -10.467       32.164       27.696       22.736     1034.551      767.090      516.935        1.158        0.116      143.995       16.628        0.013      339.287       12.517      865.750
05/02/2014  03:05:00     -154.025      -44.469        4.084       47.345       35.999       25.250     2241.575     1295.962      637.581        1.495        0.209      160.316       21.033        0.017      339.215       12.393      865.752
05/02/2014  03:06:00     -135.492      -37.972       -4.079       59.093       48.016       27.518     3491.956     2305.515      757.242        1.318        0.328      140.712       28.560        0.041      339.291       12.523      865.745
05/02/2014  03:07:00     -133.182      -33.830       -7.535       43.469       32.988       22.670     1889.552     1088.213      513.915        1.121        0.175      137.412       18.132        0.017      339.167       12.315      865.748
05/02/2014  03:08:00     -133.687      -39.205       -6.957       60.692       40.344       28.511     3683.458     1627.647      812.890        1.279        0.306      139.317       32.290        0.054      339.135       12.261      865.739
05/02/2014  03:09:00     -155.035      -48.583       -2.698       56.770       49.206       25.294     3222.879     2421.193      639.797        1.634        0.314      162.469       20.731        0.016      339.085       12.176      865.733
05/02/2014  03:10:00     -145.212      -63.001       -1.971       42.722       24.923       25.814     1825.159      621.148      666.374        1.409        0.156      158.290       21.961        0.019      339.118       12.233      865.735
05/02/2014  03:11:00     -100.225      -57.121        1.564       45.313       26.865       23.557     2053.279      721.753      554.934        0.832        0.166      115.360       15.314        0.018      339.170       12.318      865.738
05/02/2014  03:12:00     -139.852      -66.414        1.297       55.111       39.417       22.633     3037.231     1553.681      512.273        1.454        0.255      154.821       25.584        0.027      339.149       12.286      865.743
05/02/2014  03:13:00     -125.821      -55.687        6.883       43.133       45.435       26.914     1860.414     2064.333      724.368        1.181        0.232      137.593       22.068        0.026      339.151       12.288      865.745
05/02/2014  03:14:00     -127.261      -82.679        3.099       53.324       33.745       26.564     2843.408     1138.730      705.656        1.386        0.234      151.760       23.111        0.023      339.154       12.292      865.758
05/02/2014  03:15:00      -88.992      -74.915        9.500       55.374       48.017       31.498     3066.261     2305.617      992.125        0.999        0.318      116.326       32.877        0.080      339.212       12.392      865.761
05/02/2014  03:16:00      -64.317      -53.217        2.228       49.553       30.288       30.747     2455.494      917.356      945.379        0.565        0.216       83.479       17.860        0.046      339.167       12.314      865.764
05/02/2014  03:17:00      -63.370      -49.633       -3.574       32.574       26.163       20.573     1061.097      684.520      423.232        0.433        0.108       80.493       15.964        0.039      339.216       12.398      865.758
05/02/2014  03:18:00     -110.543      -30.117       -4.272       27.486       21.685       14.043      755.502      470.246      197.203        0.728        0.071      114.572        9.870        0.007      339.350       12.624      865.750
05/02/2014  03:19:00     -109.060      -42.755      -12.887       12.838       17.172        9.329      164.809      294.865       87.027        0.722        0.027      117.142        7.401        0.004      339.292       12.524      865.750
05/02/2014  03:20:00     -111.917      -39.973      -15.191       18.770       21.893       14.773      352.306      479.284      218.256        0.770        0.052      118.841        9.908        0.007      339.201       12.372      865.758
05/02/2014  03:21:00     -120.139      -28.762       -4.408       45.017       43.269       20.618     2026.529     1872.169      425.116        0.980        0.216      123.533       16.306        0.017      339.189       12.353      865.752
05/02/2014  03:22:00     -140.156      -48.925      -10.438       35.767       48.385       21.534     1279.276     2341.128      463.725        1.311        0.204      148.450       14.401        0.009      338.963       11.972      865.743
05/02/2014  03:23:00     -128.320      -38.767       -7.108       46.279       39.792       24.832     2141.765     1583.440      616.637        1.118        0.217      134.048       25.283        0.036      338.913       11.888      865.732
05/02/2014  03:24:00     -145.982      -16.262       -4.868       51.517       34.610       25.194     2654.020     1197.849      634.718        1.304        0.224      146.885       23.886        0.026      338.871       11.818      865.736
05/02/2014  03:25:00     -113.737      -42.212       -9.445       34.169       35.155       13.083     1167.494     1235.861      171.159        0.869        0.129      121.318        8.306        0.005      338.944       11.940      865.741
05/02/2014  03:26:00     -108.972      -39.437       -0.549       42.895       30.412       18.193     1839.952      924.905      330.984        0.826        0.155      115.889       19.512        0.028      339.067       12.146      865.747
05/02/2014  03:27:00     -122.296      -44.801        5.972       69.684       34.591       24.847     4855.910     1196.570      617.352        1.183        0.333      130.244       30.795        0.056      339.106       12.213      865.751
05/02/2014  03:28:00      -98.627      -59.289        0.996       36.096       32.511       16.314     1302.893     1056.992      266.160        0.793        0.131      115.076       17.575        0.023      339.308       12.553      865.755
05/02/2014  03:29:00      -85.200      -50.101       -4.719       42.721       29.720       17.421     1825.107      883.286      303.492        0.640        0.151       98.839       20.118        0.041      339.285       12.513      865.783
05/02/2014  03:30:00      -90.482      -46.095       -6.227       37.696       26.589       16.393     1420.961      706.958      268.731        0.637        0.120      101.547       15.999        0.025      339.277       12.501      865.783
05/02/2014  03:31:00      -88.373      -54.460       -5.463       23.336       22.532       14.855      544.581      507.673      220.667        0.604        0.064      103.806       10.673        0.011      339.214       12.395      865.785
05/02/2014  03:32:00      -65.381      -56.641        8.234       43.897       27.818       18.809     1926.932      773.840      353.781        0.530        0.153       86.504       20.870        0.058      339.237       12.432      865.779
05/02/2014  03:33:00      -45.804      -35.192        3.177       37.029       21.667       18.182     1371.132      469.466      330.569        0.276        0.109       57.762       16.123        0.078      339.295       12.529      865.775
05/02/2014  03:34:00      -32.698      -44.187       13.620       53.659       32.912       24.449     2879.248     1083.184      597.772        0.388        0.228       54.970       28.440        0.268      339.225       12.413      865.779
05/02/2014  03:35:00      -86.523      -41.018        1.162       43.402       29.678       20.822     1883.727      880.757      433.567        0.618        0.160       95.753       21.753        0.052      339.301       12.540      865.777
05/02/2014  03:36:00      -88.184       17.893       -4.408       54.396       31.286       22.808     2958.938      978.842      520.211        0.629        0.223       89.981       27.957        0.097      339.164       12.310      865.775
05/02/2014  03:37:00     -143.729       25.786      -13.687       44.670       27.100       24.315     1995.377      734.394      591.242        1.241        0.166      146.024       20.712        0.020      339.232       12.425      865.780
05/02/2014  03:38:00     -123.709      -35.233       -5.347       35.758       35.507       21.624     1278.668     1260.766      467.603        0.979        0.150      128.628       19.433        0.023      339.006       12.043      865.764
05/02/2014  03:39:00     -138.833      -24.259       -7.913       45.450       29.702       23.593     2065.746      882.224      556.645        1.171        0.175      140.936       25.002        0.031      338.865       11.806      865.763
05/02/2014  03:40:00      -84.189        5.309        1.483       48.773       38.848       23.445     2378.792     1509.130      549.686        0.578        0.222       84.356       23.684        0.079      339.068       12.149      865.761
05/02/2014  03:41:00     -168.403        0.034      -12.182       54.561       47.959       31.280     2976.857     2300.089      978.455        1.738        0.313      168.403       32.299        0.037      338.968       11.979      865.753
05/02/2014  03:42:00     -148.852      -17.657       -9.251       46.996       35.678       28.332     2208.604     1272.950      802.682        1.342        0.214      149.895       28.883        0.037      338.855       11.790      865.754
05/02/2014  03:43:00     -125.800      -28.810       -8.248       46.026       36.309       24.071     2118.387     1318.335      579.428        1.037        0.201      129.057       27.348        0.045      338.703       11.535      865.746
05/02/2014  03:44:00     -126.541      -18.042      -10.528       45.405       41.363       25.517     2061.650     1710.890      651.125        1.044        0.221      127.821       23.101        0.033      338.762       11.635      865.759
05/02/2014  03:45:00     -125.920      -17.436       -8.701       46.599       35.491       26.904     2171.424     1259.614      723.831        1.019        0.208      127.121       26.305        0.043      338.731       11.582      865.764
05/02/2014  03:46:00     -139.710       -9.331       -6.701       39.722       27.815       22.691     1577.827      773.668      514.864        1.126        0.143      140.021       19.294        0.019      338.906       11.876      865.761
05/02/2014  03:47:00     -133.554      -39.031       -8.456       27.833       40.337       22.372      774.674     1627.084      500.521        1.117        0.145      139.141       18.539        0.018      338.853       11.787      865.742
05/02/2014  03:48:00     -146.830      -75.341       -3.148       21.204       21.400       15.960      449.611      457.973      254.731        1.420        0.058      165.031       12.987        0.006      338.827       11.744      865.742
05/02/2014  03:49:00      -86.845      -73.956        2.032       45.665       33.109       21.049     2085.248     1096.211      443.053        0.832        0.181      114.068       15.007        0.017      338.882       11.836      865.744
05/02/2014  03:50:00     -141.507     -114.333        2.632       69.573       53.010       37.421     4840.467     2810.035     1400.349        2.108        0.453      181.924       26.850        0.022      338.898       11.859      865.755
05/02/2014  03:51:00     -127.993     -102.382        3.169       74.508       52.635       42.579     5551.414     2770.436     1812.968        1.850        0.507      163.904       41.385        0.064      338.861       11.799      865.756
05/02/2014  03:52:00     -137.026      -90.021       -4.332       57.174       47.782       25.275     3268.898     2283.093      638.803        1.654        0.310      163.951       30.337        0.034      338.881       11.833      865.753
05/02/2014  03:53:00     -109.154      -89.597       -5.220       39.103       45.652       24.944     1529.024     2084.128      622.181        1.210        0.212      141.217       20.892        0.022      338.976       11.994      865.744
05/02/2014  03:54:00     -116.618      -63.244       -3.418       38.040       33.494       20.692     1447.051     1121.861      428.176        1.030        0.150      132.663       20.664        0.024      339.047       12.112      865.764
05/02/2014  03:55:00      -98.489      -50.222       -8.741       34.403       37.526       21.855     1183.548     1408.201      477.642        0.768        0.153      110.555       15.175        0.019      339.079       12.166      865.758
05/02/2014  03:56:00      -75.691      -24.548        3.364       35.293       28.888       17.992     1245.588      834.541      323.729        0.437        0.120       79.572       12.013        0.023      339.112       12.223      865.760
05/02/2014  03:57:00      -69.406      -34.323        1.053       24.636       21.699       18.057      606.927      470.830      326.060        0.370        0.070       77.429       15.993        0.043      339.098       12.198      865.778
05/02/2014  03:58:00      -27.943      -39.598       -3.856       26.529       15.156       11.358      703.776      229.704      129.009        0.171        0.053       48.465        7.546        0.024      339.160       12.303      865.787
05/02/2014  03:59:00      -20.845      -60.372        0.209       35.527       22.414       18.469     1262.144      502.399      341.113        0.309        0.105       63.869       20.440        0.102      339.175       12.328      865.797
05/02/2014  04:00:00      -14.647      -56.465       -4.687       29.133       22.568       17.458      848.707      509.305      304.778        0.254        0.083       58.334        6.809        0.014      339.091       12.187      865.800
05/02/2014  04:01:00      -45.116      -72.637        3.273       33.547       24.226       15.108     1125.384      586.876      228.258        0.463        0.097       85.508       17.745        0.043      339.087       12.179      865.800
05/02/2014  04:02:00      -47.785     -101.157       -4.720       33.177       30.904       22.927     1100.685      955.038      525.650        0.756        0.129      111.875       18.694        0.028      339.170       12.320      865.803
05/02/2014  04:03:00      -44.963      -55.739       11.258       47.746       43.592       31.493     2279.684     1900.304      991.827        0.521        0.259       71.614       32.242        0.203      339.024       12.074      865.806
05/02/2014  04:04:00     -106.900     -104.047       -3.353       45.386       46.104       26.021     2059.850     2125.568      677.083        1.356        0.243      149.175       23.607        0.025      338.958       11.962      865.811
05/02/2014  04:05:00     -122.724     -103.471       -3.581       50.364       37.246       31.122     2536.497     1387.293      968.584        1.534        0.245      160.522       27.299        0.029      338.906       11.876      865.819
05/02/2014  04:06:00     -118.349      -70.665       -7.817       39.565       44.970       25.614     1565.365     2022.320      656.053        1.165        0.212      137.841       18.107        0.017      338.772       11.651      865.830
05/02/2014  04:07:00      -85.685      -52.011       -1.684       43.900       44.223       25.440     1927.172     1955.689      647.174        0.729        0.227      100.235       27.179        0.074      338.711       11.549      865.833
05/02/2014  04:08:00      -85.437      -50.083        7.350       49.696       40.353       23.881     2469.677     1628.378      570.320        0.726        0.233       99.035       26.101        0.069      338.732       11.582      865.842
05/02/2014  04:09:00     -114.015      -58.140       -0.739       40.621       53.163       29.169     1650.063     2826.263      850.803        1.085        0.266      127.983       30.417        0.056      338.717       11.558      865.848
05/02/2014  04:10:00      -80.153      -48.594        6.224       46.324       43.264       33.659     2145.958     1871.741     1132.939        0.699        0.258       93.733       33.079        0.125      338.710       11.546      865.839
05/02/2014  04:11:00      -73.031      -50.865        9.327       63.564       32.584       28.981     4040.332     1061.720      839.899        0.697        0.297       88.999       33.310        0.140      338.655       11.454      865.829
05/02/2014  04:12:00     -111.812      -86.440       -1.134       55.888       63.735       28.425     3123.495     4062.181      807.972        1.398        0.400      141.329       19.517        0.019      338.687       11.508      865.826
05/02/2014  04:13:00     -128.910      -77.589       -7.018       52.019       54.956       26.463     2705.935     3020.177      700.284        1.456        0.321      150.459       22.875        0.023      338.689       11.510      865.823
05/02/2014  04:14:00     -145.661      -77.694        5.493       64.276       38.637       34.387     4131.391     1492.833     1182.499        1.704        0.340      165.086       29.291        0.031      338.683       11.499      865.821
05/02/2014  04:15:00      -95.980      -78.643        5.897       58.107       63.792       30.954     3376.366     4069.459      958.156        1.192        0.420      124.084       27.475        0.049      338.675       11.487      865.813
05/02/2014  04:16:00      -55.048      -91.667       13.503       42.032       46.346       31.529     1766.709     2147.935      994.093        0.826        0.245      106.926       28.298        0.070      338.746       11.606      865.817
05/02/2014  04:17:00      -82.561      -68.148        1.613       68.529       35.182       25.655     4696.178     1237.743      658.177        0.903        0.330      107.054       31.477        0.086      338.727       11.576      865.823
05/02/2014  04:18:00      -95.560      -73.193       -4.411       33.714       48.392       17.147     1136.629     2341.810      294.020        0.914        0.189      120.370       12.396        0.011      338.758       11.626      865.828
05/02/2014  04:19:00      -73.401      -27.441        2.384       29.319       19.578       15.948      859.608      383.292      254.323        0.382        0.075       78.362       16.046        0.042      338.716       11.556      865.849
05/02/2014  04:20:00      -62.621       45.854      -14.941       27.105       42.091       13.292      734.699     1771.674      176.670        0.446        0.134       77.614       12.258        0.025      338.632       11.416      865.854
05/02/2014  04:21:00      -55.295       43.498       -4.616       22.199       24.545       17.158      492.793      602.438      294.406        0.318        0.069       70.353       13.833        0.039      338.801       11.700      865.854
05/02/2014  04:22:00      -70.765       54.674      -16.466       17.088       19.997       14.705      291.992      399.885      216.230        0.459        0.045       89.426        8.837        0.010      338.603       11.366      865.847
05/02/2014  04:23:00      -52.090       30.879       -5.663       20.169       35.093       21.183      406.794     1231.540      448.729        0.289        0.104       60.555       16.592        0.075      338.575       11.319      865.854
05/02/2014  04:24:00      -48.786        9.879       -5.552       15.751       33.748       14.461      248.088     1138.942      209.116        0.205        0.080       49.776       13.776        0.077      338.460       11.126      865.861
05/02/2014  04:25:00      -64.361      -10.512       -0.406       24.153       20.618       12.518      583.387      425.109      156.701        0.271        0.058       65.213       11.362        0.030      338.421       11.059      865.845
05/02/2014  04:26:00      -85.989       -9.611       -4.679       24.045       27.236       13.100      578.167      741.795      171.617        0.450        0.075       86.524       12.715        0.022      338.439       11.091      865.824
05/02/2014  04:27:00      -73.840       -3.243       -5.123       37.675       27.456       16.157     1419.418      753.815      261.057        0.396        0.122       73.911       16.249        0.048      338.461       11.129      865.817
05/02/2014  04:28:00      -88.516      -12.384       -1.758       19.212       24.356       15.150      369.109      593.200      229.520        0.459        0.060       89.378        9.270        0.011      338.490       11.178      865.825
05/02/2014  04:29:00      -50.981      -42.355       -2.532       25.656       24.759       12.072      658.243      613.008      145.742        0.291        0.071       66.280        7.905        0.014      338.558       11.290      865.819
05/02/2014  04:30:00      -25.465      -70.649      -10.240       20.982       34.143       16.128      440.242     1165.719      260.120        0.380        0.093       75.098        9.517        0.016      338.756       11.625      865.816
05/02/2014  04:31:00      -68.292      -45.071       -0.774       33.484       24.313       16.401     1121.185      591.142      268.981        0.434        0.099       81.825       16.068        0.039      338.739       11.596      865.811
05/02/2014  04:32:00      -60.809      -53.819        2.059       40.334       36.262       22.941     1626.848     1314.903      526.294        0.503        0.173       81.205       17.901        0.049      338.602       11.364      865.824
05/02/2014  04:33:00      -80.314      -33.813       -4.533       25.242       24.431       19.164      637.164      596.896      367.271        0.461        0.080       87.141       16.510        0.036      338.519       11.227      865.820
05/02/2014  04:34:00     -117.472      -40.677       -4.752       35.461       28.761       17.428     1257.486      827.194      303.741        0.893        0.119      124.315       16.149        0.017      338.377       10.988      865.821
05/02/2014  04:35:00     -115.064      -69.662       -7.374       51.621       18.938       15.523     2664.758      358.632      240.959        1.070        0.163      134.508       10.727        0.006      338.251       10.775      865.831
05/02/2014  04:36:00      -84.049      -23.132       -4.659       25.345       20.930       13.342      642.390      438.064      178.010        0.444        0.063       87.174       12.488        0.021      338.099       10.521      865.828
05/02/2014  04:37:00     -117.087      -34.715      -12.674       20.387       17.620       11.915      415.642      310.477      141.957        0.797        0.043      122.125        5.715        0.002      338.070       10.473      865.820
05/02/2014  04:38:00      -92.386      -34.963      -10.702       20.292       19.252       13.564      411.783      370.658      183.978        0.542        0.048       98.780        9.557        0.009      338.104       10.529      865.824
05/02/2014  04:39:00     -102.325      -28.453       -5.202       33.020       25.636       18.550     1090.301      657.227      344.087        0.670        0.105      106.207       19.672        0.034      338.052       10.442      865.840
05/02/2014  04:40:00      -84.443      -31.508        0.753       31.869       20.163       13.130     1015.619      406.543      172.409        0.486        0.080       90.130       12.231        0.018      338.124       10.561      865.841
05/02/2014  04:41:00      -69.318      -26.133       -5.369       20.258       20.557       10.341      410.399      422.605      106.934        0.323        0.047       74.080       10.412        0.020      338.258       10.786      865.835
05/02/2014  04:42:00      -55.814      -27.994        9.728       32.116       19.931       17.298     1031.405      397.252      299.229        0.286        0.086       62.441       17.446        0.078      338.260       10.791      865.838
05/02/2014  04:43:00      -88.917      -33.766        2.667       44.043       20.850       18.535     1939.822      434.723      343.559        0.589        0.136       95.113       22.336        0.055      338.290       10.841      865.828
05/02/2014  04:44:00      -26.158      -23.470        2.353       27.435       12.012       11.126      752.693      144.295      123.782        0.113        0.051       35.144        7.157        0.041      338.236       10.750      865.814
05/02/2014  04:45:00      -14.649      -25.696        2.254       18.874       11.051       10.935      356.210      122.131      119.564        0.074        0.030       29.578        9.151        0.096      338.379       10.991      865.796
05/02/2014  04:46:00      -42.936      -34.067       10.117       46.824       28.833       22.421     2192.482      831.359      502.718        0.332        0.176       54.809       23.014        0.176      338.203       10.694      865.794
05/02/2014  04:47:00      -67.670      -42.335       -2.644       53.241       33.042       21.398     2834.632     1091.792      457.883        0.538        0.219       79.822       18.487        0.054      338.108       10.536      865.800
05/02/2014  04:48:00      -56.171      -50.984        7.142       31.681       25.128       22.882     1003.677      631.436      523.594        0.398        0.108       75.858       19.560        0.066      338.117       10.550      865.795
05/02/2014  04:49:00      -47.304      -37.453       10.609       35.284       30.375       18.767     1244.969      922.642      352.196        0.314        0.126       60.336       21.068        0.122      338.152       10.609      865.798
05/02/2014  04:50:00     -102.436      -59.169       -5.408       29.418       26.052       19.458      865.423      678.704      378.627        0.797        0.096      118.296       16.076        0.018      338.177       10.650      865.813
05/02/2014  04:51:00      -74.393      -82.321        0.703       42.153       34.452       21.952     1776.859     1186.946      481.889        0.788        0.172      110.955       18.454        0.028      338.226       10.734      865.820
05/02/2014  04:52:00     -108.008      -93.379       -8.015       34.642       33.739       23.518     1200.069     1138.293      553.090        1.167        0.145      142.778       20.738        0.021      338.302       10.862      865.837
05/02/2014  04:53:00      -75.499      -60.670        9.624       62.269       41.218       29.739     3877.424     1698.904      884.437        0.797        0.323       96.855       23.413        0.058      338.270       10.808      865.845
05/02/2014  04:54:00      -49.362      -58.823        6.178       43.364       46.848       22.855     1880.417     2194.719      522.338        0.527        0.230       76.790       23.833        0.096      338.355       10.950      865.845
05/02/2014  04:55:00      -60.567      -50.636        6.835       42.780       22.514       20.443     1830.110      506.886      417.913        0.452        0.138       78.946       11.859        0.023      338.420       11.061      865.848
05/02/2014  04:56:00      -31.948      -61.759        0.452       38.538       38.768       24.452     1485.194     1502.939      597.898        0.421        0.179       69.533       17.817        0.066      338.410       11.042      865.838
05/02/2014  04:57:00      -86.105     -106.726        3.119       49.872       46.328       26.309     2487.208     2146.277      692.176        1.207        0.266      137.129       30.733        0.050      338.345       10.933      865.829
05/02/2014  04:58:00      -68.253     -127.947       -0.949       53.190       57.775       33.110     2829.192     3337.903     1096.292        1.415        0.363      145.013       29.183        0.040      338.334       10.914      865.828
05/02/2014  04:59:00      -89.329      -82.813       -2.817       78.774       62.725       35.430     6205.305     3934.392     1255.305        1.312        0.570      121.810       43.552        0.128      338.323       10.896      865.822
05/02/2014  05:00:00     -121.449      -82.420       -9.743       44.012       47.439       21.859     1937.055     2250.456      477.825        1.315        0.233      146.775       21.446        0.021      338.296       10.851      865.817
05/02/2014  05:01:00     -118.513      -70.247      -11.199       35.798       34.092       21.663     1281.531     1162.274      469.269        1.101        0.146      137.768       21.183        0.024      338.300       10.857      865.827
05/02/2014  05:02:00      -94.456      -88.459        1.816       46.213       38.676       21.924     2135.623     1495.833      480.668        1.043        0.206      129.409       24.775        0.037      338.291       10.843      865.829
05/02/2014  05:03:00      -88.098      -85.043       -0.537       40.549       42.921       24.901     1644.238     1842.252      620.068        0.955        0.205      122.448       26.066        0.045      338.272       10.810      865.823
05/02/2014  05:04:00      -96.609      -78.278        4.395       48.057       44.203       30.421     2309.441     1953.948      925.451        1.033        0.259      124.341       27.229        0.048      338.225       10.732      865.826
05/02/2014  05:05:00     -121.312      -59.519        3.822       35.328       28.562       21.037     1248.093      815.761      442.561        1.039        0.125      135.127       19.890        0.022      338.241       10.759      865.810
05/02/2014  05:06:00      -79.809      -65.347        4.647       44.852       36.230       21.615     2011.710     1312.632      467.195        0.723        0.190      103.149       19.241        0.035      338.374       10.982      865.802
05/02/2014  05:07:00      -72.579      -61.184        3.004       41.383       25.692       23.264     1712.565      660.087      541.227        0.597        0.146       94.927       20.292        0.046      338.285       10.834      865.817
05/02/2014  05:08:00     -104.661      -49.805       -1.446       37.525       35.655       23.089     1408.092     1271.273      533.122        0.832        0.161      115.907       20.714        0.032      338.222       10.728      865.815
05/02/2014  05:09:00     -137.059       -9.859       -8.490       32.545       24.834       19.192     1059.162      616.742      368.314        1.050        0.102      137.414       18.120        0.017      338.034       10.412      865.815
05/02/2014  05:10:00     -123.461      -14.438       -9.109       67.664       30.031       28.210     4578.434      901.885      795.822        1.090        0.314      124.302       34.858        0.079      337.761        9.953      865.832
05/02/2014  05:11:00     -138.433       -6.610      -13.229       60.353       35.574       24.198     3642.472     1265.539      585.539        1.244        0.275      138.591       29.141        0.044      337.724        9.890      865.833
05/02/2014  05:12:00     -109.838       -5.739      -11.152       43.950       38.039       25.716     1931.574     1446.931      661.307        0.813        0.202      109.988       23.245        0.045      337.620        9.717      865.840
05/02/2014  05:13:00     -134.847      -68.994       -1.156       46.548       36.284       20.715     2166.691     1316.530      429.130        1.343        0.196      151.473       22.591        0.022      337.709        9.868      865.844
05/02/2014  05:14:00     -137.902      -15.869       -9.088       48.770       35.080       24.166     2378.466     1230.580      584.004        1.177        0.210      138.812       26.748        0.037      337.642        9.755      865.845
05/02/2014  05:15:00     -129.599      -24.114      -14.780       35.171       34.009       23.893     1236.990     1156.602      570.878        1.028        0.148      131.823       19.949        0.023      337.577        9.646      865.849
05/02/2014  05:16:00     -127.202      -15.977       -4.056       36.546       31.128       21.288     1335.631      968.932      453.173        0.960        0.138      128.201       15.737        0.015      337.579        9.648      865.835
05/02/2014  05:17:00     -149.325      -80.116       -8.378       35.832       27.635       21.008     1283.947      763.710      441.319        1.564        0.124      169.459       14.925        0.008      337.664        9.791      865.822
05/02/2014  05:18:00     -163.321       14.149      -17.228       21.835       19.170       19.474      476.766      367.505      379.237        1.420        0.061      163.933       11.532        0.005      337.799       10.017      865.813
05/02/2014  05:19:00     -101.151      -25.029       -4.916       45.134       33.789       21.989     2037.065     1141.719      483.504        0.727        0.183      104.202       23.861        0.052      337.724        9.891      865.796
05/02/2014  05:20:00     -143.873      -34.702       -2.044       50.959       32.852       20.477     2596.792     1079.247      419.307        1.300        0.205      147.999       22.069        0.022      337.672        9.804      865.808
05/02/2014  05:21:00       -2.766      -29.665       11.737       27.983       20.513       16.253      783.021      420.787      264.164        0.125        0.073       29.793       12.185        0.167      337.709        9.867      865.824
05/02/2014  05:22:00      -23.733      -38.857       -0.893       38.569       17.805       15.170     1487.600      317.013      230.139        0.205        0.102       45.531       17.542        0.148      337.879       10.152      865.831
05/02/2014  05:23:00      -82.589      -65.407       -1.907       34.777       26.278       18.606     1209.408      690.555      346.173        0.667        0.112      105.352       15.367        0.021      337.933       10.243      865.840
05/02/2014  05:24:00      -31.921      -54.839        5.181       68.790       19.310       16.031     4732.008      372.879      256.978        0.471        0.268       63.453       13.217        0.043      337.983       10.325      865.858
05/02/2014  05:25:00      -11.004      -70.096      -11.008       19.556       15.976        8.488      382.434      255.247       72.042        0.293        0.035       70.954        6.975        0.010      338.136       10.583      865.856
05/02/2014  05:26:00      -36.746      -66.889       -8.046       26.835       33.334       17.014      720.091     1111.160      289.468        0.400        0.106       76.318       11.529        0.023      338.260       10.790      865.853
05/02/2014  05:27:00     -100.964      -86.709       -3.906       47.378       51.242       21.236     2244.664     2625.731      450.967        1.152        0.266      133.087       20.010        0.023      338.268       10.804      865.849
05/02/2014  05:28:00      -81.615      -89.650        4.063       46.950       43.989       26.516     2204.292     1935.052      703.090        0.978        0.242      121.236       23.802        0.039      338.281       10.825      865.836
05/02/2014  05:29:00      -13.348      -62.789       17.331       50.613       28.985       32.168     2561.663      840.118     1034.783        0.443        0.222       64.192       20.296        0.100      338.338       10.921      865.825
05/02/2014  05:30:00      -56.407      -68.726       -3.339       30.436       35.770       21.649      926.346     1279.494      468.672        0.529        0.134       88.910       15.040        0.029      338.279       10.824      865.832
05/02/2014  05:31:00      -65.641      -55.429       -0.516       42.316       58.386       18.749     1790.646     3408.943      351.512        0.647        0.278       85.913       18.186        0.045      338.202       10.693      865.829
05/02/2014  05:32:00      -81.580      -72.131       -4.615       48.432       48.943       30.556     2345.670     2395.411      933.699        0.878        0.284      108.895       23.214        0.045      338.157       10.616      865.822
05/02/2014  05:33:00     -133.509      -59.589        6.730       44.755       47.854       24.345     2003.029     2289.989      592.677        1.315        0.244      146.203       21.194        0.021      338.029       10.403      865.827
05/02/2014  05:34:00     -102.742      -59.088       -5.741       49.301       40.245       19.881     2430.569     1619.694      395.265        0.926        0.222      118.521       23.308        0.039      338.017       10.383      865.831
05/02/2014  05:35:00      -82.508      -29.795       -0.077       43.800       26.544       19.924     1918.423      704.582      396.968        0.536        0.151       87.723       21.985        0.063      337.971       10.307      865.825
05/02/2014  05:36:00      -80.155       -3.730       -4.972       37.961       30.154       16.823     1441.065      909.251      283.014        0.455        0.132       80.241       13.677        0.029      337.808       10.030      865.809
05/02/2014  05:37:00      -90.088      -19.054       -2.154       43.689       23.750       18.340     1908.771      564.065      336.367        0.565        0.140       92.081       21.547        0.055      337.803       10.025      865.828
05/02/2014  05:38:00      -65.178       -1.322        2.986       31.850       31.076       16.951     1014.440      965.715      287.352        0.326        0.113       65.191       11.168        0.029      337.649        9.765      865.835
05/02/2014  05:39:00      -91.826      -44.468       -2.992       33.571       27.899       18.537     1126.993      778.346      343.626        0.633        0.112      102.026       18.166        0.032      337.654        9.775      865.847
05/02/2014  05:40:00     -104.846      -23.851       -3.590       39.264       24.240       21.018     1541.684      587.595      441.776        0.707        0.129      107.524       19.358        0.032      337.627        9.728      865.850
05/02/2014  05:41:00     -122.842      -37.947       -5.270       43.769       41.902       20.810     1915.708     1755.792      433.046        1.033        0.205      128.570       24.180        0.035      337.705        9.860      865.857
05/02/2014  05:42:00     -106.942      -44.852       -2.948       32.439       35.003       18.635     1052.292     1225.204      347.249        0.804        0.131      115.967       15.813        0.019      337.759        9.951      865.850
05/02/2014  05:43:00      -72.389      -46.300        3.410       67.082       39.382       24.161     4500.051     1550.946      583.730        0.701        0.332       85.929       31.669        0.136      337.793       10.006      865.839
05/02/2014  05:44:00     -103.901      -57.348       -2.563       34.598       44.035       22.495     1197.000     1939.052      506.038        0.887        0.182      118.678       12.615        0.011      337.788       10.001      865.840
05/02/2014  05:45:00      -55.695      -75.949        5.068       52.100       33.967       28.266     2714.402     1153.789      798.958        0.678        0.233       94.182       23.724        0.063      337.855       10.111      865.849
05/02/2014  05:46:00      -71.192      -61.705        8.536       45.852       31.580       25.434     2102.403      997.304      646.900        0.635        0.187       94.212       27.219        0.083      337.835       10.077      865.859
05/02/2014  05:47:00      -77.731      -52.536        4.538       56.776       34.963       23.528     3223.543     1222.421      553.583        0.691        0.250       93.819       27.873        0.088      337.799       10.016      865.867
05/02/2014  05:48:00     -129.191      -62.270       -0.258       38.316       34.221       24.030     1468.146     1171.047      577.453        1.189        0.161      143.415       21.957        0.023      337.730        9.901      865.873
05/02/2014  05:49:00     -119.041      -68.447        2.704       43.111       37.898       25.751     1858.563     1436.268      663.117        1.141        0.198      137.316       20.466        0.022      337.727        9.897      865.873
05/02/2014  05:50:00     -137.864      -61.441       -0.236       48.226       37.676       25.986     2325.739     1419.470      675.263        1.360        0.221      150.936       24.962        0.027      337.731        9.905      865.888
05/02/2014  05:51:00      -61.296      -46.630       11.601       51.591       31.426       24.089     2661.612      987.600      580.265        0.515        0.211       77.017       27.286        0.126      337.801       10.020      865.892
05/02/2014  05:52:00     -152.342     -115.557        1.350       59.324       57.970       38.368     3519.350     3360.490     1472.140        2.246        0.418      191.211       35.360        0.034      337.862       10.123      865.891
05/02/2014  05:53:00     -184.713     -122.397        2.968       61.037       41.271       34.711     3725.550     1703.335     1204.822        2.787        0.332      221.585       27.614        0.016      337.903       10.189      865.885
05/02/2014  05:54:00     -159.966     -142.784       -5.887       60.089       48.245       31.305     3610.737     2327.612      979.993        2.646        0.346      214.421       30.887        0.021      337.936       10.244      865.880
05/02/2014  05:55:00     -140.628      -88.083       10.328       62.692       49.910       28.795     3930.334     2491.056      829.139        1.744        0.363      165.936       24.897        0.023      337.890       10.169      865.870
05/02/2014  05:56:00     -116.318     -106.295        5.218       60.660       46.678       26.583     3679.601     2178.809      706.639        1.571        0.328      157.570       27.093        0.030      337.931       10.236      865.861
05/02/2014  05:57:00      -86.381      -83.529       -2.343       34.882       51.517       23.930     1216.766     2654.019      572.634        0.944        0.222      120.161       16.771        0.019      337.928       10.233      865.850
05/02/2014  05:58:00      -77.552     -113.503       -8.551       49.129       46.814       27.451     2413.663     2191.592      753.579        1.216        0.268      137.467       24.415        0.032      337.915       10.210      865.830
05/02/2014  05:59:00     -113.802      -92.377        2.789       62.355       61.044       35.654     3888.085     3726.417     1271.227        1.519        0.444      146.576       34.923        0.057      337.878       10.147      865.827
05/02/2014  06:00:00      -98.116      -83.134        1.985       44.276       49.089       27.046     1960.359     2409.690      731.469        1.082        0.255      128.600       22.266        0.030      337.864       10.127      865.826
05/02/2014  06:01:00     -104.019      -74.468        8.127       71.507       54.276       32.660     5113.219     2945.861     1066.677        1.278        0.456      127.927       36.568        0.082      337.818       10.048      865.820
05/02/2014  06:02:00     -130.887      -67.817        3.342       61.633       45.804       28.383     3798.593     2097.967      805.596        1.422        0.335      147.413       21.027        0.020      337.809       10.034      865.814
05/02/2014  06:03:00      -59.235      -45.636        7.187       45.366       34.434       26.995     2058.106     1185.717      728.756        0.481        0.199       74.776       26.045        0.121      337.802       10.021      865.822
05/02/2014  06:04:00      -81.104      -43.191       -0.318       47.288       35.926       19.935     2236.140     1290.707      397.399        0.618        0.196       91.887       16.444        0.032      337.773        9.974      865.830
05/02/2014  06:05:00      -79.560      -31.000       -4.416       37.323       36.183       23.566     1392.996     1309.213      555.356        0.528        0.163       85.386       17.882        0.044      337.654        9.773      865.827
05/02/2014  06:06:00      -89.635      -66.241       -2.148       60.232       55.583       20.172     3627.890     3089.478      406.907        0.977        0.356      111.456       29.500        0.070      337.650        9.765      865.830
05/02/2014  06:07:00      -79.181      -42.338        4.816       51.012       42.129       22.197     2602.216     1774.832      492.686        0.648        0.243       89.789       22.778        0.064      337.710        9.867      865.829
05/02/2014  06:08:00      -70.689      -53.973       -0.359       60.516       55.308       31.568     3662.160     3058.936      996.547        0.781        0.386       88.938       27.618        0.096      337.754        9.942      865.820
05/02/2014  06:09:00     -193.626     -100.747      -10.107       78.084       51.547       36.289     6097.044     2657.083     1316.908        2.891        0.504      218.268       42.166        0.037      337.815       10.040      865.804
05/02/2014  06:10:00     -111.179      -61.393        8.615       49.913       38.677       27.175     2491.282     1495.887      738.501        1.046        0.236      127.004       25.320        0.040      337.735        9.911      865.801
05/02/2014  06:11:00      -98.930      -48.471       -2.931       55.110       31.235       21.665     3037.108      975.625      469.371        0.831        0.224      110.166       26.824        0.059      337.729        9.901      865.798
05/02/2014  06:12:00      -89.417      -39.520        1.731       31.818       40.212       19.883     1012.405     1616.984      395.351        0.629        0.151       97.762       21.119        0.047      337.701        9.852      865.800
05/02/2014  06:13:00     -108.931      -37.755       -5.375       47.475       37.772       24.914     2253.872     1426.758      620.724        0.881        0.215      115.288       24.680        0.046      337.731        9.902      865.802
05/02/2014  06:14:00     -127.819      -25.772        9.561       52.055       39.652       28.115     2709.749     1572.310      790.454        1.108        0.254      130.392       27.494        0.044      337.606        9.694      865.814
05/02/2014  06:15:00     -164.585      -70.697        1.754       62.440       50.398       34.435     3898.741     2539.958     1185.792        1.986        0.381      179.126       35.834        0.040      337.679        9.814      865.815
05/02/2014  06:16:00     -134.310      -51.281        3.392       59.265       50.028       27.898     3512.285     2502.757      778.304        1.374        0.340      143.767       29.409        0.042      337.640        9.750      865.825
05/02/2014  06:17:00     -128.344      -67.344        0.423       48.451       43.879       24.994     2347.494     1925.403      624.686        1.295        0.245      144.939       26.261        0.033      337.659        9.784      865.841
05/02/2014  06:18:00     -137.252      -86.757       -9.886       49.782       37.804       29.508     2478.272     1429.163      870.700        1.562        0.239      162.372       27.154        0.028      337.689        9.833      865.846
05/02/2014  06:19:00     -127.638      -83.811       -1.584       40.371       40.901       29.143     1629.852     1672.871      849.327        1.373        0.208      152.694       23.633        0.024      337.679        9.816      865.848
05/02/2014  06:20:00     -117.507      -31.431        4.190       48.421       48.041       35.341     2344.620     2307.926     1248.996        1.036        0.295      121.638       28.192        0.054      337.595        9.676      865.854
05/02/2014  06:21:00     -149.799      -59.477        3.766       70.825       52.223       31.621     5016.114     2727.292      999.860        1.737        0.437      161.175       33.514        0.043      337.628        9.729      865.864
05/02/2014  06:22:00     -169.495      -41.676        2.825       42.572       50.117       30.458     1812.417     2511.675      927.681        1.786        0.263      174.544       24.907        0.020      337.596        9.677      865.879
05/02/2014  06:23:00     -127.608      -49.361        1.123       52.015       47.465       27.797     2705.523     2252.947      772.693        1.223        0.287      136.823       30.442        0.050      337.550        9.600      865.888
05/02/2014  06:24:00      -51.486      -29.649        7.571       55.006       35.128       23.482     3025.654     1233.957      551.386        0.420        0.241       59.413       25.072        0.178      337.597        9.678      865.887
05/02/2014  06:25:00      -81.871      -42.089        4.912       25.350       21.669       13.792      642.631      469.541      190.207        0.490        0.065       92.057        7.766        0.007      337.605        9.691      865.883
05/02/2014  06:26:00      -43.483       -5.569       -2.896       21.524       13.585       12.414      463.263      184.549      154.119        0.137        0.040       43.838       12.452        0.081      337.667        9.797      865.888
05/02/2014  06:27:00      -11.636       26.694       -0.852       18.560       16.980        8.497      344.483      288.307       72.204        0.078        0.035       29.120        4.155        0.020      337.563        9.622      865.893
05/02/2014  06:28:00      -55.723       15.298        2.141       46.320       16.613       20.568     2145.558      276.007      423.047        0.309        0.142       57.784       25.055        0.188      337.661        9.786      865.887
05/02/2014  06:29:00      -14.996       23.733        9.051       54.202       24.472       24.362     2937.808      598.889      593.499        0.250        0.207       28.074       12.813        0.208      337.677        9.812      865.892
05/02/2014  06:30:00       53.333       47.457        3.354       26.922       17.661       21.120      724.774      311.917      446.061        0.329        0.074       71.390       11.458        0.026      337.539        9.582      865.895
05/02/2014  06:31:00       33.992       33.072       -2.990       16.772       14.586       13.421      281.309      212.761      180.121        0.147        0.034       47.426       10.991        0.054      337.547        9.594      865.902
05/02/2014  06:32:00       10.687        9.961        1.205        9.832        7.855        9.595       96.667       61.705       92.072        0.023        0.013       14.609        7.693        0.277      337.716        9.878      865.908
05/02/2014  06:33:00        5.299      -15.831       10.500       18.682       15.138       10.996      349.006      229.164      120.908        0.054        0.035       16.694        4.152        0.062      337.837       10.081      865.901
05/02/2014  06:34:00      -31.512        1.406       -2.093        7.391        6.469        4.878       54.621       41.853       23.795        0.056        0.006       31.543        2.062        0.004      337.578        9.650      865.902
05/02/2014  06:35:00      -41.354      -15.191       -0.921       11.953        9.900        4.783      142.880       98.001       22.875        0.110        0.013       44.055        2.481        0.003      337.604        9.690      865.903
05/02/2014  06:36:00      -12.725      -18.635        2.353       10.557        7.302        7.979      111.440       53.320       63.667        0.037        0.011       22.565        5.622        0.062      337.793       10.008      865.893
05/02/2014  06:37:00       -4.126       13.187       20.427        8.349       11.927        9.395       69.702      142.254       88.260        0.045        0.015       13.817        4.811        0.121      337.986       10.331      865.899
05/02/2014  06:38:00       16.253       23.632       24.481       13.516        9.749        8.048      182.692       95.051       64.763        0.088        0.017       28.682        4.596        0.026      337.892       10.174      865.912
05/02/2014  06:39:00       19.374       20.494       11.239       15.513       13.819       12.129      240.663      190.958      147.116        0.075        0.029       28.202        7.014        0.062      337.943       10.258      865.933
05/02/2014  06:40:00      -17.272       15.396        4.302       13.297       12.229        8.577      176.798      149.551       73.565        0.048        0.020       23.138        5.779        0.062      337.880       10.154      865.944
05/02/2014  06:41:00      -16.100       26.743        2.611       12.479        9.958        7.697      155.719       99.157       59.238        0.065        0.016       31.216        5.101        0.027      337.865       10.128      865.959
05/02/2014  06:42:00      -12.499       10.705       -1.896        8.826        6.415        3.943       77.895       41.158       15.549        0.020        0.007       16.457        4.043        0.060      337.881       10.154      865.978
05/02/2014  06:43:00      -29.119       -0.871        4.703        8.081        5.571        6.216       65.301       31.041       38.642        0.050        0.007       29.132        4.027        0.019      337.772        9.972      865.983
05/02/2014  06:44:00      -40.893       -4.485       -3.904        6.939        5.888        6.113       48.157       34.673       37.363        0.091        0.006       41.139        3.054        0.006      337.667        9.798      866.005
05/02/2014  06:45:00      -44.929      -19.434       -4.751       11.979        8.981        7.172      143.496       80.663       51.432        0.135        0.014       48.953        5.717        0.014      337.740        9.917      866.016
05/02/2014  06:46:00      -47.467      -20.063       -1.989       14.516        7.272        8.555      210.719       52.886       73.180        0.150        0.017       51.533        9.020        0.031      337.714        9.874      866.017
05/02/2014  06:47:00      -60.008      -10.178        2.200       23.009        9.931       12.047      529.401       98.616      145.136        0.224        0.039       60.865       12.575        0.043      337.760        9.953      866.028
05/02/2014  06:48:00      -54.530      -34.731        1.770       29.782       18.721       12.493      886.983      350.468      156.063        0.279        0.070       64.651       13.772        0.045      337.822       10.055      866.033
05/02/2014  06:49:00      -88.069      -62.418       -5.102       15.290       23.767       11.756      233.783      564.862      138.211        0.631        0.047      107.945       10.013        0.009      337.959       10.286      866.034
05/02/2014  06:50:00      -77.959      -35.725       -1.240       19.565       17.974       14.005      382.776      323.050      196.138        0.413        0.045       85.755       11.248        0.017      338.014       10.378      866.035
05/02/2014  06:51:00      -99.221      -21.614        1.509       29.208       24.417       16.270      853.126      596.174      264.709        0.601        0.086      101.548       14.325        0.020      337.912       10.207      866.042
05/02/2014  06:52:00     -100.312      -18.421       -2.580       34.862       23.320       21.075     1215.364      543.812      444.160        0.631        0.110      101.990       20.250        0.039      337.883       10.158      866.051
05/02/2014  06:53:00      -93.390      -35.901       10.405       40.962       34.176       23.270     1677.913     1167.999      541.492        0.675        0.169      100.053       20.404        0.042      337.951       10.271      866.055
05/02/2014  06:54:00      -33.305      -30.561       15.371       49.045       32.382       24.429     2405.459     1048.616      596.793        0.316        0.203       45.202       27.202        0.362      338.128       10.569      866.056
05/02/2014  06:55:00      -66.779      -68.244       -7.646       28.454       35.967       15.124      809.633     1293.602      228.722        0.575        0.117       95.481       11.110        0.014      338.084       10.495      866.055
05/02/2014  06:56:00      -54.855      -53.797        1.846       22.182       43.414       14.250      492.020     1884.770      203.058        0.424        0.129       76.832       17.026        0.049      338.106       10.531      866.060
05/02/2014  06:57:00      -38.606      -40.117        3.036       27.398       26.230       16.445      750.669      688.011      270.435        0.241        0.085       55.676       17.411        0.098      338.184       10.663      866.056
05/02/2014  06:58:00      -68.658      -45.268       -2.282       32.077       28.439       12.713     1028.966      808.753      161.632        0.438        0.100       82.238       10.003        0.015      338.166       10.633      866.065
05/02/2014  06:59:00      -31.176      -33.384        7.875       27.795       21.128       18.552      772.581      446.412      344.179        0.186        0.078       45.678       16.820        0.136      338.313       10.880      866.058
05/02/2014  07:00:00      -56.286      -24.888       -3.579       20.024       15.376       18.967      400.958      236.413      359.743        0.240        0.050       61.543       11.745        0.036      338.245       10.765      866.059
05/02/2014  07:01:00      -84.990      -38.205       -1.739       21.403       10.896       10.968      458.076      118.722      120.287        0.469        0.035       93.183       10.571        0.013      338.212       10.709      866.058
05/02/2014  07:02:00      -25.159      -15.665        8.891       22.044       16.786       16.248      485.951      281.781      263.987        0.099        0.052       29.637       17.027        0.330      338.362       10.963      866.042
05/02/2014  07:03:00      -74.431      -12.645       -7.067       14.120       18.513       13.103      199.375      342.733      171.676        0.323        0.036       75.497        9.537        0.016      338.239       10.757      866.046
05/02/2014  07:04:00      -78.704      -32.715       -3.984       17.429       16.724       10.013      303.756      279.683      100.270        0.398        0.034       85.233        5.284        0.004      338.251       10.775      866.047
05/02/2014  07:05:00      -79.546      -13.168       -0.933       13.318       11.546        9.175      177.370      133.304       84.174        0.345        0.020       80.628        8.778        0.012      338.332       10.911      866.044
05/02/2014  07:06:00      -57.160      -33.072       -3.163       22.022       13.058       12.242      484.984      170.507      149.873        0.259        0.040       66.038        7.442        0.013      338.359       10.957      866.040
05/02/2014  07:07:00      -40.169      -12.908        3.025       19.739       13.991        9.941      389.609      195.737       98.820        0.124        0.034       42.192       10.532        0.062      338.404       11.032      866.038
05/02/2014  07:08:00      -55.405      -28.490        0.048       11.920       12.173        8.569      142.083      148.181       73.428        0.212        0.018       62.301        5.699        0.008      338.385       11.000      866.033
05/02/2014  07:09:00      -44.107      -22.021        6.730       18.489       11.460       11.576      341.837      131.333      133.996        0.154        0.030       49.299        8.433        0.029      338.483       11.165      866.028
05/02/2014  07:10:00      -11.507      -57.372        1.727       15.188       31.921       12.858      230.679     1018.935      165.322        0.242        0.071       58.515       11.422        0.038      338.556       11.289      866.025
05/02/2014  07:11:00      -21.756      -65.646       -0.618       13.477        9.840        9.704      181.628       96.821       94.162        0.258        0.019       69.157        4.929        0.005      338.468       11.137      866.025
05/02/2014  07:12:00      -19.747      -38.317        8.222       24.881       23.744       14.524      619.044      563.784      210.945        0.166        0.070       43.106       15.131        0.123      338.647       11.440      866.026
05/02/2014  07:13:00      -32.143      -45.632       -7.645       22.230       16.200       15.985      494.189      262.448      255.511        0.209        0.051       55.816       11.178        0.040      338.563       11.299      866.013
05/02/2014  07:14:00      -12.959       -1.954       19.391       14.685       12.935       13.073      215.639      167.327      170.906        0.055        0.028       13.105       11.503        0.770      339.155       12.295      866.006
05/02/2014  07:15:00      -30.163      -14.338        1.753       11.725        7.107        6.564      137.484       50.508       43.085        0.067        0.012       33.397        2.447        0.005      338.672       11.482      866.003
05/02/2014  07:16:00      -12.174       -6.538        5.920        8.708       11.830       13.008       75.831      139.944      169.199        0.031        0.019       13.819        8.602        0.388      338.971       11.985      866.003
05/02/2014  07:17:00       -8.649       -3.087       22.707       13.181       13.083       11.570      173.726      171.163      133.862        0.054        0.024        9.183        7.815        0.724      339.424       12.748      865.997
05/02/2014  07:18:00       -8.714      -15.603       18.771       12.004       19.352       14.323      144.093      374.494      205.149        0.070        0.036       17.871       14.530        0.661      339.326       12.583      865.992
05/02/2014  07:19:00      -12.431        6.110       27.355       15.626       16.635       11.557      244.160      276.730      133.574        0.080        0.033       13.851        5.991        0.187      339.482       12.845      865.988
05/02/2014  07:20:00      -11.299       -1.760       26.308       13.874       12.645       10.216      192.474      159.886      104.358        0.064        0.023       11.436        5.415        0.224      339.574       13.001      865.983
05/02/2014  07:21:00       -5.263       -8.430       31.140        9.481       21.042       12.073       89.884      442.757      145.762        0.087        0.034        9.938        9.500        0.914      339.647       13.124      865.983
05/02/2014  07:22:00       -6.905       18.266       36.852       10.314       22.334       11.871      106.384      498.820      140.929        0.124        0.037       19.528        8.872        0.206      339.524       12.917      865.977
05/02/2014  07:23:00      -10.018       -9.598       25.508       12.415       17.529       10.229      154.125      307.258      104.625        0.070        0.028       13.874        6.595        0.226      339.472       12.828      865.968
05/02/2014  07:24:00      -18.408       -8.802        3.167       15.445       10.142       15.666      238.545      102.868      245.415        0.051        0.029       20.404       14.258        0.488      339.174       12.326      865.969
05/02/2014  07:25:00       -8.572        1.330       14.050       13.486        9.236       10.617      181.860       85.296      112.725        0.033        0.019        8.675        9.860        1.292      339.511       12.895      865.972
05/02/2014  07:26:00      -21.712       -7.801        8.211       19.979       13.141       13.702      399.158      172.682      187.752        0.068        0.038       23.071        8.145        0.125      339.228       12.419      865.976
05/02/2014  07:27:00      -25.019       -1.626        2.422       11.706       10.161       11.069      137.036      103.251      122.532        0.050        0.018       25.072        7.943        0.100      339.119       12.234      865.985
05/02/2014  07:28:00      -18.454       -2.232       18.369       16.087       18.212       16.713      258.785      331.688      279.324        0.078        0.043       18.589       12.565        0.457      339.683       13.185      866.002
05/02/2014  07:29:00      -37.341      -23.568        2.358       13.237       16.207       11.946      175.226      262.668      142.709        0.127        0.029       44.157        6.341        0.021      339.092       12.188      866.014
05/02/2014  07:30:00      -55.434      -23.815        0.722       11.817        8.582        8.307      139.646       73.648       69.011        0.196        0.014       60.333        4.197        0.005      338.961       11.968      866.015
05/02/2014  07:31:00      -27.441      -28.695       -1.536       15.702       20.968        7.591      246.550      439.651       57.618        0.116        0.037       39.704        6.955        0.031      339.036       12.094      866.020
05/02/2014  07:32:00      -16.882       -8.319      -10.971       13.944       24.369       13.139      194.449      593.832      172.643        0.072        0.048       18.820       14.825        0.621      339.386       12.685      866.025
05/02/2014  07:33:00       -2.653       -0.446       27.283        9.100       10.477       16.689       82.806      109.775      278.539        0.061        0.024        2.690        9.830       13.350      340.246       14.135      866.025
05/02/2014  07:34:00       -8.081       14.418       37.404        8.246       16.407       11.306       67.989      269.188      127.832        0.107        0.023       16.528        5.745        0.121      340.094       13.879      866.029
05/02/2014  07:35:00       -0.585        2.333       25.454        9.346        9.481       10.467       87.348       89.882      109.553        0.047        0.014        2.405        5.904        6.027      340.203       14.060      866.030
05/02/2014  07:36:00       14.382        6.092       11.068       13.816        9.962       15.567      190.884       99.235      242.326        0.045        0.027       15.619       10.586        0.459      339.552       12.965      866.033
05/02/2014  07:37:00       -9.171       20.072       16.659       15.122       21.712       16.288      228.667      471.418      265.304        0.086        0.048       22.068       11.019        0.249      339.711       13.232      866.031
05/02/2014  07:38:00      -36.359       15.691       15.719       14.889       10.012       15.781      221.689      100.232      249.036        0.119        0.029       39.600        9.125        0.053      339.361       12.642      866.033
05/02/2014  07:39:00       -4.724       17.560       30.446       15.832       19.187       19.219      250.657      368.142      369.365        0.112        0.049       18.184       12.297        0.457      340.068       13.836      866.028
05/02/2014  07:40:00      -11.811       -1.380       25.636       15.423       16.399       15.777      237.882      268.918      248.924        0.078        0.038       11.892       12.438        1.094      340.262       14.162      866.019
05/02/2014  07:41:00      -16.549        1.371       13.316       12.208       11.502       13.289      149.025      132.301      176.589        0.046        0.023       16.605        7.641        0.212      339.962       13.655      866.013
05/02/2014  07:42:00       -7.741       -4.809       30.886       13.645       14.608       15.982      186.173      213.401      255.418        0.085        0.033        9.113       11.406        1.567      340.451       14.483      866.000
05/02/2014  07:43:00      -17.658       17.933       37.217       15.336       15.142       16.087      235.178      229.279      258.795        0.137        0.036       25.167        8.599        0.117      340.161       13.992      865.987
05/02/2014  07:44:00      -15.449        6.622        8.002       35.764       21.468       19.333     1279.070      460.880      373.765        0.123        0.106       16.808       20.003        1.416      339.671       13.165      865.973
05/02/2014  07:45:00       -7.684        5.656       21.731       13.844       11.932        9.089      191.668      142.383       82.616        0.049        0.021        9.541        7.843        0.676      340.072       13.840      865.973
05/02/2014  07:46:00        3.005       14.382       25.830       16.878       23.102       16.860      284.866      533.682      284.261        0.099        0.055       14.692       11.004        0.561      340.034       13.777      865.976
05/02/2014  07:47:00        7.272       21.728       35.680       16.924       22.625       12.187      286.405      511.875      148.521        0.137        0.047       22.913        8.979        0.154      339.982       13.688      865.975
05/02/2014  07:48:00       29.299       33.010       40.886       20.775       15.414       17.922      431.600      237.587      321.181        0.230        0.050       44.137        7.000        0.025      339.681       13.182      865.976
05/02/2014  07:49:00        5.626       14.206       37.032       16.190       14.593       10.586      262.106      212.960      112.072        0.110        0.029       15.279        9.175        0.361      340.243       14.130      865.981
05/02/2014  07:50:00       25.778       23.869       32.819       29.138       20.708       20.309      849.020      428.840      412.469        0.200        0.085       35.132       17.324        0.243      339.728       13.262      865.975
05/02/2014  07:51:00       53.436       15.718        8.040       22.368       18.149       25.360      500.310      329.394      643.152        0.232        0.074       55.700        9.035        0.026      339.437       12.770      865.967
05/02/2014  07:52:00       23.537        8.661       28.750       32.357       26.788       23.940     1046.953      717.622      573.107        0.190        0.117       25.080       19.162        0.584      339.877       13.512      865.960
05/02/2014  07:53:00       -4.456       -0.385       28.807       21.280       25.774       20.557      452.825      664.315      422.577        0.119        0.077        4.472       17.394       15.126      340.473       14.519      865.953
05/02/2014  07:54:00        1.434      -14.748       25.474       17.958       33.355       16.761      322.488     1112.528      280.945        0.129        0.086       14.818       12.443        0.705      340.150       13.973      865.951
05/02/2014  07:55:00      -17.427        4.370       22.297       13.405       18.363       18.533      179.682      337.190      343.460        0.084        0.043       17.966       11.227        0.391      340.175       14.016      865.952
05/02/2014  07:56:00       -1.039        3.726       27.551       21.771       22.938       24.262      473.960      526.165      588.645        0.118        0.079        3.868       17.094       19.529      340.298       14.222      865.950
05/02/2014  07:57:00       23.620       16.169       21.687       29.728       21.677       20.518      883.781      469.878      420.971        0.153        0.089       28.624       20.093        0.493      339.938       13.615      865.942
05/02/2014  07:58:00        2.804       20.636       33.583       17.271       26.498       16.577      298.281      702.123      274.808        0.142        0.064       20.825       13.169        0.400      340.125       13.930      865.944
05/02/2014  07:59:00       28.689       -6.424       20.861       17.609       32.957       18.336      310.071     1086.190      336.198        0.152        0.087       29.399       21.106        0.515      339.768       13.328      865.945
05/02/2014  08:00:00       13.255       20.563       20.775       31.880       14.015       20.073     1016.334      196.432      402.909        0.132        0.081       24.465       18.125        0.549      340.263       14.165      865.942
05/02/2014  08:01:00        6.355        5.611       11.295       16.740       23.153       17.385      280.243      536.084      302.232        0.066        0.056        8.478       15.690        3.425      340.547       14.643      865.935
05/02/2014  08:02:00       14.337      -35.995        5.168       26.655       22.028       23.958      710.511      485.216      573.964        0.165        0.088       38.745       16.342        0.178      339.798       13.378      865.930
05/02/2014  08:03:00       -0.217       -4.004       24.963       20.809       14.363       18.411      433.013      206.306      338.954        0.081        0.049        4.010       16.564       17.063      340.295       14.217      865.932
05/02/2014  08:04:00        5.939       -9.871       11.314       16.885       23.618       16.587      285.100      557.825      275.136        0.069        0.056       11.520       12.986        1.271      339.937       13.612      865.932
05/02/2014  08:05:00       55.048      -29.659       -3.104       25.530       17.841       22.126      651.762      318.319      489.538        0.269        0.073       62.530        6.583        0.011      339.836       13.441      865.931
05/02/2014  08:06:00        5.659       19.072       23.942       17.686       22.646       25.952      312.786      512.844      673.497        0.123        0.075       19.894       20.749        1.088      340.526       14.609      865.926
05/02/2014  08:07:00       10.685       12.325       28.448       17.279       17.882       14.904      298.577      319.771      222.142        0.096        0.042       16.312       12.195        0.559      340.880       15.207      865.920
05/02/2014  08:08:00        7.036       14.877       33.953       16.585       20.094       16.039      275.053      403.788      257.247        0.118        0.047       16.457       10.841        0.434      340.675       14.861      865.923
05/02/2014  08:09:00       25.484       26.476       23.604       25.564       27.869       19.661      653.493      776.692      386.563        0.186        0.091       36.748       12.394        0.114      340.551       14.651      865.919
05/02/2014  08:10:00       16.739       28.289       15.665       28.249       32.556       28.135      798.031     1059.871      791.597        0.199        0.132       32.870        9.676        0.087      340.684       14.874      865.913
05/02/2014  08:11:00       10.153       29.261       38.327       32.430       38.313       29.215     1051.724     1467.863      853.502        0.290        0.169       30.972       20.530        0.439      340.811       15.091      865.901
05/02/2014  08:12:00       31.566       43.364       50.327       46.917       35.570       24.286     2201.203     1265.224      589.787        0.473        0.203       53.637       21.021        0.154      340.637       14.794      865.892
05/02/2014  08:13:00       45.969       16.570       26.299       33.227       37.365       29.240     1104.027     1396.173      854.971        0.322        0.168       48.864       24.130        0.244      340.204       14.063      865.877
05/02/2014  08:14:00       37.479       -7.170       24.660       27.464       26.896       29.662      754.267      723.387      879.830        0.221        0.118       38.159       22.443        0.346      340.095       13.881      865.868
05/02/2014  08:15:00       48.380        1.469       32.686       42.641       19.977       26.373     1818.283      399.098      695.513        0.316        0.146       48.403       20.100        0.172      340.399       14.393      865.866
05/02/2014  08:16:00       38.044       22.845        2.247       22.263       23.580       24.903      495.648      556.037      620.176        0.182        0.084       44.376       14.613        0.108      340.359       14.326      865.853
05/02/2014  08:17:00       76.566       64.911       11.429       26.636       24.621       26.299      709.468      606.209      691.658        0.611        0.100      100.378       16.082        0.026      340.408       14.408      865.856
05/02/2014  08:18:00       57.733       64.172      -15.327       18.509       22.728       22.868      342.566      516.546      522.947        0.453        0.069       86.320       11.582        0.018      340.232       14.110      865.858
05/02/2014  08:19:00        0.217       11.714       26.181       14.442       18.577       15.738      208.574      345.105      247.689        0.081        0.040       11.716       11.623        0.984      341.321       15.954      865.859
05/02/2014  08:20:00       29.087       24.951       20.800       16.616       15.353       19.416      276.091      235.715      376.999        0.139        0.044       38.322        7.924        0.043      340.741       14.971      865.849
05/02/2014  08:21:00       43.281       29.772        6.594       23.071       25.630       24.501      532.286      656.895      600.301        0.230        0.089       52.532       16.213        0.095      340.640       14.799      865.833
05/02/2014  08:22:00       28.109       28.319       16.924       22.251       26.546       22.542      495.118      704.671      508.159        0.179        0.085       39.901       14.343        0.129      341.151       15.666      865.821
05/02/2014  08:23:00       19.222      -33.753       -7.676       22.552       18.833       17.323      508.587      354.667      300.091        0.137        0.058       38.843       13.140        0.114      340.162       13.994      865.816
05/02/2014  08:24:00        0.119       -3.842       11.111       37.251       28.701       28.975     1387.608      823.774      839.565        0.159        0.153        3.844       24.741       41.431      340.650       14.817      865.795
05/02/2014  08:25:00        3.304       26.370       42.291       23.781       24.304       23.332      565.515      590.671      544.400        0.210        0.085       26.577       16.611        0.391      341.314       15.942      865.787
05/02/2014  08:26:00       27.261       38.357       60.981       32.414       42.776       19.209     1050.642     1829.759      368.981        0.459        0.162       47.057       11.789        0.063      340.907       15.251      865.777
05/02/2014  08:27:00        4.652        9.269       48.412       20.869       27.067       14.501      435.506      732.635      210.266        0.191        0.069       10.371        8.926        0.741      341.492       16.243      865.767
05/02/2014  08:28:00       17.236       20.800       38.298       30.236       33.624       31.720      914.231     1130.591     1006.180        0.262        0.153       27.013       27.083        1.005      340.908       15.253      865.755
05/02/2014  08:29:00       24.267        6.083       33.750       44.537       26.479       33.008     1983.530      701.129     1089.495        0.277        0.189       25.018       22.826        0.832      341.158       15.679      865.743
05/02/2014  08:30:00       51.837        7.060       29.571       41.557       37.344       34.310     1726.945     1394.586     1177.174        0.395        0.215       52.315       33.105        0.400      340.442       14.467      865.745
05/02/2014  08:31:00       30.248       23.961       31.608       27.047       29.025       25.184      731.526      842.444      634.247        0.235        0.110       38.588       22.869        0.351      340.546       14.641      865.742
05/02/2014  08:32:00       24.633       21.027       20.838       26.632       30.439       26.358      709.288      926.549      694.726        0.191        0.117       32.387       20.355        0.395      340.688       14.882      865.744
05/02/2014  08:33:00       71.184       -5.365       16.451       37.315       33.697       35.673     1392.378     1135.509     1272.557        0.458        0.190       71.386       26.051        0.133      340.608       14.745      865.746
05/02/2014  08:34:00        7.142        7.411       29.491       27.909       21.831       17.362      778.930      476.583      301.438        0.127        0.078       10.293       11.682        1.288      341.254       15.840      865.744
05/02/2014  08:35:00       16.238       13.297       30.355       34.969       22.879       34.197     1222.852      523.430     1169.439        0.214        0.146       20.988       20.677        0.971      341.340       15.987      865.753
05/02/2014  08:36:00       18.832        2.672       32.620       27.544       25.495       22.658      758.698      650.019      513.380        0.167        0.096       19.020       14.344        0.569      341.216       15.775      865.751
05/02/2014  08:37:00       12.341       32.666       20.071       26.994       25.416       25.370      728.679      645.960      643.636        0.182        0.101       34.920        9.023        0.067      340.968       15.355      865.753
05/02/2014  08:38:00       30.374       38.448       16.523       21.015       17.371       22.588      441.614      301.738      510.209        0.196        0.063       48.998       10.326        0.044      340.642       14.804      865.763
05/02/2014  08:39:00       35.614        7.631       10.736       30.797       21.315       22.028      948.426      454.313      485.221        0.166        0.094       36.422       15.313        0.177      340.816       15.098      865.761
05/02/2014  08:40:00        7.679        3.443       12.752       37.685       30.565       27.170     1420.167      934.244      738.205        0.166        0.155        8.416       10.928        1.686      341.185       15.724      865.764
05/02/2014  08:41:00       30.920      -45.809       20.322       31.383       40.734       30.328      984.900     1659.232      919.814        0.352        0.178       55.268       18.596        0.113      340.841       15.140      865.769
05/02/2014  08:42:00       64.536      -54.652       -4.859       38.413       27.472       22.698     1475.542      754.715      515.178        0.496        0.137       84.568       15.760        0.035      340.665       14.842      865.769
05/02/2014  08:43:00       13.633      -61.918        3.285       29.107       36.979       23.441      847.208     1367.471      549.502        0.340        0.138       63.401       10.638        0.028      340.763       15.008      865.764
05/02/2014  08:44:00       36.426      -25.953        7.405       39.673       25.374       27.959     1573.935      643.856      781.695        0.253        0.150       44.726       16.679        0.139      341.007       15.421      865.764
05/02/2014  08:45:00       56.919       -0.162        7.667       28.798       30.348       28.049      829.298      920.999      786.731        0.292        0.127       56.919       11.086        0.038      340.789       15.053      865.762
05/02/2014  08:46:00       29.405       37.612        8.104       28.225       24.447       25.141      796.678      597.637      632.076        0.219        0.101       47.742       19.798        0.172      341.274       15.872      865.756
05/02/2014  08:47:00       14.509       17.295       21.039       23.701       24.728       21.476      561.719      611.478      461.202        0.129        0.082       22.575       14.904        0.436      341.507       16.268      865.739
05/02/2014  08:48:00       41.942       28.396        8.776       26.418       27.326       27.296      697.930      746.714      745.086        0.242        0.109       50.651       19.880        0.154      341.419       16.120      865.735
05/02/2014  08:49:00       30.181       25.562       22.639       34.283       27.986       23.822     1175.299      783.207      567.471        0.230        0.126       39.552       18.732        0.224      341.625       16.469      865.730
05/02/2014  08:50:00       44.008       -4.804       13.625       36.223       34.513       25.590     1312.133     1191.128      654.839        0.265        0.158       44.269       12.720        0.083      341.276       15.875      865.730
05/02/2014  08:51:00       28.767       -1.487       34.930       32.466       26.760       29.298     1054.015      716.114      858.356        0.234        0.131       28.806       19.865        0.476      341.461       16.190      865.725
05/02/2014  08:52:00       50.191        5.864       40.534       36.219       30.854       28.899     1311.787      951.969      835.141        0.365        0.155       50.532       25.408        0.253      341.014       15.433      865.720
05/02/2014  08:53:00       16.186        4.731       33.242       30.945       35.655       21.447      957.619     1271.276      459.984        0.204        0.134       16.863       20.664        1.502      341.618       16.455      865.713
05/02/2014  08:54:00       19.980       12.596       25.397       33.232       26.176       19.965     1104.369      685.166      398.589        0.170        0.109       23.619       11.317        0.230      341.999       17.103      865.701
05/02/2014  08:55:00       26.557       19.607       36.773       37.503       49.426       27.371     1406.477     2442.906      749.178        0.352        0.230       33.011       20.808        0.397      341.851       16.852      865.689
05/02/2014  08:56:00       23.280       29.391       38.840       46.863       49.697       28.640     2196.185     2469.748      820.276        0.420        0.274       37.494       25.461        0.461      341.716       16.622      865.687
05/02/2014  08:57:00       11.242      -28.224       18.236       31.925       46.632       47.809     1019.204     2174.563     2285.674        0.337        0.274       30.381       39.399        1.682      342.025       17.146      865.684
05/02/2014  08:58:00       18.727       43.032       53.755       44.025       39.194       35.652     1938.189     1536.179     1271.087        0.492        0.237       46.930       32.024        0.466      341.712       16.615      865.692
05/02/2014  08:59:00        4.692       11.613       25.743       34.537       49.355       32.341     1192.775     2435.913     1045.915        0.275        0.234       12.525       26.853        4.596      341.739       16.660      865.693
05/02/2014  09:00:00        3.873        5.062       35.307       28.235       44.837       29.352      797.195     2010.333      861.513        0.248        0.183        6.374       28.919       20.586      341.876       16.894      865.689
05/02/2014  09:01:00       35.264      -85.193        7.300       39.870       25.635       32.524     1589.646      657.128     1057.811        0.593        0.165       92.203       27.180        0.087      341.547       16.335      865.691
05/02/2014  09:02:00       25.778      -10.088       29.143       29.015       30.408       20.723      841.861      924.665      429.433        0.191        0.110       27.682        9.317        0.113      341.524       16.296      865.689
05/02/2014  09:03:00       19.402      -20.824       14.597       25.806       33.750       30.273      665.944     1139.040      916.479        0.187        0.136       28.461       25.420        0.798      341.565       16.369      865.702
05/02/2014  09:04:00       29.495      -12.385       24.064       40.325       63.239       34.058     1626.094     3999.163     1159.954        0.419        0.339       31.990       28.486        0.793      341.532       16.313      865.682
05/02/2014  09:05:00       21.057        8.508       44.895       32.631       39.385       37.016     1064.768     1551.197     1370.212        0.326        0.199       22.711       26.116        1.322      341.887       16.912      865.675
05/02/2014  09:06:00       90.827       43.551       10.797       47.751       37.915       33.895     2280.143     1437.568     1148.897        0.756        0.243      100.728       28.673        0.081      341.576       16.385      865.672
05/02/2014  09:07:00       86.349       68.663       14.948       65.479       39.630       31.482     4287.511     1570.511      991.109        0.962        0.342      110.321       25.338        0.053      341.514       16.279      865.659
05/02/2014  09:08:00        3.694       75.436       -2.185       32.823       58.878       30.614     1077.338     3466.677      937.189        0.559        0.274       75.526       38.566        0.261      341.828       16.812      865.651
05/02/2014  09:09:00      -36.337      -19.295      -11.530       40.068       49.895       17.415     1605.471     2489.492      303.299        0.311        0.220       41.142       11.769        0.082      341.822       16.801      865.633
05/02/2014  09:10:00      -56.651      -87.432       10.262       30.056       51.557       33.857      903.393     2658.145     1146.267        0.783        0.235      104.182       23.211        0.050      341.765       16.705      865.612
05/02/2014  09:11:00      -28.703       32.685       49.395       21.015       31.676       44.481      441.636     1003.350     1978.575        0.388        0.171       43.499       32.261        0.550      342.378       17.748      865.602
05/02/2014  09:12:00       -6.312      -60.895       22.264       68.753       57.493       36.485     4727.012     3305.480     1331.159        0.680        0.468       61.221       41.506        0.460      342.046       17.183      865.600
05/02/2014  09:13:00      -36.020      -11.475      -11.843       56.537       47.431       21.479     3196.429     2249.722      461.366        0.374        0.295       37.804       19.673        0.271      341.625       16.468      865.587
05/02/2014  09:14:00      -20.648      -32.236        0.400       24.547       25.306       14.917      602.573      640.375      222.508        0.147        0.073       38.282       14.242        0.138      341.876       16.893      865.575
05/02/2014  09:15:00      -18.938      -38.801       15.598       39.115       39.962       26.686     1529.998     1596.970      712.148        0.297        0.192       43.176       28.213        0.427      342.109       17.290      865.570
05/02/2014  09:16:00      -10.681      -18.962       11.782       25.524       19.908       16.679      651.462      396.341      278.184        0.097        0.066       21.763       13.377        0.378      342.398       17.781      865.557
05/02/2014  09:17:00      -14.544       -2.455       19.639       15.785       19.127       22.938      249.176      365.856      526.172        0.087        0.057       14.750       18.620        1.594      342.600       18.124      865.544
05/02/2014  09:18:00        3.104       -4.295       27.933       24.391       21.848       18.252      594.937      477.332      333.148        0.111        0.070        5.299       14.344        7.328      342.585       18.099      865.538
05/02/2014  09:19:00      -23.471      -36.352        3.064       17.017       18.428       22.382      289.577      339.592      500.957        0.151        0.057       43.271       10.995        0.065      342.112       17.296      865.521
05/02/2014  09:20:00        5.377        3.089       13.698       24.323       36.048       24.349      591.612     1299.485      592.862        0.135        0.124        6.201       20.360       10.779      342.483       17.925      865.502
05/02/2014  09:21:00       -9.775       16.191       -3.801       18.894       27.135       22.366      357.000      736.286      500.222        0.098        0.080       18.913        9.013        0.227      342.489       17.935      865.490
05/02/2014  09:22:00      -32.766        8.365        5.595       19.153       11.384       12.898      366.825      129.604      166.350        0.092        0.033       33.817        9.514        0.079      342.360       17.715      865.476
05/02/2014  09:23:00      -29.341        6.304        3.731       26.817       23.821       27.301      719.141      567.450      745.341        0.147        0.102       30.010       10.116        0.114      342.539       18.020      865.470
05/02/2014  09:24:00       13.727        7.605       26.581       27.350       16.404       23.720      748.016      269.086      562.626        0.127        0.079       15.693       22.331        2.025      342.856       18.562      865.461
05/02/2014  09:25:00      -36.143       -6.668       18.754       35.785       31.706       26.083     1280.567     1005.254      680.322        0.233        0.148       36.753       26.927        0.537      342.646       18.203      865.451
05/02/2014  09:26:00      -95.125      -40.149       -8.323       19.408       35.192       16.636      376.664     1238.477      276.768        0.631        0.095      103.251       12.433        0.015      342.043       17.178      865.443
05/02/2014  09:27:00       12.216      -13.939       14.917       32.343       36.336       30.367     1046.040     1320.333      922.130        0.193        0.164       18.535       26.797        2.090      342.725       18.338      865.432
05/02/2014  09:28:00        3.073      -12.916       21.273       42.403       43.580       34.986     1797.975     1899.190     1224.045        0.277        0.246       13.277       30.431        5.254      342.533       18.010      865.414
05/02/2014  09:29:00      -22.511       -6.971       36.161       24.882       31.257       20.962      619.114      976.983      439.423        0.195        0.102       23.566       19.716        0.700      343.123       19.015      865.398
05/02/2014  09:30:00       23.647       31.563       56.944       36.305       38.407       26.539     1318.071     1475.134      704.326        0.415        0.175       39.438       16.312        0.171      342.801       18.467      865.373
05/02/2014  09:31:00       20.533       46.220       63.634       48.720       43.807       29.864     2373.598     1919.011      891.863        0.589        0.259       50.575       28.743        0.323      342.620       18.157      865.354
05/02/2014  09:32:00       11.836       20.326       50.980       32.921       55.288       32.687     1083.810     3056.802     1068.422        0.418        0.260       23.521       27.041        1.322      342.425       17.826      865.337
05/02/2014  09:33:00       10.056        6.276       16.892       28.349       42.453       30.930      803.655     1802.223      956.641        0.199        0.178       11.854       20.427        2.970      342.433       17.839      865.328
05/02/2014  09:34:00      -25.996      -61.909       -1.549       31.343       63.298       34.139      982.360     4006.683     1165.459        0.533        0.308       67.145       41.972        0.391      342.649       18.207      865.324
05/02/2014  09:35:00      -35.336      -27.532       14.039       43.801       30.926       27.440     1918.526      956.388      752.963        0.292        0.181       44.795       26.655        0.354      342.722       18.330      865.316
05/02/2014  09:36:00      -31.507      -22.311       10.601       41.532       30.848       32.711     1724.936      951.597     1070.030        0.267        0.187       38.607       24.994        0.419      342.772       18.416      865.313
05/02/2014  09:37:00      -61.555      -12.555       -1.398       28.025       63.362       23.724      785.385     4014.764      562.829        0.465        0.268       62.822       24.302        0.150      342.364       17.723      865.309
05/02/2014  09:38:00     -109.241      -22.335      -13.642       40.640       28.873       19.792     1651.576      833.671      391.736        0.775        0.144      111.501       20.464        0.034      342.370       17.733      865.294
05/02/2014  09:39:00      -53.951       -1.147       -1.099       23.403       18.590       15.967      547.680      345.581      254.931        0.203        0.057       53.963       14.910        0.076      342.402       17.787      865.285
05/02/2014  09:40:00      -63.693       -2.258       -9.027       14.217       16.713       15.559      202.119      279.337      242.090        0.243        0.036       63.733        8.785        0.019      342.325       17.655      865.277
05/02/2014  09:41:00      -58.806        7.731      -15.914       26.901       10.987       12.584      723.668      120.704      158.349        0.239        0.050       59.312        9.481        0.026      342.350       17.697      865.269
05/02/2014  09:42:00      -50.052       12.850      -15.762       15.434       12.625       13.287      238.207      159.390      176.548        0.175        0.029       51.675        9.355        0.033      342.382       17.754      865.264
05/02/2014  09:43:00       -7.456       24.012       -3.735       32.225       20.319       23.805     1038.482      412.851      566.692        0.133        0.101       25.143       20.863        0.689      342.969       18.752      865.256
05/02/2014  09:44:00       81.540       59.116        1.456       23.098       39.805       31.660      533.514     1584.469     1002.385        0.663        0.156      100.715       26.848        0.071      342.760       18.395      865.247
05/02/2014  09:45:00       80.292       84.650       -9.937       28.371       30.694       29.564      804.911      942.113      874.048        0.817        0.131      116.672       17.108        0.022      342.702       18.296      865.238
05/02/2014  09:46:00       50.656       43.889        9.285       23.050       42.648       21.350      531.292     1818.844      455.820        0.369        0.140       67.025       21.785        0.106      342.811       18.482      865.226
05/02/2014  09:47:00       55.724       75.704        8.022       36.934       35.129       22.852     1364.109     1234.056      522.233        0.601        0.156       94.001       17.589        0.035      342.953       18.724      865.210
05/02/2014  09:48:00        5.376       70.167        4.266       29.867       43.283       23.080      892.032     1873.428      532.686        0.413        0.165       70.373       16.424        0.054      343.313       19.337      865.200
05/02/2014  09:49:00       49.657       29.385       17.827       26.499       31.498       28.853      702.172      992.133      832.508        0.309        0.126       57.700       20.413        0.125      343.405       19.494      865.190
05/02/2014  09:50:00       17.139       30.414        8.694       25.930       37.009       28.723      672.341     1369.645      825.000        0.208        0.143       34.911       22.388        0.411      343.656       19.923      865.186
05/02/2014  09:51:00       12.821       15.412       23.779       31.599       24.638       17.381      998.514      607.046      302.100        0.144        0.095       20.048       12.983        0.419      343.954       20.431      865.180
05/02/2014  09:52:00       21.422        4.956       27.277       28.526       33.464       26.237      813.714     1119.827      688.395        0.192        0.131       21.988       22.726        1.068      343.506       19.665      865.172
05/02/2014  09:53:00       10.956       25.290       23.459       23.400       22.083       26.994      547.577      487.671      728.661        0.154        0.088       27.561       18.992        0.475      343.132       19.028      865.167
05/02/2014  09:54:00       20.040      -19.323        8.579       25.588       19.214       33.450      654.728      369.194     1118.924        0.150        0.107       27.839        7.387        0.070      342.812       18.485      865.168
05/02/2014  09:55:00      -29.337      -45.000       -8.149       38.241       46.938       32.149     1462.342     2203.213     1033.529        0.382        0.235       53.718       31.741        0.349      343.344       19.390      865.163
05/02/2014  09:56:00      -15.540        7.248       15.246       40.005       23.045       29.900     1600.388      531.093      893.983        0.178        0.151       17.148       27.034        2.485      343.583       19.799      865.162
05/02/2014  09:57:00       25.859       14.322       19.663       32.500       20.231       25.156     1056.224      409.285      632.849        0.168        0.105       29.560       24.822        0.705      343.228       19.193      865.157
05/02/2014  09:58:00      -21.066      -32.986        7.250       54.853       45.725       29.747     3008.857     2090.803      884.892        0.378        0.299       39.139       27.753        0.503      343.232       19.201      865.146
05/02/2014  09:59:00      -57.385      -48.700        2.720       38.368       60.070       29.857     1472.103     3608.416      891.432        0.582        0.299       75.265       33.397        0.197      343.186       19.122      865.145
05/02/2014  10:00:00      -57.865      -35.703       11.483       40.726       35.743       23.321     1658.613     1277.567      543.873        0.412        0.174       67.993       18.476        0.074      343.304       19.323      865.131
05/02/2014  10:01:00      -74.561      -76.981       -2.731       29.988       34.325       21.010      899.292     1178.221      441.424        0.701        0.126      107.170       14.662        0.019      342.871       18.584      865.128
05/02/2014  10:02:00      -70.583      -58.390        0.275       28.669       25.259       15.764      821.887      638.022      248.497        0.505        0.085       91.604       11.147        0.015      342.877       18.594      865.120
05/02/2014  10:03:00      -68.118      -37.382       -8.493       21.138       25.049       19.078      446.827      627.466      363.966        0.377        0.072       77.701        9.841        0.016      342.943       18.705      865.101
05/02/2014  10:04:00      -56.614      -19.446        3.262       42.753       29.012       26.304     1827.842      841.718      691.923        0.348        0.168       59.861       27.793        0.216      343.381       19.454      865.104
05/02/2014  10:05:00      -10.630       11.780       43.498       17.457       43.283       24.231      304.743     1873.439      587.165        0.245        0.138       15.867       27.489        3.002      344.050       20.596      865.089
05/02/2014  10:06:00       21.242      -15.622       17.314       33.459       18.376       22.028     1119.481      337.673      485.240        0.147        0.097       26.368       15.590        0.350      343.460       19.586      865.074
05/02/2014  10:07:00       -4.132      -12.848        4.701       55.351       26.871       24.409     3063.784      722.074      595.809        0.229        0.219       13.496       22.181        2.701      343.207       19.157      865.064
05/02/2014  10:08:00      -41.866        4.251        5.002       33.517       26.217       17.098     1123.365      687.316      292.341        0.195        0.105       42.082       17.410        0.171      343.508       19.671      865.053
05/02/2014  10:09:00      -14.154       -9.766        8.998       55.850       33.485       26.156     3119.238     1121.234      684.146        0.265        0.246       17.197       25.209        2.149      343.667       19.942      865.044
05/02/2014  10:10:00      -20.632      -21.213       14.812       50.762       35.114       22.481     2576.789     1233.011      505.407        0.270        0.216       29.591       21.892        0.547      343.682       19.967      865.030
05/02/2014  10:11:00       -6.130      -37.586        2.224       42.285       29.096       25.159     1788.005      846.555      632.952        0.236        0.163       38.082       16.627        0.191      343.375       19.443      865.028
05/02/2014  10:12:00      -55.177      -33.899       10.957       33.881       38.351       19.131     1147.907     1470.794      365.982        0.365        0.149       64.758       14.739        0.052      343.560       19.759      865.024
05/02/2014  10:13:00      -23.942       13.448       16.467       42.621       22.627       30.271     1816.510      511.985      916.332        0.213        0.162       27.461       27.787        1.024      344.079       20.646      865.025
05/02/2014  10:14:00       -3.284       13.632       34.013       27.525       25.654       21.683      757.614      658.116      470.135        0.162        0.094       14.022       17.186        1.502      343.973       20.464      865.012
05/02/2014  10:15:00      -17.526       24.542       12.989       30.042       28.070       26.006      902.536      787.898      676.333        0.172        0.118       30.158       19.570        0.421      343.614       19.851      865.005
05/02/2014  10:16:00      -16.362       -1.314       23.774       25.876       28.191       29.035      669.568      794.705      843.042        0.157        0.115       16.414       19.984        1.482      344.278       20.984      865.001
05/02/2014  10:17:00      -23.975        1.790       41.893       20.248       28.693       20.333      409.992      823.312      413.448        0.199        0.082       24.041       18.969        0.623      344.371       21.142      864.995
05/02/2014  10:18:00      -27.763      -50.465       -0.881       40.931       33.116       28.833     1675.372     1096.679      831.363        0.346        0.180       57.598       13.631        0.056      343.544       19.731      864.989
05/02/2014  10:19:00       23.925       29.441       20.900       42.416       50.875       36.164     1799.114     2588.262     1307.823        0.378        0.285       37.937       18.847        0.247      343.988       20.489      864.985
05/02/2014  10:20:00       56.797       31.981        4.208       24.456       26.399       22.821      598.107      696.886      520.803        0.304        0.091       65.182       12.682        0.038      343.383       19.456      864.980
05/02/2014  10:21:00      -13.678       49.272       20.904       29.060       45.763       34.930      844.492     2094.231     1220.108        0.360        0.208       51.136       28.643        0.314      344.169       20.798      864.969
05/02/2014  10:22:00       23.395       74.521        8.470       31.697       50.124       31.737     1004.668     2512.376     1007.268        0.535        0.226       78.107       31.057        0.158      344.221       20.887      864.965
05/02/2014  10:23:00       19.533       93.083       -6.241       30.221       51.335       26.400      913.285     2635.267      696.935        0.666        0.212       95.110       28.990        0.093      343.744       20.073      864.954
05/02/2014  10:24:00       -0.018        0.171       31.589       19.510       16.337       13.621      380.651      266.908      185.539        0.092        0.042        0.172       10.562     3760.214      344.910       22.064      864.947
05/02/2014  10:25:00       14.754      -11.587       14.147       34.843       38.296       23.127     1214.052     1466.573      534.844        0.188        0.161       18.760       17.109        0.832      344.310       21.040      864.935
05/02/2014  10:26:00       10.158      -18.653       39.413       22.984       50.647       23.687      528.264     2565.158      561.096        0.283        0.183       21.240       21.884        1.062      344.382       21.160      864.921
05/02/2014  10:27:00        4.929       -5.118       32.913       27.378       34.590       26.384      749.579     1196.450      696.113        0.189        0.132        7.105       12.238        2.967      344.103       20.685      864.907
05/02/2014  10:28:00       18.222        7.829       29.362       31.887       43.855       34.366     1016.793     1923.227     1180.998        0.269        0.206       19.833       23.789        1.439      344.228       20.898      864.889
05/02/2014  10:29:00       50.588       10.316       28.844       47.054       38.113       37.234     2214.086     1452.633     1386.408        0.427        0.253       51.629       33.547        0.422      344.024       20.550      864.877
05/02/2014  10:30:00       23.187       30.641       53.851       55.652       43.735       41.901     3097.108     1912.766     1755.669        0.557        0.338       38.425       38.465        1.002      343.932       20.392      864.859
05/02/2014  10:31:00       26.418       28.662       39.639       43.285       40.703       35.167     1873.589     1656.763     1236.741        0.393        0.238       38.980       30.182        0.600      343.698       19.994      864.855
05/02/2014  10:32:00       51.570       -5.886       11.313       44.814       65.051       42.408     2008.324     4231.678     1798.476        0.543        0.402       51.905       33.371        0.413      343.799       20.166      864.836
05/02/2014  10:33:00      -35.480      -34.150      -12.110       51.092       38.768       29.324     2610.416     1502.923      859.912        0.377        0.249       49.245       20.753        0.178      343.704       20.004      864.830
05/02/2014  10:34:00      -97.881      -33.011      -12.736       46.004       35.592       24.295     2116.399     1266.764      590.234        0.740        0.199      103.297       11.872        0.013      343.910       20.355      864.827
05/02/2014  10:35:00      -49.735      -65.853        8.901       49.362       57.209       28.264     2436.592     3272.863      798.872        0.670        0.325       82.524       30.486        0.136      344.223       20.889      864.816
05/02/2014  10:36:00      -19.955      -45.878       20.247       47.022       44.101       28.714     2211.051     1944.923      824.497        0.395        0.249       50.030       30.883        0.381      344.176       20.810      864.814
05/02/2014  10:37:00      -46.557      -47.657        3.928       30.295       31.046       15.747      917.798      963.876      247.960        0.329        0.106       66.623       11.989        0.032      343.950       20.422      864.798
05/02/2014  10:38:00      -46.254      -76.083        8.037       27.842       26.186       22.584      775.150      685.697      510.048        0.498        0.099       89.040       11.164        0.016      343.851       20.255      864.789
05/02/2014  10:39:00      -24.930      -19.317        7.374       26.617       30.367       20.519      708.453      922.154      421.014        0.155        0.103       31.538       13.977        0.196      344.322       21.060      864.773
05/02/2014  10:40:00      -33.958        2.832        6.960       22.513       15.561       18.173      506.819      242.156      330.264        0.114        0.054       34.076       12.990        0.145      344.367       21.135      864.768
05/02/2014  10:41:00      -87.270       -2.816       -7.334       28.674       27.585       19.376      822.196      760.951      375.444        0.482        0.098       87.315       17.161        0.039      343.910       20.354      864.755
05/02/2014  10:42:00      -96.719      -39.989       -3.640       30.852       27.042       23.034      951.845      731.248      530.585        0.659        0.111      104.660       16.967        0.026      344.038       20.574      864.755
05/02/2014  10:43:00       -7.907        5.800       39.910       32.263       28.504       24.978     1040.887      812.465      623.892        0.208        0.124        9.807       24.033        6.006      344.947       22.129      864.749
05/02/2014  10:44:00       22.709       12.871        9.144       27.238       31.104       31.844      741.929      967.447     1014.072        0.174        0.136       26.103       23.184        0.789      343.881       20.307      864.748
05/02/2014  10:45:00       23.434       -0.195       14.720       26.261       21.642       24.043      689.645      468.395      578.069        0.125        0.087       23.435       15.149        0.418      344.411       21.210      864.733
05/02/2014  10:46:00        2.104       17.909       50.026       28.134       38.732       31.664      791.517     1500.158     1002.584        0.306        0.165       18.032       16.928        0.881      344.996       22.211      864.725
05/02/2014  10:47:00       52.652      -40.999       18.848       56.992       67.936       53.717     3248.057     4615.319     2885.545        0.778        0.537       66.732       42.783        0.411      344.548       21.445      864.697
05/02/2014  10:48:00        5.021       -6.320       61.013       34.776       48.729       26.258     1209.356     2374.490      689.496        0.403        0.214        8.071       12.593        2.434      344.992       22.205      864.694
05/02/2014  10:49:00       36.035      -76.962        4.645       37.816       47.287       38.628     1430.053     2236.049     1492.109        0.620        0.258       84.980       31.528        0.138      344.166       20.794      864.697
05/02/2014  10:50:00       10.613       -5.672       28.014       38.567       46.973       39.308     1487.392     2206.498     1545.080        0.308        0.262       12.034       31.191        6.718      344.455       21.287      864.701
05/02/2014  10:51:00       12.589      -51.414       22.111       29.852       29.322       25.317      891.164      859.777      640.961        0.284        0.120       52.933       20.724        0.153      344.176       20.810      864.693
05/02/2014  10:52:00       37.462      -29.006       18.847       33.621       54.962       32.097     1130.352     3020.839     1030.219        0.389        0.259       47.379       35.082        0.548      344.223       20.890      864.680
05/02/2014  10:53:00       78.480      -70.852        7.974       57.812       86.378       50.031     3342.222     7461.111     2503.052        1.227        0.665      105.731       50.468        0.228      344.721       21.740      864.674
05/02/2014  10:54:00       38.528      -10.302       37.139       34.488       33.869       32.345     1189.413     1147.108     1046.231        0.318        0.169       39.882       24.806        0.387      344.551       21.451      864.669
05/02/2014  10:55:00       36.291       22.017       49.865       47.004       52.496       32.202     2209.395     2755.799     1036.969        0.514        0.300       42.448       32.349        0.581      344.309       21.037      864.661
05/02/2014  10:56:00       22.979        0.224       26.815       32.945       29.814       28.609     1085.402      888.894      818.483        0.202        0.140       22.980       20.985        0.834      344.331       21.075      864.649
05/02/2014  10:57:00       13.040        6.576       28.632       24.338       25.176       20.973      592.345      633.814      439.887        0.135        0.083       14.604       10.163        0.484      344.639       21.601      864.646
05/02/2014  10:58:00      -29.294       22.506        9.426       37.589       21.010       23.453     1412.919      441.426      550.053        0.193        0.120       36.941       12.847        0.121      344.501       21.364      864.622
05/02/2014  10:59:00      -74.412        8.424       -7.547       23.345       23.012       12.278      544.996      529.570      150.757        0.344        0.061       74.887        4.257        0.003      344.099       20.678      864.608
05/02/2014  11:00:00      -92.205      -41.122      -10.254       17.979       28.479       16.922      323.233      811.044      286.358        0.586        0.071      100.959       13.201        0.017      344.211       20.869      864.605
05/02/2014  11:01:00      -78.948      -20.633       -6.303       23.066       37.956       18.514      532.059     1440.673      342.763        0.451        0.116       81.599       15.846        0.038      344.131       20.733      864.586
05/02/2014  11:02:00      -71.579        7.482        0.518       37.008       26.267       21.960     1369.564      689.949      482.221        0.386        0.127       71.969       17.099        0.056      344.506       21.372      864.581
05/02/2014  11:03:00      -86.515      -26.718        7.637       72.891       50.814       30.812     5313.083     2582.070      949.352        0.855        0.442       90.547       30.211        0.111      344.800       21.875      864.573
05/02/2014  11:04:00      -47.393      -23.475       26.218       42.260       35.181       26.148     1785.930     1237.722      683.702        0.360        0.185       52.888       23.136        0.191      345.136       22.453      864.579
05/02/2014  11:05:00       33.359       24.432       29.648       56.819       41.850       42.266     3228.445     1751.389     1786.391        0.468        0.338       41.349       17.137        0.172      344.898       22.045      864.581
05/02/2014  11:06:00       86.847       77.037       12.278       43.434       25.151       32.401     1886.469      632.580     1049.829        0.860        0.178      116.091       10.138        0.008      344.702       21.707      864.554
05/02/2014  11:07:00      117.070       95.278       52.318       47.582       36.136       43.440     2264.024     1305.831     1887.063        1.549        0.273      150.942       27.107        0.032      344.442       21.264      864.555
05/02/2014  11:08:00      107.506       69.015       22.006       56.521       43.113       30.545     3194.649     1858.753      933.009        1.139        0.299      127.752       14.034        0.012      344.654       21.625      864.544
05/02/2014  11:09:00       78.891       92.223        1.602       60.277       33.333       32.351     3633.266     1111.058     1046.574        1.026        0.290      121.363       20.537        0.029      344.784       21.848      864.538
05/02/2014  11:10:00       31.530      109.377        0.388       33.750       63.739       43.726     1139.093     4062.710     1911.947        1.003        0.356      113.831       39.267        0.119      344.909       22.063      864.525
05/02/2014  11:11:00       19.303       68.455        7.906       40.757       58.197       34.491     1661.154     3386.906     1189.663        0.568        0.312       71.124       34.178        0.231      345.240       22.628      864.514
05/02/2014  11:12:00       25.826       53.182       17.481       30.401       67.904       34.312      924.204     4610.969     1177.331        0.526        0.336       59.121       41.731        0.498      345.475       23.033      864.503
05/02/2014  11:13:00       17.110      105.193       -7.143       28.295       77.112       31.385      800.598     5946.269      985.038        0.957        0.387      106.575       40.614        0.145      345.106       22.400      864.479
05/02/2014  11:14:00       41.582       93.171       -6.786       37.267       40.920       34.294     1388.806     1674.424     1176.112        0.735        0.212      102.029       28.207        0.076      344.935       22.107      864.468
05/02/2014  11:15:00        7.240       57.304        3.901       30.857       37.909       27.587      952.133     1437.112      761.020        0.325        0.158       57.760       23.054        0.159      345.015       22.243      864.444
05/02/2014  11:16:00       -7.954       38.863       12.252       28.667       43.449       26.203      821.825     1887.812      686.588        0.256        0.170       39.669       26.439        0.444      345.648       23.331      864.437
05/02/2014  11:17:00       12.075       23.093       25.998       25.005       32.220       30.838      625.242     1038.114      950.952        0.198        0.131       26.059       22.203        0.726      345.767       23.533      864.416
05/02/2014  11:18:00       21.356       32.069       35.398       29.490       22.369       19.704      869.634      500.352      388.244        0.225        0.088       38.529       11.088        0.083      345.344       22.806      864.411
05/02/2014  11:19:00       12.179      -20.521       16.148       16.842       22.297       19.931      283.664      497.158      397.231        0.100        0.059       23.863       15.870        0.442      345.246       22.641      864.388
05/02/2014  11:20:00       -3.800       11.311       15.417       18.735       29.996       17.616      351.004      899.790      310.322        0.097        0.078       11.932       17.282        2.098      345.656       23.342      864.378
05/02/2014  11:21:00       35.378       -2.575       37.391       59.026       69.280       55.850     3484.104     4799.658     3119.213        0.703        0.570       35.472       52.477        2.189      345.402       22.907      864.342
05/02/2014  11:22:00       56.700      100.325      114.652       69.135       74.657       51.933     4779.690     5573.656     2697.034        1.974        0.653      115.239       48.280        0.176      345.330       22.781      864.339
05/02/2014  11:23:00       39.377       17.095       40.980       40.929       62.277       45.545     1675.172     3878.395     2074.309        0.557        0.381       42.928       45.637        1.130      345.045       22.294      864.331
05/02/2014  11:24:00       21.199       33.410       37.847       48.709       44.311       32.782     2372.564     1963.437     1074.660        0.420        0.271       39.568       19.902        0.253      345.608       23.260      864.316
05/02/2014  11:25:00       64.204       70.754        5.911       40.425       39.747       37.327     1634.217     1579.857     1393.316        0.688        0.230       95.542       19.869        0.043      345.294       22.722      864.310
05/02/2014  11:26:00       47.953       90.876       -7.447       52.869       46.725       34.281     2795.132     2183.245     1175.173        0.838        0.308      102.751       29.566        0.083      345.301       22.734      864.308
05/02/2014  11:27:00       33.471       52.946       -3.222       28.915       62.091       26.919      836.057     3855.340      724.644        0.467        0.271       62.639       34.864        0.310      345.079       22.354      864.304
05/02/2014  11:28:00       39.249       51.045        0.428       34.766       32.098       36.569     1208.657     1030.262     1337.262        0.386        0.179       64.390       19.764        0.094      345.505       23.082      864.293
05/02/2014  11:29:00       74.437       69.024       -4.971       39.236       40.646       30.111     1539.481     1652.093      906.697        0.721        0.205      101.515       24.388        0.058      345.386       22.879      864.287
05/02/2014  11:30:00       41.500       18.455       16.383       41.741       34.375       18.324     1742.306     1181.623      335.775        0.279        0.163       45.418       21.412        0.222      345.224       22.601      864.276
05/02/2014  11:31:00       -3.092        6.415        0.460       29.227       19.915       18.939      854.220      396.598      358.673        0.083        0.080        7.121        6.504        0.834      345.731       23.470      864.266
05/02/2014  11:32:00       16.831       62.221       20.281       58.568       46.409       34.240     3430.245     2153.778     1172.366        0.566        0.338       64.457       20.044        0.097      345.756       23.514      864.272
05/02/2014  11:33:00       71.180       54.942        8.726       33.386       35.746       39.993     1114.638     1277.811     1599.430        0.608        0.200       89.918       24.631        0.075      345.170       22.510      864.258
05/02/2014  11:34:00        9.705      -51.522       -0.526       26.650       40.650       17.008      710.241     1652.459      289.259        0.270        0.133       52.428       16.594        0.100      345.312       22.753      864.245
05/02/2014  11:35:00        6.531       -2.042       37.699       43.257       69.950       37.373     1871.172     4892.952     1396.744        0.481        0.408        6.842       44.431       42.165      345.853       23.682      864.229
05/02/2014  11:36:00       35.522       59.923       45.352       40.419       57.892       40.112     1633.724     3351.463     1608.933        0.675        0.330       69.660       25.158        0.130      346.328       24.497      864.211
05/02/2014  11:37:00       78.623      101.802       95.727       71.024       66.512       60.001     5044.428     4423.790     3600.139        1.939        0.653      128.628       37.901        0.087      345.819       23.621      864.189
05/02/2014  11:38:00       48.118      -94.103        3.434       55.091      110.097       41.284     3035.017    12121.424     1704.380        1.402        0.843      105.692       48.489        0.210      345.671       23.367      864.172
05/02/2014  11:39:00       50.584      -93.406       31.486       72.823       93.995       57.433     5303.231     8834.982     3298.579        1.485        0.872      106.223       58.146        0.300      346.125       24.148      864.138
05/02/2014  11:40:00        5.413     -120.835       -0.564       57.054       55.028       40.047     3255.115     3028.080     1603.795        1.126        0.394      120.957       34.519        0.081      345.885       23.734      864.144
05/02/2014  11:41:00      170.317     -225.814      -65.659       92.828      100.600       58.640     8617.071    10120.442     3438.613        5.324        1.109      282.842       46.837        0.027      345.520       23.106      864.115
05/02/2014  11:42:00       40.565       40.029       86.647       61.554       64.459       59.112     3788.886     4154.996     3494.212        1.109        0.572       56.990       57.426        1.015      346.100       24.105      864.130
05/02/2014  11:43:00       65.921       -3.632       44.941       61.330       82.249       59.298     3761.402     6764.820     3516.221        1.021        0.702       66.021       66.866        1.026      345.895       23.752      864.116
05/02/2014  11:44:00       78.028      -50.993       42.250       80.832      106.298       63.349     6533.773    11299.243     4013.117        1.616        1.092       93.213       69.117        0.550      345.878       23.722      864.096
05/02/2014  11:45:00      142.995     -103.088        0.208       81.876      111.248       86.430     6703.669    12376.079     7470.167        2.881        1.327      176.280       91.144        0.267      345.789       23.568      864.075
05/02/2014  11:46:00       57.272       15.394       53.098       78.492       96.558       56.881     6160.985     9323.502     3235.404        1.252        0.936       59.305       78.556        1.755      345.955       23.855      864.096
05/02/2014  11:47:00       82.456       97.294       77.885       64.669       39.239       37.623     4182.065     1539.676     1415.508        1.473        0.357      127.535       34.984        0.075      345.537       23.139      864.086
05/02/2014  11:48:00       50.563      -58.823        4.177       66.177       86.661       48.259     4379.337     7510.137     2328.914        1.012        0.711       77.568       55.589        0.514      346.061       24.036      864.052
05/02/2014  11:49:00      103.445     -121.883      -33.359       75.669       69.908       59.133     5725.751     4887.084     3496.757        2.039        0.705      159.863       54.228        0.115      345.867       23.704      864.049
05/02/2014  11:50:00       15.012       -2.725       62.523       36.043       69.440       48.978     1299.120     4821.973     2398.840        0.633        0.426       15.257       50.323       10.879      346.272       24.401      864.032
05/02/2014  11:51:00       29.672      -53.250       -0.262       36.043       53.639       32.481     1299.121     2877.140     1055.046        0.447        0.262       60.959       29.344        0.232      345.764       23.529      864.031
05/02/2014  11:52:00      -13.626      -29.022        3.297       36.331       46.003       34.536     1319.963     2116.301     1192.735        0.283        0.231       32.062       11.910        0.138      346.235       24.338      864.011
05/02/2014  11:53:00       10.863        6.465       49.709       31.774       67.523       32.672     1009.613     4559.361     1067.466        0.463        0.332       12.641       34.207        7.322      346.377       24.580      863.994
05/02/2014  11:54:00       48.347       18.949       77.795       40.023       25.584       30.741     1601.881      654.533      945.030        0.597        0.160       51.928       18.378        0.125      345.942       23.834      863.992
05/02/2014  11:55:00       14.369      -10.242       43.033       19.725       38.791       15.622      389.065     1504.715      244.039        0.215        0.107       17.645        6.296        0.127      346.281       24.415      863.984
05/02/2014  11:56:00      -16.030       -2.048       11.088       23.350       35.700       23.386      545.214     1274.456      546.912        0.137        0.118       16.161       14.568        0.813      346.102       24.109      863.959
05/02/2014  11:57:00       -8.827      -39.419        0.816       21.260       37.743       30.469      451.967     1424.533      928.356        0.222        0.140       40.395       30.646        0.576      346.219       24.312      863.940
05/02/2014  11:58:00       12.542       28.530       26.165       27.929       34.804       29.672      780.035     1211.308      880.422        0.226        0.144       31.165       21.875        0.493      347.101       25.828      863.931
05/02/2014  11:59:00       17.062       41.747       42.447       40.943       44.841       39.848     1676.300     2010.696     1587.850        0.455        0.264       45.099       29.217        0.420      346.770       25.257      863.904
05/02/2014  12:00:00      -21.653       -5.839       40.485       33.301       53.145       34.347     1108.940     2824.440     1179.732        0.363        0.256       22.427       30.172        1.810      346.675       25.094      863.875
05/02/2014  12:01:00       31.932      -65.737       37.667       54.424      153.720       87.373     2961.979    23629.741     7634.103        2.049        1.711       73.082      109.045        2.226      346.111       24.122      863.860
05/02/2014  12:02:00       53.112       11.136       69.646       81.150      122.246       85.373     6585.307    14944.096     7288.500        1.830        1.441       54.267       98.663        3.306      346.221       24.311      863.854
05/02/2014  12:03:00       82.200      -93.837       -3.711       89.814       95.459       66.477     8066.509     9112.490     4419.199        1.858        1.080      124.748       61.547        0.243      346.173       24.229      863.836
05/02/2014  12:04:00       25.860      -52.569       23.028       48.303       67.412       41.382     2333.225     4544.388     1712.508        0.627        0.430       58.585       37.020        0.399      346.499       24.789      863.820
05/02/2014  12:05:00       33.835      -61.459       12.131       52.353       67.711       37.790     2740.882     4584.713     1428.062        0.691        0.438       70.157       29.197        0.173      346.602       24.967      863.812
05/02/2014  12:06:00       33.664       67.460      135.949       66.478      115.483       74.080     4419.293    13336.395     5487.891        2.370        1.162       75.393       76.406        1.027      346.740       25.202      863.797
05/02/2014  12:07:00      147.288     -139.565       13.036       95.192      117.533       64.819     9061.548    13814.107     4201.518        3.420        1.354      202.909       85.880        0.179      346.046       24.011      863.787
05/02/2014  12:08:00       56.177      -50.655       12.048       59.050       72.261       47.561     3486.848     5221.724     2262.073        0.842        0.549       75.642       53.912        0.508      346.346       24.527      863.787
05/02/2014  12:09:00       21.288      -81.725       23.452       51.552       86.920       60.351     2657.631     7555.098     3642.254        1.077        0.693       84.453       46.526        0.303      346.667       25.079      863.775
05/02/2014  12:10:00      -31.083       21.463       19.877       44.273       45.920       42.719     1960.129     2108.692     1824.943        0.386        0.295       37.773       36.339        0.926      346.216       24.306      863.764
05/02/2014  12:11:00      -20.552      -43.045        2.067       41.590       43.406       29.494     1729.743     1884.094      869.885        0.338        0.224       47.700       21.224        0.198      346.805       25.317      863.762
05/02/2014  12:12:00     -102.136        3.105      -37.041      104.296       42.822       45.934    10877.649     1833.694     2109.931        1.331        0.741      102.183       47.750        0.218      345.997       23.927      863.762
05/02/2014  12:13:00      -39.812        4.657       14.139       60.882       32.807       33.706     3706.575     1076.312     1136.119        0.386        0.296       40.084       35.259        0.774      346.575       24.924      863.719
05/02/2014  12:14:00      -30.835       10.110       -7.087       43.508       64.666       34.151     1892.935     4181.702     1166.259        0.417        0.362       32.450       23.663        0.532      346.547       24.873      863.706
05/02/2014  12:15:00       19.400       85.095       -1.676       64.541       85.383       51.252     4165.554     7290.191     2626.730        1.085        0.704       87.279       50.698        0.337      346.676       25.094      863.685
05/02/2014  12:16:00      109.532       89.587       31.667       59.445       40.263       52.489     3533.732     1621.094     2755.115        1.447        0.395      141.503       36.872        0.068      346.421       24.657      863.678
05/02/2014  12:17:00       18.688       21.397       -0.611       58.200       53.815       40.875     3387.238     2896.015     1670.762        0.438        0.398       28.409       28.072        0.976      346.558       24.891      863.671
05/02/2014  12:18:00       -3.129       36.513        6.931       63.212       37.312       31.022     3995.787     1392.204      962.377        0.387        0.318       36.647       20.724        0.320      346.707       25.148      863.660
05/02/2014  12:19:00       14.589       21.320       51.916       78.244       63.716       46.809     6122.188     4059.745     2191.056        0.787        0.619       25.834       30.143        1.361      347.223       26.037      863.624
05/02/2014  12:20:00      -45.446      -52.876       35.487       51.489      102.687       59.727     2651.128    10544.639     3567.270        1.144        0.838       69.722       64.228        0.849      347.175       25.952      863.596
05/02/2014  12:21:00       26.958       63.638       87.237       51.923       55.018       51.597     2695.961     3026.963     2662.292        1.038        0.419       69.113       40.720        0.347      346.960       25.583      863.602
05/02/2014  12:22:00       16.304      -13.076       55.699       53.629       67.170       34.700     2876.114     4511.755     1204.059        0.606        0.430       20.899       38.895        3.464      347.340       26.239      863.580
05/02/2014  12:23:00       98.659     -148.690      -16.353       79.871       96.257       54.067     6379.441     9265.453     2923.288        2.534        0.928      178.444       45.660        0.065      346.864       25.415      863.559
05/02/2014  12:24:00       80.872      -86.244       25.712       76.785      109.424       67.438     5895.993    11973.597     4547.846        1.852        1.121      118.230       66.949        0.321      346.829       25.357      863.524
05/02/2014  12:25:00      108.270     -127.782       27.235       92.093      132.420       90.780     8481.101    17535.126     8240.958        3.152        1.713      167.483       95.177        0.323      346.684       25.107      863.484
05/02/2014  12:26:00       84.601      -20.585       65.180       79.633      117.806       88.337     6341.433    13878.228     7803.490        1.992        1.401       87.069       81.309        0.872      346.855       25.402      863.480
05/02/2014  12:27:00       24.161       29.245       66.867       46.727       56.475       38.016     2183.450     3189.405     1445.212        0.636        0.341       37.935       17.779        0.220      347.110       25.843      863.471
05/02/2014  12:28:00        0.219      -52.413       13.487       16.107       38.023       35.056      259.424     1445.752     1228.903        0.293        0.147       52.413       28.319        0.292      346.682       25.106      863.432
05/02/2014  12:29:00       60.270       42.670       19.330       53.794       39.886       31.048     2893.779     1590.905      963.980        0.564        0.272       73.846       15.009        0.041      346.903       25.485      863.396
05/02/2014  12:30:00       53.974       55.560       48.449       51.004       46.344       48.312     2601.413     2147.811     2334.034        0.771        0.354       77.460       35.918        0.215      347.151       25.912      863.382
05/02/2014  12:31:00      108.634       57.749       17.222       75.678       38.345       49.161     5727.098     1470.316     2416.816        1.252        0.481      123.030       14.983        0.015      346.975       25.609      863.355
05/02/2014  12:32:00       88.955       45.889       67.941       57.033       82.383       46.560     3252.712     6786.939     2167.837        1.342        0.610      100.094       32.310        0.104      347.405       26.349      863.344
05/02/2014  12:33:00       45.186      -34.500       88.317      124.886      147.485       99.456    15596.560    21751.913     9891.457        2.913        2.362       56.850      102.961        3.280      347.306       26.178      863.322
05/02/2014  12:34:00      -55.581     -158.808        2.524      108.857       71.540       47.763    11849.835     5118.030     2281.338        2.378        0.962      168.254       34.436        0.042      346.946       25.556      863.324
05/02/2014  12:35:00       14.054     -109.407       -2.486       72.906       64.465       56.241     5315.291     4155.673     3163.055        1.240        0.632      110.306       42.303        0.147      347.284       26.142      863.304
05/02/2014  12:36:00       38.773     -211.915      -35.359      189.190      163.043       82.056    35792.720    26583.071     6733.213        5.837        3.455      215.433       92.871        0.186      347.084       25.795      863.249
05/02/2014  12:37:00      -52.369     -163.340      -30.178       84.871       93.395       45.206     7203.062     8722.566     2043.539        2.415        0.898      171.530       17.288        0.010      346.751       25.223      863.275
05/02/2014  12:38:00      -62.797      -72.949       -2.437       72.029       47.952       28.722     5188.159     2299.392      824.940        0.879        0.416       96.255       26.950        0.078      346.615       24.989      863.255
05/02/2014  12:39:00        8.923     -101.370        4.392       48.494       82.106       43.970     2351.626     6741.438     1933.400        1.070        0.551      101.762       35.620        0.123      347.034       25.710      863.218
05/02/2014  12:40:00       78.870     -107.181      -11.005      113.580      107.908       60.598    12900.326    11644.063     3672.149        2.302        1.411      133.072       53.611        0.162      347.181       25.964      863.175
05/02/2014  12:41:00      172.636     -182.503        2.832      121.978      145.864       74.713    14878.544    21276.301     5582.070        5.242        2.087      251.218       90.321        0.129      347.014       25.674      863.137
05/02/2014  12:42:00      150.402       16.623       74.747      113.074      222.233      123.609    12785.713    49387.571    15279.233        5.295        3.873      151.318      147.023        0.944      347.088       25.800      863.075
05/02/2014  12:43:00       38.318       39.426      100.081       78.891      100.816       80.739     6223.775    10163.854     6518.775        1.797        1.145       54.979       74.886        1.855      347.359       26.271      863.088
05/02/2014  12:44:00       59.267       14.211       90.937       75.666      129.937       76.084     5725.282    16883.629     5788.755        2.019        1.420       60.947       91.041        2.231      347.065       25.764      863.081
05/02/2014  12:45:00       93.100      -67.782       50.803       80.686      152.720       91.361     6510.221    23323.273     8346.743        2.700        1.909      115.161      106.780        0.860      347.164       25.932      863.065
05/02/2014  12:46:00       30.537      -94.891       17.305       54.595      112.697       59.418     2980.659    12700.707     3530.508        1.472        0.961       99.684       49.303        0.245      347.277       26.129      863.057
05/02/2014  12:47:00       74.123      -28.347       87.499       87.368      123.918       88.778     7633.171    15355.635     7881.601        2.241        1.544       79.359       85.494        1.161      347.373       26.294      863.029
05/02/2014  12:48:00        1.555      -41.200       85.085       79.822       93.032       74.779     6371.563     8654.872     5591.827        1.477        1.031       41.229       58.550        2.017      347.394       26.331      863.055
05/02/2014  12:49:00       88.310      -24.660       27.120       72.668       99.100       67.675     5280.643     9820.739     4579.956        1.441        0.984       91.689       66.582        0.527      346.886       25.455      863.080
05/02/2014  12:50:00      153.189     -143.535        7.735      132.155      119.342       63.736    17464.959    14242.517     4062.330        3.994        1.788      209.927       83.176        0.157      346.998       25.648      863.045
05/02/2014  12:51:00       98.661       61.838      118.750       85.670      192.040      118.950     7339.374    36879.259    14149.084        4.300        2.918      116.438      132.042        1.286      347.281       26.134      863.019
05/02/2014  12:52:00       97.386       28.926       41.046       79.798       55.467       43.855     6367.733     3076.618     1923.252        1.168        0.568      101.591       30.005        0.087      347.323       26.209      863.007
05/02/2014  12:53:00       81.219      102.368      108.815       84.291       72.956       64.497     7104.980     5322.549     4159.917        2.275        0.829      130.675       56.045        0.184      347.445       26.418      862.988
05/02/2014  12:54:00      -32.162      -86.769        8.517       62.039       96.798       51.161     3848.811     9369.772     2617.412        1.223        0.792       92.538       47.722        0.266      347.769       26.978      863.000
05/02/2014  12:55:00      -13.491      -52.630       57.713       90.911      119.904       94.668     8264.737    14376.890     8961.950        1.894        1.580       54.331       82.829        2.324      347.550       26.601      862.991
05/02/2014  12:56:00      -13.558       54.107      120.512       50.162      107.526       65.655     2516.230    11561.938     4310.611        1.801        0.919       55.779       73.626        1.742      347.467       26.455      862.952
05/02/2014  12:57:00       -6.767       98.711      127.513       38.003       68.670       40.534     1444.204     4715.571     1642.968        1.692        0.390       98.943       39.767        0.162      347.663       26.794      862.932
05/02/2014  12:58:00      -35.903      -32.597       23.935       63.884       60.615       51.951     4081.215     3674.147     2698.912        0.669        0.523       48.493       42.102        0.754      347.808       27.044      862.945
05/02/2014  12:59:00     -162.996     -190.430      -10.554      103.717      114.236       49.754    10757.225    13049.913     2475.421        4.461        1.314      250.662       44.791        0.032      347.065       25.763      862.953
05/02/2014  13:00:00      -60.267     -167.525      -11.909      206.823      128.407       71.987    42775.684    16488.437     5182.193        4.813        3.222      178.035       78.114        0.193      347.253       26.084      862.939
05/02/2014  13:01:00      -44.313      -95.693        0.326      106.411       79.909       73.625    11323.368     6385.407     5420.690        1.712        1.156      105.455       55.033        0.272      347.241       26.067      862.970
05/02/2014  13:02:00      -74.637     -108.365      -15.740       48.869      113.120       33.535     2388.144    12796.228     1124.613        1.693        0.815      131.582       23.158        0.031      346.940       25.548      862.969
05/02/2014  13:03:00        7.677     -155.440      -29.283      105.137       82.893       50.231    11053.703     6871.172     2523.201        2.276        1.022      155.629       45.808        0.087      347.260       26.098      862.955
05/02/2014  13:04:00       56.658       -4.543       49.784       47.424       89.124       56.973     2249.012     7943.034     3245.938        0.957        0.672       56.840       61.957        1.188      347.463       26.451      862.929
05/02/2014  13:05:00      -44.069      -57.487        1.044       63.941      110.923       36.472     4088.489    12303.961     1330.180        1.148        0.886       72.435       31.470        0.189      347.024       25.694      862.910
05/02/2014  13:06:00      -29.476      -36.457       37.313      102.290      116.406       63.831    10463.259    13550.305     4074.421        1.583        1.404       46.882       53.554        1.305      347.746       26.939      862.886
05/02/2014  13:07:00      -93.802     -186.620       -6.393       57.323       93.381       33.549     3285.898     8720.099     1125.547        2.840        0.657      208.868       35.685        0.029      346.902       25.481      862.904
05/02/2014  13:08:00      -18.787     -102.141       14.954       36.212      105.215       29.614     1311.290    11070.215      876.975        1.213        0.663      103.855       38.931        0.141      347.597       26.681      862.865
05/02/2014  13:09:00     -117.479      -25.608       -9.761      111.045       90.447       49.029    12331.017     8180.710     2403.857        1.873        1.146      120.238       44.056        0.134      347.643       26.761      862.846
05/02/2014  13:10:00     -279.234      -79.750      -11.391       69.711       62.368       37.782     4859.629     3889.736     1427.479        4.732        0.509      290.399       38.896        0.018      347.009       25.664      862.826
05/02/2014  13:11:00      -88.595      -35.898        6.695       94.650       31.931       34.066     8958.602     1019.583     1160.473        1.016        0.557       95.591       41.697        0.190      347.392       26.328      862.793
05/02/2014  13:12:00      -95.587      -24.099        0.599       88.498       84.287       35.880     7831.809     7104.229     1287.353        1.297        0.811       98.578       46.200        0.220      347.795       27.022      862.754
05/02/2014  13:13:00      -31.217      -25.248        7.180       64.924       55.863       36.008     4215.112     3120.621     1296.608        0.515        0.432       40.149       24.505        0.373      347.914       27.230      862.726
05/02/2014  13:14:00      -16.114       28.308       29.017       51.427       84.519       36.231     2644.686     7143.402     1312.652        0.650        0.555       32.573       33.562        1.062      348.226       27.768      862.710
05/02/2014  13:15:00      -72.927     -135.172        4.524       84.390       77.668       55.817     7121.680     6032.269     3115.489        1.994        0.813      153.590       40.155        0.068      347.814       27.055      862.690
05/02/2014  13:16:00     -142.503     -150.585       -2.982      118.730       76.333       54.222    14096.916     5826.679     2940.036        3.292        1.143      207.324       42.144        0.041      347.610       26.701      862.711
05/02/2014  13:17:00     -253.220     -142.605      -14.188      135.088       57.493       37.644    18248.681     3305.447     1417.058        5.381        1.149      290.614       34.566        0.014      347.478       26.473      862.722
05/02/2014  13:18:00     -305.414     -128.462       -7.979      131.496      140.887       65.813    17291.200    19849.070     4331.334        7.565        2.074      331.331       63.589        0.037      347.703       26.861      862.689
05/02/2014  13:19:00     -254.723      -33.596       -1.249      176.786       95.649       73.168    31253.137     9148.707     5353.500        5.588        2.288      256.929       79.964        0.097      347.819       27.063      862.691
05/02/2014  13:20:00     -308.288      -85.774      -13.970      137.624      112.962       66.245    18940.281    12760.525     4388.456        6.933        1.804      319.998       65.830        0.042      347.375       26.295      862.671
05/02/2014  13:21:00     -221.756     -140.820        2.591      113.584       75.098       51.704    12901.216     5639.644     2673.272        4.511        1.061      262.690       52.409        0.040      347.151       25.911      862.634
05/02/2014  13:22:00     -122.433     -102.229        1.865       90.470       99.922       52.726     8184.742     9984.393     2780.056        2.319        1.047      159.501       46.599        0.085      347.453       26.431      862.606
05/02/2014  13:23:00     -114.287     -277.671        9.076      146.770      180.560       91.822    21541.527    32601.796     8431.286        7.640        3.129      300.271       80.561        0.072      347.537       26.575      862.575
05/02/2014  13:24:00     -262.453     -265.903       16.946      358.147      223.527      104.828   128269.030    49964.174    10988.872       16.451        9.461      373.612      142.958        0.146      347.632       26.740      862.553
05/02/2014  13:25:00     -458.090     -293.079       -0.727      228.668      204.841      111.126    52289.010    41959.795    12349.085       20.115        5.330      543.821      123.601        0.052      347.346       26.246      862.531
05/02/2014  13:26:00     -260.805      -61.820        2.360      209.643      147.612       73.615    43950.389    21789.219     5419.104        7.149        3.558      268.032       97.145        0.131      347.681       26.824      862.548
05/02/2014  13:27:00     -348.928     -208.481       20.981      275.911      156.263       95.480    76126.863    24418.097     9116.433       13.764        5.483      406.466      120.846        0.088      347.533       26.566      862.544
05/02/2014  13:28:00     -340.101     -173.982        7.870      266.956      165.461       84.482    71265.649    27377.306     7137.217       12.587        5.289      382.019      117.932        0.095      347.410       26.356      862.537
05/02/2014  13:29:00     -163.422      -42.268       -0.855       86.432       64.743       45.959     7470.497     4191.693     2112.239        2.113        0.689      168.799       42.013        0.062      347.688       26.837      862.521
05/02/2014  13:30:00     -397.480      -62.004      -29.121      191.909      144.665       56.514    36828.901    20927.923     3193.864       11.180        3.048      402.287       66.893        0.028      347.558       26.609      862.493
05/02/2014  13:31:00     -186.135      -39.253       39.130      206.551      128.936       81.956    42663.434    16624.591     6716.811        5.185        3.300      190.229      102.363        0.290      348.031       27.428      862.470
05/02/2014  13:32:00     -356.661     -131.447       -5.101      193.195      159.080       80.918    37324.439    25306.549     6547.702       10.683        3.459      380.112       88.732        0.054      347.670       26.805      862.455
05/02/2014  13:33:00     -481.052     -301.315       -0.386      252.048      210.879      110.754    63528.156    44469.768    12266.507       22.121        6.013      567.628      130.287        0.053      347.290       26.149      862.450
05/02/2014  13:34:00     -442.457     -309.618      -15.396      208.232      174.619      105.564    43360.433    30491.761    11143.808       18.842        4.250      540.029      112.821        0.044      347.254       26.085      862.468
05/02/2014  13:35:00     -412.639     -339.307       -8.328      277.841      200.874      100.733    77195.723    40350.176    10147.054       20.656        6.385      534.228      131.480        0.061      347.286       26.142      862.432
05/02/2014  13:36:00     -350.311     -211.844       16.633      224.497      148.484       96.604    50398.687    22047.422     9332.390       12.481        4.089      409.385      106.172        0.067      347.187       25.972      862.440
05/02/2014  13:37:00     -591.321     -275.254      -16.220      255.775      188.826      102.543    65420.950    35655.136    10515.138       26.862        5.580      652.247      102.006        0.024      347.300       26.166      862.414
05/02/2014  13:38:00     -457.179     -311.369       -4.327      240.487      208.688      103.726    57833.929    43550.836    10759.155       20.904        5.607      553.140      111.542        0.041      347.283       26.136      862.378
05/02/2014  13:39:00     -461.428     -188.520      -22.261      196.459      171.379       91.438    38596.204    29370.664     8360.865       16.262        3.816      498.453       94.896        0.036      347.601       26.685      862.409
05/02/2014  13:40:00     -570.944     -125.132      -18.366      310.685      192.050       94.856    96525.315    36883.223     8997.569       24.216        7.120      584.496      121.803        0.043      347.538       26.577      862.350
05/02/2014  13:41:00     -645.626     -162.096      -10.036      291.085      168.890      111.580    84730.637    28523.903    12450.189       28.443        6.285      665.664      138.511        0.043      347.430       26.390      862.386
05/02/2014  13:42:00     -329.326      -67.998       -4.391      199.964      145.799       83.325    39985.473    21257.268     6942.998        9.063        3.409      336.273       98.095        0.085      347.659       26.786      862.439
05/02/2014  13:43:00     -594.371      -43.095      -30.086      224.543      161.855       85.463    50419.701    26197.128     7303.923       21.996        4.196      595.932      105.526        0.031      347.465       26.451      862.398
05/02/2014  13:44:00     -671.840     -272.022      -47.735      297.496      168.631      100.222    88503.966    28436.250    10044.432       32.729        6.349      724.821      104.840        0.021      347.348       26.249      862.371
05/02/2014  13:45:00     -508.093     -184.744       -7.753      306.138      279.164      120.248    93720.640    77932.561    14459.617       23.919        9.306      540.637      151.836        0.079      347.651       26.771      862.311
05/02/2014  13:46:00     -428.316      -37.394        1.836      296.118      223.763       97.124    87686.050    50069.981     9433.107       16.599        7.359      429.945       91.611        0.045      347.598       26.681      862.379
05/02/2014  13:47:00     -571.543     -184.337      -29.607      272.054      252.338      111.565    74013.577    63674.375    12446.751       25.580        7.507      600.534      139.749        0.054      347.335       26.225      862.357
05/02/2014  13:48:00     -394.566     -150.394       -7.011      257.267      220.098      113.994    66186.097    48443.002    12994.624       15.296        6.381      422.257      124.354        0.087      347.359       26.269      862.346
05/02/2014  13:49:00     -428.382     -143.455       -3.371      211.134      199.700      103.469    44577.411    39880.063    10705.851       14.961        4.758      451.763       96.012        0.045      347.264       26.105      862.313
05/02/2014  13:50:00     -493.665     -126.788      -21.090      185.793      197.678       98.644    34519.156    39076.543     9730.721       17.176        4.166      509.686       86.170        0.029      347.426       26.381      862.331
05/02/2014  13:51:00     -353.792     -302.412      -23.736      175.027      142.694       89.816    30634.521    20361.651     8066.827       13.811        2.953      465.427       88.579        0.036      347.559       26.613      862.346
05/02/2014  13:52:00     -272.357     -197.656        8.520      208.682      133.508       85.502    43548.339    17824.302     7310.668        9.099        3.434      336.521      101.124        0.090      347.564       26.621      862.344
05/02/2014  13:53:00     -430.338     -219.849      -14.706      159.912      205.384       93.626    25571.813    42182.667     8765.789       15.512        3.826      483.244       73.547        0.023      347.348       26.249      862.353
05/02/2014  13:54:00     -288.053     -149.339        8.476      181.268      181.077       91.874    32858.222    32788.948     8440.802        8.970        3.704      324.464       95.982        0.088      347.406       26.348      862.317
05/02/2014  13:55:00     -372.305     -131.496      -12.914      233.662      131.454       81.715    54597.930    17280.282     6677.342       11.730        3.928      394.845       96.124        0.059      347.315       26.191      862.305
05/02/2014  13:56:00     -328.868     -123.209      -21.650      196.988      155.659       80.770    38804.277    24229.748     6523.777        9.667        3.478      351.190       82.555        0.055      347.372       26.290      862.271
05/02/2014  13:57:00     -321.294     -120.047       -6.591      265.424      193.877      101.910    70449.794    37588.350    10385.560       11.803        5.921      342.988      129.476        0.143      347.518       26.542      862.258
05/02/2014  13:58:00     -142.222     -124.933       22.076      207.695      149.957      104.676    43137.338    22487.083    10957.030        5.644        3.829      189.302      105.062        0.308      347.682       26.826      862.248
05/02/2014  13:59:00     -209.552      -68.749       10.681      218.454      138.610       71.156    47722.364    19212.792     5063.166        6.036        3.600      220.541      101.929        0.214      347.816       27.057      862.262
05/02/2014  14:00:00     -331.305      -81.105       -9.068      150.954      131.043       77.017    22786.979    17172.209     5931.639        8.115        2.295      341.087       72.445        0.045      347.569       26.630      862.254
05/02/2014  14:01:00     -535.339      -27.761      -46.313      200.618      145.998       80.455    40247.581    21315.280     6473.050       17.876        3.402      536.059       78.946        0.022      347.385       26.313      862.212
05/02/2014  14:02:00     -478.332     -106.679      -16.287      230.313      166.932       92.473    53044.232    27866.215     8551.168       16.494        4.473      490.084      120.388        0.060      347.287       26.144      862.181
05/02/2014  14:03:00     -533.120       -2.203      -40.862      183.124      170.732       73.048    33534.379    29149.305     5336.053       17.694        3.401      533.125       61.871        0.013      347.538       26.577      862.198
05/02/2014  14:04:00     -276.764      -38.663       -2.987      181.178      132.013       77.179    32825.383    17427.348     5956.619        6.714        2.810      279.452       85.612        0.094      347.915       27.228      862.207
05/02/2014  14:05:00     -207.366     -156.650       -0.887      171.091      156.720       79.135    29271.973    24561.033     6262.359        6.381        3.005      259.885      100.916        0.151      347.847       27.108      862.162
05/02/2014  14:06:00     -353.106     -175.325        0.820      263.173      188.008      107.731    69260.233    35347.008    11605.910       13.580        5.811      394.237      142.714        0.131      347.757       26.955      862.161
05/02/2014  14:07:00     -426.359     -127.959      -10.009      298.509      205.443       97.192    89107.661    42206.641     9446.222       16.948        7.038      445.146      129.194        0.084      347.653       26.776      862.189
05/02/2014  14:08:00     -640.464     -292.460      -20.201      222.761      188.385       94.806    49622.275    35488.848     8988.256       29.510        4.705      704.079       90.248        0.016      347.256       26.089      862.159
05/02/2014  14:09:00     -532.411     -211.676       -7.907      272.097      249.143      117.159    74036.752    62072.049    13726.128       23.905        7.492      572.947      119.519        0.044      347.311       26.184      862.163
05/02/2014  14:10:00     -298.063     -108.501       19.980      265.593      180.948      112.460    70539.650    32742.044    12647.334       10.845        5.796      317.197      144.260        0.207      347.415       26.365      862.167
05/02/2014  14:11:00     -460.914     -183.716      -12.186      243.113      191.018       99.494    59104.111    36487.924     9899.077       17.590        5.275      496.179      104.977        0.045      347.262       26.099      862.136
05/02/2014  14:12:00     -466.426     -124.825      -10.781      232.020      174.456      104.887    53833.380    30434.750    11001.354       16.424        4.763      482.840       99.774        0.043      347.240       26.063      862.153
05/02/2014  14:13:00     -468.635     -226.523       -5.823      241.818      190.659       98.634    58475.750    36350.737     9728.720       18.774        5.228      520.511      101.702        0.038      347.203       25.999      862.153
05/02/2014  14:14:00     -348.875      -88.437       -8.259      238.832      180.923      110.229    57040.945    32733.021    12150.409       11.574        5.096      359.910      115.725        0.103      347.298       26.162      862.139
05/02/2014  14:15:00     -515.911       16.109      -37.627      253.191      141.111       84.655    64105.493    19912.413     7166.387       17.949        4.559      516.163      107.113        0.043      347.461       26.443      862.128
05/02/2014  14:16:00     -492.068     -132.026       -9.209      191.705      166.706       89.581    36750.683    27790.845     8024.760       16.609        3.628      509.472       85.827        0.028      347.510       26.527      862.100
05/02/2014  14:17:00     -286.558      -56.211       -7.094      192.203      137.398       77.128    36941.976    18878.266     5948.727        7.353        3.088      292.019       87.314        0.089      347.688       26.835      862.098
05/02/2014  14:18:00     -274.457      -77.042       -6.321      160.932      122.556       69.578    25898.977    15019.864     4841.122        6.352        2.288      285.066       80.619        0.080      347.756       26.951      862.087
05/02/2014  14:19:00     -449.451     -242.062        3.357      274.783      244.224      120.789    75505.449    59645.193    14589.900       20.515        7.487      510.490      144.386        0.080      347.565       26.623      862.063
05/02/2014  14:20:00     -420.741     -183.717       -1.211      334.771      188.854      135.226   112071.759    35665.721    18286.001       18.837        8.301      459.103      166.238        0.131      347.353       26.258      862.051
05/02/2014  14:21:00     -327.743     -204.774       -7.998      198.798      153.673       92.081    39520.536    23615.449     8478.910       11.050        3.581      386.456       99.365        0.066      347.538       26.577      862.039
05/02/2014  14:22:00     -358.416     -185.321        9.164      229.201      203.633      107.261    52533.326    41466.484    11504.854       13.418        5.275      403.492      119.832        0.088      347.533       26.568      862.026
05/02/2014  14:23:00     -494.513     -218.008      -31.269      195.294      161.470       84.871    38139.785    26072.567     7203.048       18.222        3.571      540.436       71.902        0.018      347.454       26.431      862.043
05/02/2014  14:24:00     -421.927      -84.715        0.316      258.061      170.579       95.135    66595.322    29097.031     9050.615       14.495        5.237      430.347      115.850        0.072      347.528       26.559      861.995
05/02/2014  14:25:00     -578.906     -110.548      -22.656      299.459      206.163      120.280    89675.769    42503.018    14467.206       24.723        7.332      589.367      139.809        0.056      347.439       26.406      861.973
05/02/2014  14:26:00     -503.955     -134.682      -10.241      208.396      176.998       89.705    43428.769    31328.201     8046.960       17.749        4.140      521.641       89.992        0.030      347.447       26.419      862.017
05/02/2014  14:27:00     -264.792     -192.994       -1.345      190.193      144.309       81.248    36173.466    20825.005     6601.300        8.547        3.180      327.661       81.755        0.062      347.517       26.541      862.038
05/02/2014  14:28:00     -400.481     -155.009        2.203      210.331      185.869       92.736    44239.211    34547.226     8600.027       13.588        4.369      429.433      111.531        0.067      347.322       26.203      862.023
05/02/2014  14:29:00     -267.697     -130.928      -20.747      190.792      201.167       87.126    36401.714    40467.971     7590.886        8.683        4.223      298.000       91.790        0.095      347.444       26.415      862.038
05/02/2014  14:30:00     -200.281     -169.022       18.052      201.363      155.535       97.822    40546.874    24191.074     9569.169        7.164        3.715      262.070      107.880        0.169      347.348       26.249      862.028
05/02/2014  14:31:00     -205.267      -96.695        9.037      200.075      151.399       89.137    40030.083    22921.618     7945.333        6.122        3.545      226.902       99.618        0.193      347.507       26.524      862.003
05/02/2014  14:32:00     -570.895     -184.424      -21.268      258.790      212.249      106.640    66972.406    45049.518    11372.061       24.187        6.170      599.944      121.112        0.041      347.248       26.075      862.023
05/02/2014  14:33:00     -597.933     -257.022      -26.287      248.234      191.721      116.743    61619.897    36756.903    13629.034       26.812        5.600      650.833      104.072        0.026      347.020       25.683      862.018
05/02/2014  14:34:00     -362.071     -178.688      -10.435      273.306      185.455       90.019    74696.409    34393.469     8103.476       14.014        5.860      403.763       98.877        0.060      347.269       26.112      862.017
05/02/2014  14:35:00     -438.647      -98.529      -21.233      182.375      201.191       84.305    33260.673    40477.965     7107.342       14.169        4.042      449.577       85.285        0.036      347.228       26.042      862.022
05/02/2014  14:36:00     -284.833     -156.918        4.419      219.062      176.885       93.334    47988.229    31288.438     8711.176        9.686        4.399      325.197      108.812        0.112      347.320       26.201      862.001
05/02/2014  14:37:00     -462.486      -77.819      -28.674      212.593      154.198       88.834    45195.580    23776.999     7891.484       14.880        3.843      468.988       91.590        0.038      347.330       26.218      862.012
05/02/2014  14:38:00     -479.391       19.293      -27.787      208.678      154.898       91.158    43546.712    23993.342     8309.843       15.339        3.792      479.779       95.474        0.040      347.313       26.187      861.997
05/02/2014  14:39:00     -403.885      -46.841       -2.179      188.573      158.290       84.654    35559.760    25055.802     7166.219       11.654        3.389      406.592       83.665        0.042      347.161       25.927      861.940
05/02/2014  14:40:00     -341.682      -93.584        4.776      174.430      142.831       76.557    30425.938    20400.584     5861.014        9.110        2.834      354.266       90.158        0.065      347.300       26.166      861.962
05/02/2014  14:41:00     -220.332     -125.943        6.120      170.848      157.487       82.765    29188.921    24802.228     6850.013        6.263        3.042      253.787       94.333        0.138      347.235       26.054      861.929
05/02/2014  14:42:00     -344.571      -23.815       -6.986      190.023      139.105       75.328    36108.567    19350.151     5674.297        9.023        3.057      345.393       95.089        0.076      347.347       26.248      861.922
05/02/2014  14:43:00     -190.178      -60.011        4.553      177.591      139.006       87.432    31538.640    19322.599     7644.428        4.914        2.925      199.422       78.444        0.155      347.510       26.529      861.927
05/02/2014  14:44:00     -652.416      -95.132      -39.845      262.248      185.161       91.664    68773.871    34284.617     8402.250       27.385        5.573      659.315       92.842        0.020      347.202       25.997      861.958
05/02/2014  14:45:00     -543.292     -108.447      -33.796      268.519      203.185       95.688    72102.493    41284.299     9156.209       21.528        6.127      554.010      113.808        0.042      347.100       25.821      861.968
05/02/2014  14:46:00     -526.191     -117.830      -25.412      227.830      210.858       92.747    51906.481    44461.301     8601.946       19.817        5.248      539.222       98.791        0.034      347.004       25.657      861.914
05/02/2014  14:47:00     -325.487      -42.029       11.309      235.147      172.575       86.304    55293.932    29782.117     7448.376       10.016        4.626      328.190      108.330        0.109      347.286       26.143      861.935
05/02/2014  14:48:00     -546.765     -117.283       -3.643      208.415      195.473      102.982    43436.884    38209.842    10605.243       20.247        4.613      559.202      104.706        0.035      347.034       25.707      861.921
05/02/2014  14:49:00     -462.530      -46.261      -39.066      174.005      191.083       79.593    30277.606    36512.631     6335.101       14.535        3.656      464.837       69.492        0.022      347.153       25.912      861.927
05/02/2014  14:50:00     -523.328     -153.598       16.791      307.474      164.620      100.466    94540.503    27099.804    10093.372       21.471        6.587      545.404      148.290        0.074      347.246       26.074      861.902
05/02/2014  14:51:00     -333.227     -138.876       -1.527      210.095      174.262       87.961    44139.990    30367.259     7737.057       10.627        4.112      361.008       97.296        0.073      347.427       26.385      861.902
05/02/2014  14:52:00     -423.875     -295.938       13.187      273.104      191.111      116.759    74585.547    36523.238    13632.681       19.606        6.237      516.961      125.827        0.059      347.290       26.149      861.875
05/02/2014  14:53:00     -471.942     -171.109       -6.608      309.480      257.002      118.737    95778.173    66049.896    14098.570       21.395        8.796      502.003      131.503        0.069      347.182       25.962      861.905
05/02/2014  14:54:00     -464.432     -104.769      -15.725      186.834      162.759       72.843    34907.114    26490.378     5306.100       14.680        3.335      476.103       65.480        0.019      347.300       26.166      861.906
05/02/2014  14:55:00     -284.115      -55.521       12.679      269.571      182.405       89.744    72668.301    33271.661     8054.006        9.896        5.700      289.489      108.030        0.139      347.448       26.422      861.892
05/02/2014  14:56:00     -468.705      -46.460      -12.115      223.214      198.680      113.426    49824.542    39473.711    12865.360       16.206        5.108      471.002      105.691        0.050      347.306       26.176      861.877
05/02/2014  14:57:00     -466.169      -45.182      -17.565      254.336      200.504       95.217    64686.906    40201.720     9066.188       16.679        5.698      468.353      116.600        0.062      347.305       26.175      861.818
05/02/2014  14:58:00     -684.236     -253.048      -19.753      237.558      212.833      108.679    56433.907    45298.011    11811.173       32.305        5.677      729.529      113.210        0.024      347.035       25.709      861.772
05/02/2014  14:59:00     -353.225     -314.996       -1.027      279.885      178.648      107.572    78335.520    31915.253    11571.816       17.288        6.091      473.277      139.615        0.087      347.161       25.927      861.824
05/02/2014  15:00:00     -259.920     -168.847       -4.713      190.435      152.805       80.459    36265.490    23349.452     6473.650        8.108        3.304      309.948       68.568        0.049      347.117       25.850      861.779
05/02/2014  15:01:00     -404.879     -190.044      -12.009      248.021      176.669      108.218    61514.540    31211.822    11711.066       15.229        5.222      447.262      123.799        0.077      347.306       26.176      861.763
05/02/2014  15:02:00     -472.082     -251.959      -30.039      335.704      179.920       87.679   112697.436    32371.168     7687.607       21.997        7.638      535.112      109.316        0.042      347.097       25.816      861.775
05/02/2014  15:03:00     -312.237     -115.863      -14.149      140.918      109.593       77.141    19858.006    12010.535     5950.714        7.446        1.891      333.041       73.338        0.048      347.281       26.134      861.753
05/02/2014  15:04:00     -408.350     -225.923      -11.701      274.000      215.862       94.732    75076.236    46596.196     8974.175       17.426        6.532      466.681      128.549        0.076      347.321       26.202      861.743
05/02/2014  15:05:00     -440.776     -256.969       -8.135      280.715      227.686      117.950    78801.005    51840.928    13912.307       20.244        7.228      510.212      128.507        0.063      347.048       25.731      861.724
05/02/2014  15:06:00     -429.014      -43.236       -4.515      201.789      190.425       90.323    40718.927    36261.563     8158.294       13.552        4.257      431.187       92.802        0.046      347.054       25.741      861.718
05/02/2014  15:07:00     -290.037     -194.365        4.096      254.293      172.268      100.540    64664.781    29676.143    10108.257       11.316        5.222      349.140      125.244        0.129      347.057       25.748      861.743
05/02/2014  15:08:00     -349.942     -215.505       14.398      221.586      143.402       91.609    49100.283    20564.252     8392.167       12.357        3.903      410.977      108.991        0.070      347.031       25.702      861.739
05/02/2014  15:09:00     -485.039     -283.720      -16.683      279.659      189.759       98.249    78209.053    36008.452     9652.893       21.993        6.194      561.925      120.119        0.046      347.088       25.801      861.744
05/02/2014  15:10:00     -448.061     -234.736        5.850      287.718      247.341      113.793    82781.535    61177.493    12948.809       20.637        7.845      505.825      128.353        0.064      346.981       25.615      861.687
05/02/2014  15:11:00     -405.375     -214.743        7.844      236.717      202.314      108.412    56034.783    40930.895    11753.126       15.959        5.436      458.741      120.616        0.069      346.954       25.569      861.688
05/02/2014  15:12:00     -621.144     -113.821      -26.595      299.042      193.159      108.395    89426.350    37310.258    11749.486       26.896        6.924      631.487      130.019        0.042      346.881       25.443      861.666
05/02/2014  15:13:00     -477.165     -117.222      -13.222      241.208      169.251       94.383    58181.065    28646.055     8908.146       16.865        4.787      491.353      109.664        0.050      347.003       25.655      861.631
05/02/2014  15:14:00     -387.419     -220.704       14.545      254.689      233.573      119.940    64866.711    54556.562    14385.545       16.639        6.690      445.875      125.553        0.079      346.936       25.539      861.630
05/02/2014  15:15:00     -424.350     -254.295       -0.266      262.032      181.032      114.011    68660.561    32772.623    12998.427       17.956        5.722      494.711      127.849        0.067      347.008       25.664      861.626
05/02/2014  15:16:00     -216.876     -169.358       27.015      238.275      179.170      113.657    56774.939    32102.001    12917.883        8.910        5.090      275.168      122.803        0.199      347.156       25.918      861.620
05/02/2014  15:17:00     -467.463     -300.409      -17.112      223.478      208.006      100.496    49942.196    43266.410    10099.489       20.616        5.165      555.668      111.702        0.040      347.041       25.720      861.607
05/02/2014  15:18:00     -619.791     -259.678      -26.202      241.017      200.435       98.837    58089.315    40174.085     9768.822       28.012        5.402      671.992      112.064        0.028      346.932       25.531      861.599
05/02/2014  15:19:00     -397.067     -128.237      -15.433      209.860      176.460      103.965    44041.256    31137.988    10808.751       13.015        4.299      417.261      106.095        0.065      347.095       25.812      861.595
05/02/2014  15:20:00     -559.264      -91.074      -35.361      341.444      245.576      116.627   116584.282    60307.412    13601.869       25.637        9.525      566.631      128.173        0.051      346.976       25.608      861.599
05/02/2014  15:21:00     -437.046      -75.944       -2.080      248.237      185.302      111.608    61621.523    34336.945    12456.379       15.258        5.421      443.595      119.755        0.073      347.222       26.032      861.568
05/02/2014  15:22:00     -653.045     -316.856      -28.624      269.578      241.190      125.850    72672.500    58172.439    15838.285       33.715        7.334      725.855      133.013        0.034      346.921       25.513      861.576
05/02/2014  15:23:00     -361.965     -237.737       -3.300      190.119      178.313      101.526    36145.110    31795.646    10307.601       13.288        3.912      433.056       97.294        0.050      347.110       25.838      861.584
05/02/2014  15:24:00     -471.629     -167.294      -14.527      270.231      186.941       93.757    73024.748    34947.014     8790.457       18.367        5.838      500.420      115.663        0.053      347.083       25.793      861.562
05/02/2014  15:25:00     -549.252     -144.982      -29.104      219.962      170.770       91.282    48383.395    29162.347     8332.396       20.469        4.294      568.064       74.929        0.017      347.072       25.772      861.498
05/02/2014  15:26:00     -613.759     -186.330      -27.920      258.051      187.380      117.957    66590.576    35111.122    13913.919       26.388        5.781      641.420      122.426        0.036      347.145       25.899      861.501
05/02/2014  15:27:00     -671.257     -180.335      -24.386      287.118      213.293       99.548    82436.805    45493.913     9909.740       31.074        6.892      695.059      124.220        0.032      347.094       25.809      861.511
05/02/2014  15:28:00     -439.853      -87.171        8.965      279.715      203.923      120.564    78240.443    41584.764    14535.651       16.773        6.718      448.407      155.796        0.121      347.166       25.935      861.496
05/02/2014  15:29:00     -541.239     -110.661      -25.306      303.831      167.933      107.783    92313.028    28201.515    11617.087       21.895        6.607      552.436      136.204        0.061      347.132       25.876      861.498
05/02/2014  15:30:00     -596.841     -124.654      -35.342      229.627      188.116       98.120    52728.633    35387.589     9627.454       23.536        4.887      609.720      106.068        0.030      347.201       25.995      861.524
05/02/2014  15:31:00     -580.151     -206.267        8.513      330.810      252.015      129.165   109435.210    63511.452    16683.469       28.437        9.482      615.728      157.581        0.065      347.068       25.765      861.496
05/02/2014  15:32:00     -505.951     -187.138       -9.172      351.839      324.327      133.185   123790.902   105187.910    17738.258       26.886       12.336      539.450      171.867        0.102      346.995       25.640      861.495
05/02/2014  15:33:00     -568.749     -317.046        4.650      410.368      268.576      163.595   168401.716    72133.031    26763.377       34.560       13.365      651.148      197.786        0.092      346.887       25.454      861.436
05/02/2014  15:34:00     -536.868     -384.963      -25.194      310.539      223.652      138.881    96434.774    50020.090    19287.898       30.137        8.287      660.624      161.179        0.060      346.850       25.391      861.497
05/02/2014  15:35:00     -575.900     -279.493      -11.516      244.360      231.271      109.663    59711.937    53486.503    12025.994       26.754        6.261      640.139      117.246        0.034      346.944       25.553      861.506
05/02/2014  15:36:00     -457.619     -147.955      -15.495      258.667      195.274      105.108    66908.610    38132.113    11047.648       17.379        5.804      480.943      116.385        0.059      346.964       25.586      861.525
05/02/2014  15:37:00     -462.518     -245.316      -20.531      222.219      199.680      101.735    49381.365    39872.160    10349.960       18.704        4.980      523.549       99.649        0.036      346.924       25.518      861.529
05/02/2014  15:38:00     -382.963     -184.775      -16.998      197.876      152.515       81.689    39154.850    23260.900     6673.084       12.508        3.454      425.208       85.786        0.041      347.014       25.673      861.539
05/02/2014  15:39:00     -457.569     -302.739        2.927      227.747      192.809      106.303    51868.548    37175.419    11300.373       20.067        5.017      548.653      115.361        0.044      346.958       25.577      861.520
05/02/2014  15:40:00     -313.150     -146.602       -9.656      230.089      168.001       93.783    52940.978    28224.334     8795.193       10.479        4.498      345.767      106.357        0.095      347.035       25.710      861.563
05/02/2014  15:41:00     -182.284      -88.953       18.354      192.993      171.807      111.446    37246.264    29517.490    12420.314        6.031        3.959      202.831      114.532        0.319      347.193       25.983      861.540
05/02/2014  15:42:00     -610.976      -23.733      -41.560      197.088      212.575      107.575    38843.576    45187.954    11572.394       23.557        4.780      611.436      102.642        0.028      347.032       25.704      861.551
05/02/2014  15:43:00     -291.403     -110.131        6.582      223.046      170.644       84.696    49749.609    29119.392     7173.386        9.155        4.302      311.520       93.324        0.090      347.126       25.865      861.580
05/02/2014  15:44:00     -321.946     -247.940       -5.421      214.828      149.028       92.153    46150.939    22209.327     8492.087       12.099        3.843      406.354       85.921        0.045      346.972       25.601      861.549
05/02/2014  15:45:00     -306.604     -100.676       -9.310      220.168      170.923       96.030    48473.866    29214.702     9221.807        9.555        4.346      322.710       96.641        0.090      347.183       25.965      861.551
05/02/2014  15:46:00     -541.906      -90.223      -24.443      277.161      230.659      113.991    76818.415    53203.377    12994.057       22.268        7.151      549.365      152.278        0.077      347.016       25.677      861.536
05/02/2014  15:47:00     -513.923     -149.181      -17.955      260.673      232.474      107.111    67950.470    54044.215    11472.737       21.005        6.673      535.137      116.394        0.047      346.920       25.510      861.528
05/02/2014  15:48:00     -475.551     -138.003      -12.119      331.224      226.929      111.843   109709.307    51496.879    12508.809       20.949        8.686      495.170      131.471        0.070      346.952       25.565      861.525
05/02/2014  15:49:00     -541.551     -324.820      -18.557      286.153      242.390      126.501    81883.258    58752.970    16002.620       27.785        7.832      631.495      150.701        0.057      346.760       25.236      861.510
05/02/2014  15:50:00     -551.315     -294.599      -30.605      288.469      273.109      140.176    83214.567    74588.531    19649.449       28.453        8.873      625.089      140.215        0.050      346.748       25.215      861.500
05/02/2014  15:51:00     -271.273     -159.573       36.635      273.576      208.516      114.972    74843.712    43479.014    13218.568       11.594        6.577      314.726      124.981        0.158      346.864       25.415      861.487
05/02/2014  15:52:00     -454.002     -290.137      -13.827      237.889      202.522      113.568    56591.037    41015.108    12897.717       20.047        5.525      538.793      108.975        0.041      346.853       25.396      861.519
05/02/2014  15:53:00     -507.820     -318.333       -5.520      263.005      220.371      137.443    69171.813    48563.300    18890.580       24.791        6.831      599.347      136.762        0.052      346.796       25.298      861.511
05/02/2014  15:54:00     -450.449     -235.132      -12.916      225.099      222.228       97.947    50669.447    49385.393     9593.695       18.398        5.482      508.126      101.549        0.040      346.853       25.397      861.542
05/02/2014  15:55:00     -540.171     -315.527       -9.495      286.285      236.767      117.269    81958.961    56058.484    13752.017       27.157        7.588      625.573      137.738        0.048      346.742       25.206      861.528
05/02/2014  15:56:00     -310.183     -218.844       -0.447      195.301      176.849       90.369    38142.299    31275.590     8166.535       11.083        3.879      379.613       93.439        0.061      346.859       25.407      861.569
05/02/2014  15:57:00     -509.908     -230.064      -10.423      251.020      192.625      131.299    63011.113    37104.544    17239.540       21.518        5.868      559.406      130.194        0.054      346.782       25.274      861.558
05/02/2014  15:58:00     -764.981     -264.015      -49.582      259.731      255.674      123.480    67460.229    65369.371    15247.295       40.269        7.404      809.258      113.428        0.020      346.625       25.004      861.540
05/02/2014  15:59:00     -580.543     -181.305      -27.972      357.768      228.141      109.671   127998.270    52048.277    12027.744       28.134        9.604      608.196      136.007        0.050      346.685       25.108      861.528
05/02/2014  16:00:00     -447.999     -215.456       11.591      267.082      227.034      109.344    71332.903    51544.600    11956.071       19.102        6.742      497.116      118.828        0.057      346.724       25.174      861.540
05/02/2014  16:01:00     -455.635     -140.852      -19.564      273.158      199.663       88.927    74615.199    39865.331     7908.006       17.508        6.119      476.909       98.506        0.043      346.707       25.145      861.552
05/02/2014  16:02:00     -636.888     -238.871      -35.632      273.289      250.643      123.465    74686.871    62821.687    15243.576       30.832        7.638      680.210      140.957        0.043      346.647       25.042      861.518
05/02/2014  16:03:00     -418.658     -280.723       -0.882      239.508      187.450      105.004    57364.156    35137.366    11025.855       17.878        5.176      504.063      125.488        0.062      346.741       25.204      861.502
05/02/2014  16:04:00     -433.551     -132.648      -33.732      260.415      235.910       97.130    67816.126    55653.710     9434.314       16.978        6.645      453.389      105.039        0.054      346.796       25.298      861.517
05/02/2014  16:05:00     -519.449     -292.814      -15.955      274.821      216.582      113.114    75526.491    46907.769    12794.827       24.550        6.761      596.294      108.926        0.033      346.701       25.134      861.498
05/02/2014  16:06:00     -502.096     -258.672      -23.064      239.088      154.013      111.463    57163.119    23720.041    12423.975       20.641        4.665      564.812      106.196        0.035      346.638       25.027      861.511
05/02/2014  16:07:00     -540.950     -236.222      -18.205      255.369      193.990       98.059    65213.573    37632.102     9615.520       23.059        5.623      590.278      118.278        0.040      346.616       24.988      861.495
05/02/2014  16:08:00     -492.282     -336.832        3.021      311.758      218.471      142.682    97192.935    47729.628    20358.157       26.051        8.264      596.487      167.548        0.079      346.646       25.039      861.453
05/02/2014  16:09:00     -548.985     -375.840      -11.586      264.763      248.324      150.491    70099.481    61664.629    22647.633       29.856        7.721      665.312      158.055        0.056      346.628       25.008      861.449
05/02/2014  16:10:00     -550.790     -314.377      -34.072      260.465      262.328      118.112    67841.966    68815.964    13950.445       27.696        7.530      634.195      119.274        0.035      346.595       24.951      861.486
05/02/2014  16:11:00     -514.136     -147.334       -8.714      373.262      190.249      129.200   139324.466    36194.848    16692.633       23.913        9.611      534.830      160.202        0.090      346.628       25.008      861.479
05/02/2014  16:12:00     -321.898     -253.579        9.371      223.583      188.476      117.688    49989.230    35523.278    13850.522       13.367        4.968      409.781      131.930        0.104      346.693       25.122      861.483
05/02/2014  16:13:00     -533.476     -295.317       -8.735      332.236      243.059      109.341   110380.694    59077.637    11955.375       27.661        9.071      609.761      144.885        0.056      346.599       24.959      861.466
05/02/2014  16:14:00     -607.190     -414.489       -4.828      287.597      224.413      148.643    82711.774    50361.164    22094.776       34.780        7.758      735.174      132.847        0.033      346.436       24.679      861.441
05/02/2014  16:15:00     -521.745     -299.887      -30.559      277.844      177.633      111.539    77197.272    31553.467    12440.931       24.211        6.060      601.789      129.459        0.046      346.482       24.758      861.392
05/02/2014  16:16:00     -471.508     -325.606       -1.056      284.795      198.187      111.714    81108.304    39278.207    12479.990       23.058        6.643      573.009      138.771        0.059      346.560       24.890      861.403
05/02/2014  16:17:00     -399.737     -175.982       13.765      256.656      243.283      124.142    65872.435    59186.459    15411.131       16.568        7.024      436.760      139.480        0.102      346.663       25.069      861.414
05/02/2014  16:18:00     -576.461     -239.677       -1.690      280.630      230.714      116.404    78753.118    53229.124    13549.829       26.761        7.277      624.301      133.592        0.046      346.529       24.838      861.419
05/02/2014  16:19:00     -413.026     -282.014       -9.512      256.185      193.093      113.722    65630.984    37284.986    12932.604       18.301        5.792      500.122      129.085        0.067      346.540       24.858      861.439
05/02/2014  16:20:00     -461.561     -215.030       -2.606      274.801      193.308      107.593    75515.594    37367.820    11576.148       19.185        6.223      509.192      134.314        0.070      346.544       24.864      861.447
05/02/2014  16:21:00     -330.167     -157.743       11.889      255.913      190.915       94.597    65491.490    36448.656     8948.612       12.244        5.544      365.914      113.191        0.096      346.626       25.007      861.438
05/02/2014  16:22:00     -266.521      -96.423        0.887      205.702      159.707       91.646    42313.492    25506.309     8399.017        7.826        3.811      283.427       95.188        0.113      346.697       25.128      861.437
05/02/2014  16:23:00     -406.097     -124.647      -17.854      206.145      162.041       85.822    42495.904    26257.411     7365.330       12.843        3.806      424.796       89.791        0.045      346.727       25.179      861.455
05/02/2014  16:24:00     -432.353      -51.328       -9.611      279.303      195.775       94.385    78010.135    38327.836     8908.486       15.743        6.262      435.389      101.684        0.055      346.603       24.965      861.454
05/02/2014  16:25:00     -460.951      -29.285       20.388      318.099      232.832      131.318   101186.711    54210.581    17244.333       19.316        8.632      461.880      165.276        0.128      346.568       24.905      861.420
05/02/2014  16:26:00     -496.788      -34.632       -4.586      203.826      207.409      114.719    41545.193    43018.441    13160.534       17.285        4.886      497.994      112.460        0.051      346.538       24.854      861.431
05/02/2014  16:27:00     -473.289     -285.473      -15.044      282.123      234.093      115.662    79593.487    54799.484    13377.637       22.672        7.389      552.718      152.939        0.077      346.509       24.803      861.378
05/02/2014  16:28:00     -525.820     -303.368      -41.587      273.236      227.435      117.355    74657.786    51726.619    13772.215       25.517        7.008      607.058      120.857        0.040      346.463       24.726      861.359
05/02/2014  16:29:00     -517.215     -265.826      -23.337      250.571      182.978       92.699    62785.966    33480.817     8593.118       22.177        5.243      581.528      100.595        0.030      346.491       24.773      861.344
05/02/2014  16:30:00     -597.148     -169.459      -49.028      241.679      204.229      103.237    58408.934    41709.680    10657.777       24.922        5.539      620.727      122.393        0.039      346.477       24.750      861.352
05/02/2014  16:31:00     -283.095     -179.838       33.529      284.150      214.908      124.517    80740.976    46185.445    15504.365       12.799        7.122      335.387      161.961        0.233      346.546       24.867      861.307
05/02/2014  16:32:00     -637.684     -342.988      -28.817      266.365      269.274      122.904    70950.173    72508.355    15105.372       34.181        7.928      724.073      126.881        0.031      346.402       24.621      861.327
05/02/2014  16:33:00     -411.648      -97.638       -1.304      260.338      218.766      117.028    67775.732    47858.367    13695.602       15.413        6.466      423.069      144.511        0.117      346.459       24.720      861.296
05/02/2014  16:34:00     -266.754      -77.015       13.090      265.663      173.084      112.388    70576.602    29957.953    12630.962        9.519        5.658      277.649      131.194        0.223      346.522       24.828      861.257
05/02/2014  16:35:00     -226.950      -23.273       24.604      202.553      137.020       99.008    41027.694    18774.535     9802.612        6.112        3.480      228.140       94.510        0.172      346.539       24.855      861.280
05/02/2014  16:36:00     -523.852     -150.335      -25.827      269.401      213.150       99.865    72576.661    45433.014     9972.943       21.281        6.399      544.997      120.333        0.049      346.509       24.804      861.285
05/02/2014  16:37:00     -637.922      -66.818      -29.533      285.002      236.317      110.200    81226.040    55845.601    12144.035       28.072        7.461      641.412      124.158        0.037      346.461       24.722      861.291
05/02/2014  16:38:00     -636.004     -272.548      -31.993      314.822      198.051      115.662    99112.818    39224.065    13377.697       31.573        7.586      691.942      141.057        0.042      346.368       24.562      861.294
05/02/2014  16:39:00     -472.857      -50.701       -4.126      285.483      169.753      105.430    81500.454    28816.186    11115.417       17.378        6.072      475.567      130.408        0.075      346.442       24.687      861.298
05/02/2014  16:40:00     -338.413     -168.406       -1.232      226.212      180.216       99.623    51171.791    32477.788     9924.728       11.821        4.679      378.000      104.584        0.077      346.493       24.777      861.316
05/02/2014  16:41:00     -227.030     -196.895       18.474      226.256      216.671      103.391    51191.694    46946.227    10689.785        9.972        5.441      300.517      117.325        0.152      346.524       24.829      861.295
05/02/2014  16:42:00     -506.625     -225.622      -29.476      232.109      173.136       92.319    53874.726    29976.058     8522.861       20.039        4.619      554.594       98.376        0.031      346.477       24.749      861.263
05/02/2014  16:43:00     -551.022     -198.576      -16.708      235.928      193.422      107.879    55661.918    37411.951    11637.984       22.400        5.236      585.711      100.594        0.029      346.420       24.651      861.233
05/02/2014  16:44:00     -434.161     -167.550       -8.848      239.432      196.334      104.095    57327.829    38547.151    10835.688       16.166        5.336      465.369      122.439        0.069      346.446       24.695      861.220
05/02/2014  16:45:00     -361.789      -43.307      -13.525      150.892      135.674       82.754    22768.510    18407.380     6848.207        9.048        2.401      364.372       86.831        0.057      346.491       24.774      861.217
05/02/2014  16:46:00     -496.190     -154.437       -3.304      305.425      245.363      124.154    93284.666    60202.825    15414.255       21.945        8.445      519.668      167.263        0.104      346.417       24.645      861.189
05/02/2014  16:47:00     -559.248     -258.475      -39.835      235.470      194.008       95.442    55446.118    37639.105     9109.255       24.165        5.110      616.091      103.838        0.028      346.383       24.587      861.159
05/02/2014  16:48:00     -465.379     -240.652      -24.029      292.805      256.793       99.506    85734.967    65942.826     9901.390       21.829        8.079      523.919      118.055        0.051      346.383       24.588      861.156
05/02/2014  16:49:00     -522.718     -270.232       -9.534      304.195      171.982      110.725    92534.631    29577.809    12260.094       24.033        6.719      588.438      145.051        0.061      346.428       24.666      861.105
05/02/2014  16:50:00     -451.516     -160.959       -9.427      261.090      163.090      101.729    68168.136    26598.391    10348.716       16.747        5.256      479.348      118.458        0.061      346.472       24.742      861.122
05/02/2014  16:51:00     -398.861     -199.223        7.554      282.861      211.352      110.899    80010.196    44669.484    12298.572       16.788        6.849      445.847      148.175        0.110      346.414       24.642      861.099
05/02/2014  16:52:00     -452.112      -98.742      -13.002      282.379      182.778       98.006    79737.958    33407.955     9605.174       16.851        6.138      462.770      110.211        0.057      346.365       24.556      861.086
05/02/2014  16:53:00     -487.447     -118.185      -14.733      248.661      225.492      105.819    61832.073    50846.727    11197.759       18.781        6.194      501.570      118.662        0.056      346.336       24.507      861.079
05/02/2014  16:54:00     -586.537     -396.481       -8.475      326.309      257.902      140.079   106477.451    66513.482    19622.222       34.692        9.631      707.971      159.164        0.051      346.290       24.427      861.048
05/02/2014  16:55:00     -660.949     -234.697      -53.577      259.786      287.932      119.146    67488.770    82904.934    14195.816       32.967        8.229      701.382      114.980        0.027      346.244       24.348      861.096
05/02/2014  16:56:00     -491.319     -256.103      -29.591      292.095      284.595      112.941    85319.290    80994.559    12755.665       24.343        8.953      554.061      140.811        0.065      346.228       24.321      861.084
05/02/2014  16:57:00     -435.629     -265.344      -12.858      259.599      221.478      131.605    67391.759    49052.331    17319.865       19.703        6.688      510.079      128.711        0.064      346.201       24.273      861.098
05/02/2014  16:58:00     -413.129     -264.911       -4.173      285.825      203.619      116.715    81695.842    41460.538    13622.312       18.880        6.839      490.768      119.928        0.060      346.209       24.288      861.098
05/02/2014  16:59:00     -558.083      -79.503      -25.995      299.745      241.093      109.790    89846.978    58125.716    12053.851       23.921        8.001      563.717      113.775        0.041      346.212       24.293      861.098
05/02/2014  17:00:00     -320.955      -34.743       -1.700      163.435      154.951       75.987    26711.042    24009.863     5774.077        8.035        2.825      322.830       81.552        0.064      346.420       24.650      861.136
05/02/2014  17:01:00     -264.681      -16.409       15.337      196.380      155.966       96.287    38565.269    24325.411     9271.173        7.135        3.608      265.189       87.189        0.108      346.512       24.809      861.119
05/02/2014  17:02:00     -346.565     -135.667       11.913      226.712      194.811      110.594    51398.405    37951.343    12230.990       12.010        5.079      372.173      122.353        0.108      346.512       24.808      861.120
05/02/2014  17:03:00     -592.893     -428.150      -29.706      280.136      231.780      130.990    78475.978    53721.959    17158.339       34.251        7.468      731.324      126.926        0.030      346.354       24.537      861.079
05/02/2014  17:04:00     -413.861     -141.417       -5.916      277.639      196.493      121.232    77083.560    38609.339    14697.258       16.083        6.520      437.355      133.540        0.093      346.546       24.867      861.077
05/02/2014  17:05:00     -718.488     -452.747      -21.922      413.362      318.056      157.571   170868.225   101159.307    24828.638       50.921       14.843      849.238      179.705        0.045      346.305       24.452      861.066
05/02/2014  17:06:00     -444.519     -375.026       -5.807      275.894      242.761      138.989    76117.431    58933.135    19318.032       24.629        7.718      581.585      152.590        0.069      346.350       24.531      861.104
05/02/2014  17:07:00     -494.794     -341.050      -16.393      270.295      161.888      116.513    73059.465    26207.731    13575.241       23.710        5.642      600.946      126.206        0.044      346.416       24.642      861.106
05/02/2014  17:08:00     -520.063     -125.917      -37.380      205.238      183.104       85.199    42122.797    33527.063     7258.939       18.530        4.145      535.090       79.487        0.022      346.552       24.878      861.105
05/02/2014  17:09:00     -373.541     -263.519        2.520      300.896      255.480      133.849    90538.567    65270.271    17915.673       19.132        8.686      457.138      143.902        0.099      346.612       24.981      861.111
05/02/2014  17:10:00     -592.386     -217.193      -12.189      332.775      205.480      127.779   110739.002    42222.203    16327.506       28.373        8.464      630.947      149.729        0.056      346.444       24.693      861.139
05/02/2014  17:11:00     -305.000     -130.885       10.609      264.524      194.908      122.418    69973.210    37988.985    14986.287       11.658        6.147      331.898      147.913        0.199      346.511       24.806      861.109
05/02/2014  17:12:00     -360.653     -125.103       -8.628      245.160      202.594      104.102    60103.295    41044.176    10837.253       12.887        5.599      381.734      109.726        0.083      346.516       24.817      861.102
05/02/2014  17:13:00     -348.752     -169.206        2.941      231.706      281.975      123.880    53687.600    79509.934    15346.311       14.938        7.427      387.632      129.951        0.112      346.499       24.787      861.086
05/02/2014  17:14:00     -364.016     -278.020       -6.004      237.930      204.275       99.818    56610.858    41728.443     9963.702       15.905        5.415      458.043      127.744        0.078      346.542       24.862      861.108
05/02/2014  17:15:00     -600.672     -333.372      -17.784      278.990      225.370      120.069    77835.253    50791.490    14416.658       30.762        7.152      686.981      135.458        0.039      346.339       24.512      861.105
05/02/2014  17:16:00     -594.712     -373.092       -6.179      282.227      219.554      129.907    79652.162    48204.146    16875.801       31.880        7.237      702.054      146.274        0.043      346.345       24.523      861.068
05/02/2014  17:17:00     -461.585     -259.048       -3.780      314.267      246.874      144.469    98763.514    60946.576    20871.373       23.034        9.029      529.308      155.463        0.086      346.415       24.642      861.040
05/02/2014  17:18:00     -255.306     -112.933        7.948      277.669      207.344      115.085    77100.196    42991.459    13244.563       10.564        6.667      279.168      119.512        0.183      346.447       24.699      861.092
05/02/2014  17:19:00     -294.388     -135.710        2.960      229.978      179.249       92.383    52889.778    32130.041     8534.646        9.930        4.678      324.163      113.879        0.123      346.351       24.533      861.100
05/02/2014  17:20:00     -353.131     -166.630      -17.246      250.505      177.562       93.476    62752.826    31528.325     8737.672       12.787        5.151      390.471      127.273        0.106      346.337       24.510      861.100
05/02/2014  17:21:00     -409.842     -219.366       18.631      263.865      201.587      113.203    69624.936    40637.208    12814.922       16.973        6.154      464.857      130.953        0.079      346.408       24.630      861.120
05/02/2014  17:22:00     -563.061     -334.797      -12.444      270.976      173.740      106.101    73427.939    30185.758    11257.420       27.205        5.744      655.078      114.378        0.030      346.368       24.561      861.093
05/02/2014  17:23:00     -712.152     -384.131      -42.307      313.163      225.470      123.462    98070.880    50836.920    15242.874       41.030        8.208      809.146      141.693        0.031      346.304       24.452      861.062
05/02/2014  17:24:00     -602.841     -330.193       -9.176      279.333      214.768      114.486    78026.767    46125.508    13107.028       30.487        6.863      687.346      129.449        0.035      346.385       24.593      861.090
05/02/2014  17:25:00     -404.758     -225.374      -11.410      281.028      195.227      121.208    78976.478    38113.644    14691.437       17.324        6.589      463.274      142.192        0.094      346.435       24.677      861.074
05/02/2014  17:26:00     -382.953      -78.915      -14.943      265.190      153.034       87.664    70325.570    23419.359     7684.954       12.725        5.071      391.000       95.577        0.060      346.576       24.920      861.099
05/02/2014  17:27:00     -296.669     -167.847       17.780      236.295      178.735      105.937    55835.193    31946.062    11222.643       10.773        4.950      340.860      120.744        0.125      346.576       24.919      861.085
05/02/2014  17:28:00     -451.836     -268.916       -5.604      280.880      207.799      122.162    78893.783    43180.370    14923.615       20.672        6.850      525.806      146.812        0.078      346.465       24.729      861.045
05/02/2014  17:29:00     -251.358      -87.182       25.209      165.258      203.249       91.168    27310.052    41310.240     8311.583        7.416        3.847      266.048      101.052        0.144      346.626       25.006      861.062
05/02/2014  17:30:00     -366.565     -253.562      -11.333      214.069      151.235       82.165    45825.645    22871.897     6751.037       13.711        3.772      445.717       88.159        0.039      346.574       24.915      861.070
05/02/2014  17:31:00     -534.759     -314.169      -21.248      283.531      242.299      112.224    80389.580    58708.735    12594.148       26.838        7.585      620.217      121.010        0.038      346.420       24.651      861.056
05/02/2014  17:32:00     -668.140     -410.818      -24.782      341.720      260.175      128.642   116772.298    67690.847    16548.814       40.836       10.051      784.335      171.332        0.048      346.320       24.479      861.059
05/02/2014  17:33:00     -489.432     -282.025       -9.380      288.942      231.710      134.158    83487.299    53689.457    17998.402       23.714        7.759      564.873      156.371        0.077      346.389       24.597      861.042
05/02/2014  17:34:00     -506.067     -176.032        4.763      285.744      227.531      119.870    81649.447    51770.355    14368.869       21.742        7.389      535.809      139.098        0.067      346.374       24.570      861.034
05/02/2014  17:35:00     -680.053     -253.017      -17.327      335.747      261.576      126.169   112726.067    68421.821    15918.537       36.189        9.853      725.596      164.168        0.051      346.204       24.278      861.024
05/02/2014  17:36:00     -359.934     -178.840        6.688      231.453      183.838      104.197    53570.331    33796.247    10856.980       12.988        4.911      401.916      109.843        0.075      346.351       24.532      861.037
05/02/2014  17:37:00     -476.396     -320.930      -20.420      287.509      237.654      109.611    82661.551    56479.476    12014.535       24.073        7.558      574.412      121.834        0.045      346.249       24.358      861.064
05/02/2014  17:38:00     -647.633     -363.060      -21.177      337.426      219.646      123.821   113855.985    48244.258    15331.568       36.452        8.872      742.456      141.289        0.036      346.156       24.196      860.999
05/02/2014  17:39:00     -491.397     -290.027      -11.317      243.167      175.550      116.278    59129.986    30817.909    13520.555       21.457        5.173      570.602      116.737        0.042      346.186       24.249      861.044
05/02/2014  17:40:00     -476.244     -261.840       -6.746      241.333      274.585      119.536    58241.803    75397.016    14288.962       22.164        7.396      543.479      140.874        0.067      346.167       24.216      861.020
05/02/2014  17:41:00     -521.056     -256.984      -10.738      277.084      207.150      133.908    76775.472    42910.973    17931.227       23.761        6.881      580.982      138.344        0.057      346.122       24.140      860.988
05/02/2014  17:42:00     -498.479     -376.175       -8.287      272.970      214.410      120.241    74512.403    45971.767    14457.949       26.247        6.747      624.491      133.034        0.045      346.130       24.152      860.943
05/02/2014  17:43:00     -465.536     -333.557      -11.245      252.442      225.334      111.217    63726.881    50775.435    12369.326       22.747        6.344      572.699      134.366        0.055      346.175       24.228      860.923
05/02/2014  17:44:00     -321.033     -202.718        5.953      230.319      220.081      112.015    53046.687    48435.758    12547.417       12.909        5.701      379.680      133.564        0.124      346.254       24.366      860.946
05/02/2014  17:45:00     -565.829     -178.566      -29.021      358.538      274.922      126.222   128549.624    75581.968    15932.019       28.643       11.003      593.336      137.023        0.053      346.164       24.209      860.914
05/02/2014  17:46:00     -425.500     -259.542       -6.121      266.234      218.707      124.933    70880.429    47832.607    15608.200       19.136        6.716      498.410      151.986        0.093      346.191       24.257      860.888
05/02/2014  17:47:00     -613.969     -388.119      -13.721      340.194      233.544      144.648   115732.112    54542.971    20923.117       35.945        9.560      726.357      173.889        0.057      346.134       24.159      860.823
05/02/2014  17:48:00     -570.560     -243.632      -32.107      365.999      216.955      124.872   133955.138    47069.457    15593.087       29.123        9.831      620.399      178.336        0.083      346.137       24.164      860.872
05/02/2014  17:49:00     -463.592     -261.417        0.248      304.977      241.667      122.179    93011.096    58403.035    14927.772       22.477        8.317      532.218      136.638        0.066      346.116       24.129      860.899
05/02/2014  17:50:00     -519.293     -293.192      -20.847      250.271      263.938      131.410    62635.409    69663.469    17268.501       25.278        7.478      596.345      149.538        0.063      346.007       23.943      860.840
05/02/2014  17:51:00     -478.868     -354.727       -7.070      280.938      190.304      126.239    78926.133    36215.501    15936.328       24.311        6.554      595.941      142.945        0.058      346.029       23.979      860.803
05/02/2014  17:52:00     -535.861     -227.077      -24.933      278.038      182.840       97.597    77305.394    33430.462     9525.123       22.977        6.013      581.989      121.169        0.043      346.092       24.088      860.818
05/02/2014  17:53:00     -310.624     -222.160       20.672      310.515      234.764      145.382    96419.437    55114.362    21135.811       15.944        8.633      381.893      176.228        0.213      346.094       24.090      860.798
05/02/2014  17:54:00     -525.570     -402.677       19.811      280.626      242.436      153.144    78751.115    58775.246    23453.166       29.984        8.049      662.097      151.711        0.053      345.944       23.832      860.774
05/02/2014  17:55:00     -720.423     -317.112      -31.369      303.665      298.496      130.101    92212.602    89100.090    16926.324       40.936        9.912      787.127      106.653        0.018      345.908       23.772      860.744
05/02/2014  17:56:00     -436.859     -206.131       -5.857      209.785      202.073      107.962    44009.760    40833.433    11655.801       16.492        4.825      483.048       98.597        0.042      345.956       23.853      860.733
05/02/2014  17:57:00     -524.541     -350.433      -25.465      302.136      229.385      130.328    91285.992    52617.602    16985.369       27.971        8.044      630.830      141.188        0.050      345.877       23.718      860.727
05/02/2014  17:58:00     -466.712     -282.646      -28.749      221.721      203.109       96.426    49160.224    41253.342     9297.885       19.910        4.986      545.627      110.371        0.041      345.919       23.791      860.733
05/02/2014  17:59:00     -560.190     -445.831      -29.300      309.083      275.548      151.340    95532.583    75926.627    22903.700       35.386        9.718      715.946      180.955        0.064      345.848       23.667      860.705
05/02/2014  18:00:00     -508.944     -292.004        6.310      355.948      225.315      145.501   126699.295    50766.861    21170.483       27.144        9.932      586.763      171.731        0.086      345.871       23.707      860.694
05/02/2014  18:01:00     -599.435     -433.181      -49.600      316.610      221.715      127.126   100241.967    49157.662    16161.127       35.746        8.278      739.572      131.127        0.031      345.816       23.614      860.689
05/02/2014  18:02:00     -413.765     -333.137       -3.147      339.037      254.814      149.055   114945.866    64930.156    22217.290       24.210       10.105      531.208      166.836        0.099      345.808       23.599      860.696
05/02/2014  18:03:00     -582.610     -344.269      -14.786      260.548      199.816      130.341    67885.033    39926.289    16988.683       29.146        6.240      676.724      138.458        0.042      345.797       23.579      860.679
05/02/2014  18:04:00     -436.758     -185.170      -12.175      271.945      275.010      119.069    73953.919    75630.343    14177.508       19.445        8.188      474.389      146.963        0.096      345.786       23.564      860.684
05/02/2014  18:05:00     -591.054     -180.028       -2.663      371.768      295.643      145.448   138211.390    87404.874    21155.008       31.422       12.339      617.863      176.677        0.082      345.748       23.499      860.619
05/02/2014  18:06:00     -392.962     -300.132        4.686      332.777      223.539      136.231   110740.611    49969.806    18558.912       21.186        8.963      494.468      157.399        0.101      345.755       23.509      860.620
05/02/2014  18:07:00     -485.070     -241.684      -10.249      298.159      205.680      127.424    88898.925    42304.411    16236.903       22.060        7.372      541.945      145.151        0.072      345.735       23.475      860.621
05/02/2014  18:08:00     -499.501      -96.661      -10.942      276.210      224.047      125.135    76291.786    50196.875    15658.770       20.053        7.107      508.767      139.741        0.075      345.741       23.486      860.633
05/02/2014  18:09:00     -362.267     -176.599        4.925      229.200      198.128      118.642    52532.485    39254.853    14075.927       13.413        5.293      403.019      120.260        0.089      345.739       23.482      860.620
05/02/2014  18:10:00     -448.971     -386.186        0.371      292.917      247.600      143.872    85800.175    61305.796    20699.116       25.923        8.390      592.212      157.862        0.071      345.703       23.420      860.615
05/02/2014  18:11:00     -495.742     -110.691       -1.969      298.189      239.104      119.859    88916.506    57170.612    14366.116       20.920        8.023      507.950      139.117        0.075      345.732       23.468      860.618
05/02/2014  18:12:00     -639.945     -340.533      -18.627      340.514      253.605      144.662   115949.553    64315.547    20927.053       36.348       10.060      724.909      166.209        0.053      345.648       23.325      860.661
05/02/2014  18:13:00     -556.101     -291.675      -13.351      307.136      270.170      128.366    94332.427    72991.714    16477.944       28.911        9.190      627.951      144.712        0.053      345.656       23.338      860.679
05/02/2014  18:14:00     -384.128     -239.614        4.146      275.991      189.937      109.185    76171.008    36076.132    11921.424       16.455        6.208      452.735      118.544        0.069      345.686       23.389      860.729
05/02/2014  18:15:00     -476.777     -276.069       -9.073      307.740      246.323      127.527    94703.946    60674.869    16263.037       23.759        8.582      550.936      159.130        0.083      345.651       23.330      860.712
05/02/2014  18:16:00     -617.864     -299.573      -25.206      312.145      253.847      142.444    97434.579    64438.218    20290.389       32.711        9.108      686.659      165.491        0.058      345.605       23.252      860.699
05/02/2014  18:17:00     -671.534     -389.251      -23.206      267.510      197.021      104.080    71561.578    38817.159    10832.586       36.209        6.061      776.193      114.100        0.022      345.609       23.258      860.681
05/02/2014  18:18:00     -442.608     -204.432       -9.170      237.302      209.787      105.944    56312.376    44010.582    11224.083       17.464        5.577      487.539      123.407        0.064      345.613       23.266      860.667
05/02/2014  18:19:00     -575.905     -190.447      -25.161      228.463      269.467      111.896    52195.337    72612.298    12520.778       25.292        6.866      606.577      119.274        0.039      345.614       23.265      860.671
05/02/2014  18:20:00     -422.481     -237.001        1.730      216.849      187.796      120.315    47023.651    35267.320    14475.637       16.569        4.838      484.417      112.592        0.054      345.604       23.248      860.680
05/02/2014  18:21:00     -534.019     -369.354       -9.578      263.789      229.432      114.720    69584.758    52639.196    13160.648       27.851        6.769      649.306      122.290        0.035      345.596       23.233      860.692
05/02/2014  18:22:00     -668.011     -319.704      -26.799      328.005      220.966      136.884   107587.283    48826.102    18737.161       36.212        8.758      740.574      153.813        0.043      345.528       23.119      860.707
05/02/2014  18:23:00     -566.651     -230.869      -22.254      303.253      263.072      129.727    91962.146    69206.780    16829.018       27.641        8.900      611.877      114.113        0.035      345.522       23.108      860.716
05/02/2014  18:24:00     -367.859     -152.235       -0.756      237.768      208.451      111.620    56533.635    43451.905    12458.989       13.545        5.622      398.116      110.844        0.078      345.524       23.113      860.768
05/02/2014  18:25:00     -352.551     -146.473        6.174      253.908      176.211      123.186    64469.153    31050.361    15174.892       12.822        5.535      381.767      138.092        0.131      345.538       23.136      860.797
05/02/2014  18:26:00     -423.221     -249.632       -0.490      277.640      262.012      125.215    77083.853    68650.392    15678.881       20.139        8.071      491.357      140.626        0.082      345.501       23.072      860.801
05/02/2014  18:27:00     -703.916     -323.606      -38.553      288.791      242.464      141.993    83400.049    58788.563    20162.030       38.200        8.118      774.738      148.582        0.037      345.457       22.997      860.785
05/02/2014  18:28:00     -495.103     -144.226      -17.002      233.967      181.083       96.662    54740.475    32791.132     9343.595       18.153        4.844      515.682       84.957        0.027      345.481       23.037      860.828
05/02/2014  18:29:00     -561.384     -325.099      -17.737      253.113      243.531      119.593    64066.097    59307.346    14302.451       27.939        6.884      648.723      142.436        0.048      345.467       23.014      860.823
05/02/2014  18:30:00     -415.530     -181.536       -8.599      277.041      209.705      119.777    76751.684    43976.394    14346.624       17.036        6.754      453.454      129.856        0.082      345.456       22.996      860.806
05/02/2014  18:31:00     -585.728     -354.373       -4.223      355.373      301.618      135.858   126290.203    90973.394    18457.362       35.215       11.786      684.586      174.076        0.065      345.439       22.966      860.792
05/02/2014  18:32:00     -505.147     -321.467      -33.865      288.628      223.668      141.838    83306.273    50027.425    20118.040       25.653        7.673      598.761      159.611        0.071      345.423       22.939      860.807
05/02/2014  18:33:00     -479.619     -316.198       -8.472      258.829      178.075      108.098    66992.448    31710.814    11685.193       22.022        5.519      574.469      115.932        0.041      345.428       22.947      860.820
05/02/2014  18:34:00     -549.206     -366.504      -24.021      282.185      262.540      134.045    79628.138    68927.223    17968.196       30.149        8.326      660.267      137.970        0.044      345.387       22.878      860.793
05/02/2014  18:35:00     -649.735     -333.206      -32.245      236.815      241.105      110.626    56081.180    58131.383    12238.003       33.031        6.323      730.193      115.794        0.025      345.358       22.826      860.819
05/02/2014  18:36:00     -672.592     -341.083      -23.231      291.918      218.226      125.737    85216.316    47622.565    15809.879       35.892        7.432      754.134      149.691        0.039      345.332       22.782      860.844
05/02/2014  18:37:00     -479.846     -321.152      -12.640      286.379      215.208      121.358    82012.850    46314.296    14727.851       23.827        7.153      577.400      154.478        0.072      345.334       22.785      860.858
05/02/2014  18:38:00     -527.430     -225.981       -1.597      318.658      238.925      122.891   101543.093    57084.982    15102.268       25.146        8.687      573.803      130.110        0.051      345.326       22.773      860.894
05/02/2014  18:39:00     -576.418     -351.495      -27.815      261.657      257.032      110.772    68464.620    66065.206    12270.423       30.166        7.340      675.134      114.950        0.029      345.276       22.686      860.862
05/02/2014  18:40:00     -596.788     -304.366      -24.329      305.329      253.989      113.250    93225.758    64510.247    12825.580       30.994        8.528      669.921      145.057        0.047      345.274       22.684      860.857
05/02/2014  18:41:00     -404.148     -272.664        1.582      239.494      199.967      114.775    57357.467    39986.927    13173.254       17.408        5.526      487.525      137.017        0.079      345.290       22.710      860.857
05/02/2014  18:42:00     -605.053     -338.698      -28.309      289.907      220.234      108.849    84046.211    48502.948    11848.026       31.297        7.220      693.402      132.512        0.037      345.257       22.655      860.852
05/02/2014  18:43:00     -541.015     -269.397      -25.941      275.931      184.084      105.817    76137.799    33886.810    11197.152       24.356        6.061      604.377      125.616        0.043      345.230       22.608      860.869
05/02/2014  18:44:00     -472.388     -344.863      -17.485      296.080      246.506      132.912    87663.467    60765.422    17665.556       25.421        8.305      584.877      165.275        0.080      345.217       22.584      860.860
05/02/2014  18:45:00     -538.936     -215.881      -26.325      273.464      207.144      101.409    74782.517    42908.484    10283.801       23.284        6.399      580.566      118.134        0.041      345.175       22.513      860.898
05/02/2014  18:46:00     -480.808     -177.390       -6.845      254.032      165.925       88.219    64532.024    27531.042     7782.569       18.125        4.992      512.488      108.201        0.045      345.167       22.501      860.892
05/02/2014  18:47:00     -430.904     -269.149      -20.066      248.843      177.226      102.749    61922.628    31408.894    10557.257       18.119        5.194      508.055      118.557        0.054      345.155       22.480      860.885
05/02/2014  18:48:00     -412.907     -244.600       11.714      279.281      191.778      117.544    77997.858    36778.890    13816.571       17.950        6.430      479.918      136.919        0.081      345.130       22.436      860.847
05/02/2014  18:49:00     -352.803     -118.622      -18.584      148.591      135.186       68.027    22079.280    18275.377     4627.669        9.193        2.249      372.211       68.799        0.034      345.150       22.471      860.880
05/02/2014  18:50:00     -318.052     -170.600       18.440      277.641      192.375       89.831    77084.754    37008.141     8069.641       12.636        6.108      360.918      110.285        0.093      345.129       22.435      860.875
05/02/2014  18:51:00     -334.887     -235.312       15.350      291.291      247.549      131.523    84850.484    61280.415    17298.367       16.556        8.171      409.293      170.864        0.174      345.114       22.410      860.851
05/02/2014  18:52:00     -413.713     -153.745      -17.217      275.301      175.355      111.211    75790.438    30749.524    12367.997       15.698        5.945      441.357      125.884        0.081      345.080       22.351      860.861
05/02/2014  18:53:00     -515.187     -269.025      -22.520      296.488      212.553      122.842    87905.099    45178.629    15090.256       24.321        7.409      581.199      141.068        0.059      345.035       22.276      860.821
05/02/2014  18:54:00     -491.315     -221.734      -14.972      311.790      210.442      110.107    97213.297    44285.944    12123.487       22.217        7.681      539.033      142.178        0.070      345.034       22.274      860.819
05/02/2014  18:55:00     -471.514     -164.023        3.579      248.346      194.537      116.333    61675.737    37844.749    13533.483       18.112        5.653      499.228      120.192        0.058      345.006       22.225      860.817
05/02/2014  18:56:00     -431.843     -194.904      -16.320      221.296      232.335      109.752    48972.125    53979.637    12045.529       16.985        5.750      473.789      120.950        0.065      344.999       22.215      860.846
05/02/2014  18:57:00     -428.951     -206.665      -29.087      252.574      193.169      110.705    63793.605    37314.453    12255.517       17.044        5.668      476.140      105.397        0.049      344.988       22.194      860.836
05/02/2014  18:58:00     -630.658     -249.367      -19.641      313.393      206.399      114.294    98215.399    42600.647    13063.048       30.706        7.694      678.169      140.704        0.043      344.958       22.144      860.827
05/02/2014  18:59:00     -309.070     -130.219       21.425      288.384      212.330      133.586    83165.600    45084.072    17845.105       12.949        7.305      335.382      144.557        0.186      344.957       22.142      860.789
05/02/2014  19:00:00     -386.451     -302.882      -27.457      242.769      234.542      119.390    58936.765    55010.016    14254.042       18.499        6.410      491.001      137.584        0.079      344.940       22.112      860.798
05/02/2014  19:01:00     -451.839      -84.901       -1.312      264.323      196.542      106.342    69866.414    38628.773    11308.562       16.556        5.990      459.747      122.161        0.071      344.928       22.091      860.800
05/02/2014  19:02:00     -429.361     -245.056      -10.524      226.988      222.924      109.792    51523.539    49695.086    12054.235       17.887        5.664      494.372      109.488        0.049      344.922       22.080      860.802
05/02/2014  19:03:00     -579.147     -294.572       -3.149      308.656      253.378      113.708    95268.348    64200.632    12929.529       29.726        8.620      649.757      136.313        0.044      344.903       22.047      860.769
05/02/2014  19:04:00     -698.266     -296.928      -45.672      265.987      220.353      124.620    70748.925    48555.314    15530.256       35.630        6.742      758.777      136.450        0.032      344.870       21.993      860.773
05/02/2014  19:05:00     -456.919      -96.599       -6.922      238.652      180.278      100.181    56954.999    32500.247    10036.199       15.880        4.975      467.019      103.298        0.049      344.870       21.993      860.809
05/02/2014  19:06:00     -355.050     -149.087      -11.923      217.694      197.691       94.067    47390.617    39081.849     8848.662       12.186        4.766      385.081       94.500        0.060      344.869       21.992      860.808
05/02/2014  19:07:00     -486.665     -270.584       -8.760      285.555      171.313      105.148    81541.755    29348.080    11056.189       21.602        6.097      556.829       95.688        0.030      344.875       22.000      860.806
05/02/2014  19:08:00     -356.368     -186.869        0.203      182.677      137.348       96.005    33370.957    18864.481     9217.014       11.167        3.073      402.391      107.200        0.071      344.877       22.005      860.836
05/02/2014  19:09:00     -393.638      -43.040       -8.720      220.865      143.288       76.909    48781.406    20531.418     5914.979       11.604        3.761      395.984       86.983        0.048      344.837       21.935      860.831
05/02/2014  19:10:00     -406.117     -230.486      -21.373      192.381      179.435       91.969    37010.599    32196.764     8458.208       14.807        3.883      466.963       99.742        0.046      344.846       21.951      860.845
05/02/2014  19:11:00     -476.957     -212.158      -18.388      185.047      177.308       92.979    34242.286    31438.244     8645.168       17.357        3.716      522.014       92.288        0.031      344.819       21.906      860.823
05/02/2014  19:12:00     -422.362      -72.122       -7.677      207.458      150.442       88.591    43038.774    22632.767     7848.312       12.857        3.676      428.476       95.748        0.050      344.798       21.868      860.845
05/02/2014  19:13:00     -460.118     -314.142        3.937      287.906      201.569      110.239    82890.005    40629.969    12152.647       22.301        6.784      557.130      126.327        0.051      344.779       21.836      860.800
05/02/2014  19:14:00     -276.149     -191.128        5.571      184.286      156.984       81.441    33961.156    24644.014     6632.654        8.902        3.262      335.840       97.375        0.084      344.798       21.868      860.835
05/02/2014  19:15:00     -271.837     -219.069       -1.382      247.848      161.666      101.120    61428.761    26135.892    10225.292       10.982        4.889      349.123      106.601        0.093      344.763       21.807      860.819
05/02/2014  19:16:00     -359.481     -105.493        7.536      208.857      151.271       83.524    43621.189    22882.838     6976.241       10.693        3.674      374.641      101.601        0.074      344.754       21.794      860.850
05/02/2014  19:17:00     -436.640     -226.906      -13.557      244.711      214.855      103.764    59883.678    46162.582    10766.869       17.955        5.841      492.078      110.077        0.050      344.749       21.785      860.837
05/02/2014  19:18:00     -236.279      -64.523       16.524      201.721      150.602       77.579    40691.375    22680.925     6018.438        6.481        3.470      244.931       89.320        0.133      344.751       21.789      860.871
05/02/2014  19:19:00      -95.002      -44.544       41.290      150.431      105.797       62.584    22629.582    11192.964     3916.763        2.522        1.887      104.927       69.278        0.436      344.751       21.791      860.887
05/02/2014  19:20:00     -494.229     -236.654      -18.041      228.022      152.511       87.133    51994.191    23259.723     7592.199       19.170        4.142      547.967       95.381        0.030      344.719       21.733      860.865
05/02/2014  19:21:00     -320.611     -140.995       -6.580      181.325      164.498       87.726    32878.729    27059.483     7695.889        9.516        3.382      350.244      105.353        0.090      344.719       21.733      860.848
05/02/2014  19:22:00     -183.459     -159.604       13.439      189.166      145.300      106.509    35783.928    21112.101    11344.163        6.376        3.412      243.168      105.442        0.188      344.709       21.717      860.825
05/02/2014  19:23:00     -450.256      -45.083      -17.555      138.687      166.468       85.347    19234.109    27711.589     7284.125       12.964        2.711      452.507       73.452        0.026      344.688       21.680      860.805
05/02/2014  19:24:00     -249.172      -94.600       10.685      256.457      156.917      109.448    65770.429    24622.812    11978.782        8.674        5.119      266.526      115.454        0.188      344.684       21.673      860.791
05/02/2014  19:25:00     -521.899     -119.918      -31.178      174.330      159.186       88.604    30390.879    25340.274     7850.647       17.564        3.179      535.499       83.518        0.024      344.661       21.634      860.785
05/02/2014  19:26:00     -568.692     -159.998       -6.578      271.417      187.416       97.976    73667.059    35124.751     9599.358       23.370        5.920      590.770      115.247        0.038      344.633       21.585      860.812
05/02/2014  19:27:00     -406.503     -259.577      -17.224      180.878      155.914       81.586    32716.936    24309.148     6656.206       14.829        3.184      482.312       68.044        0.020      344.631       21.585      860.819
05/02/2014  19:28:00     -540.080     -155.497      -32.180      290.315      198.724      111.910    84282.812    39491.059    12523.834       22.657        6.815      562.019      125.352        0.050      344.608       21.543      860.830
05/02/2014  19:29:00     -370.333     -139.682        3.043      234.351      190.813      108.797    54920.470    36409.484    11836.679       12.990        5.158      395.800      113.172        0.082      344.591       21.515      860.893
05/02/2014  19:30:00     -312.810      -93.225        9.766      225.801      188.989      106.567    50985.997    35716.762    11356.624       10.233        4.903      326.406      102.737        0.099      344.573       21.483      860.922
05/02/2014  19:31:00     -198.407     -176.958       22.896      254.522      193.376      124.601    64781.453    37394.423    15525.323        9.443        5.885      265.856      147.636        0.308      344.553       21.451      860.962
05/02/2014  19:32:00     -463.996     -140.837      -30.323      244.107      165.489      104.399    59588.469    27386.667    10899.059       16.694        4.894      484.899      107.875        0.049      344.547       21.439      860.983
05/02/2014  19:33:00     -462.791     -121.522      -13.617      223.577      195.851       86.694    49986.836    38357.777     7515.869       16.248        4.793      478.480       96.889        0.041      344.515       21.386      860.995
05/02/2014  19:34:00     -301.454      -34.252        3.647      234.079      160.163      101.663    54792.773    25652.107    10335.365        9.140        4.539      303.394      117.702        0.151      344.506       21.370      861.002
05/02/2014  19:35:00     -344.371     -134.029        3.733      263.822      174.895       95.046    69601.870    30588.327     9033.680       12.287        5.461      369.534      116.129        0.099      344.500       21.361      860.988
05/02/2014  19:36:00     -388.968      -39.518       -2.527      186.805      122.220       78.864    34896.172    14937.659     6219.546       10.445        2.803      390.970       94.126        0.058      344.477       21.320      861.039
05/02/2014  19:37:00     -232.810      -31.574        6.828      261.488      113.989       82.497    68375.719    12993.598     6805.811        7.169        4.409      234.941       98.694        0.176      344.460       21.292      861.038
05/02/2014  19:38:00     -344.106      -26.605      -14.490      244.630      144.754       74.993    59843.630    20953.648     5623.922       10.286        4.321      345.133       96.703        0.079      344.434       21.246      861.046
05/02/2014  19:39:00     -272.727      -53.465       -5.069      169.258      159.956       82.735    28648.308    25585.771     6845.057        6.916        3.054      277.918       80.989        0.085      344.410       21.207      861.038
05/02/2014  19:40:00     -395.329     -143.723      -11.212      182.765      182.737       88.848    33402.947    33392.977     7893.987       12.586        3.734      420.644       84.695        0.041      344.394       21.179      861.032
05/02/2014  19:41:00     -620.148     -179.578      -27.256      214.229      143.228       93.316    45894.145    20514.351     8707.931       24.633        3.756      645.625       98.135        0.023      344.392       21.173      861.024
05/02/2014  19:42:00     -663.237     -149.021      -36.834      334.419      230.121      113.630   111835.921    52955.728    12911.714       32.054        8.885      679.772      155.584        0.052      344.390       21.171      861.024
05/02/2014  19:43:00     -628.942      -24.715      -22.506      260.631      191.938      115.962    67928.502    36840.301    13447.250       25.743        5.911      629.428      130.228        0.043      344.372       21.141      861.066
05/02/2014  19:44:00     -392.278     -108.216       -9.901      200.774      198.512       71.578    40310.142    39406.975     5123.371       12.525        4.242      406.931       61.270        0.023      344.378       21.152      861.087
05/02/2014  19:45:00     -269.143      -59.588       -9.021      141.693      146.693       72.777    20077.028    21518.833     5296.493        6.147        2.345      275.661       74.606        0.073      344.370       21.136      861.116
05/02/2014  19:46:00     -328.081     -150.962        3.828      242.816      151.284       91.050    58959.369    22886.864     8290.188       11.027        4.507      361.147      113.632        0.099      344.367       21.132      861.141
05/02/2014  19:47:00     -417.491     -119.616      -24.998      197.354      149.581       87.906    38948.468    22374.551     7727.514       12.913        3.453      434.289       59.500        0.019      344.354       21.109      861.168
05/02/2014  19:48:00     -306.074     -173.519       -2.713      233.818      172.173      100.780    54670.760    29643.447    10156.607       10.912        4.724      351.838      104.626        0.088      344.352       21.106      861.190
05/02/2014  19:49:00     -444.039     -156.570      -16.921      208.859      150.129       80.357    43622.277    22538.743     6457.170       14.728        3.631      470.834       89.630        0.036      344.331       21.072      861.202
05/02/2014  19:50:00     -462.768      -44.193       -3.553      216.630      176.758      101.998    46928.425    31243.566    10403.509       15.233        4.429      464.873      109.233        0.055      344.299       21.015      861.165
05/02/2014  19:51:00     -330.833      -80.479       16.477      262.533      163.927       91.516    68923.756    26872.211     8375.243       11.016        5.209      340.481      123.182        0.131      344.226       20.891      861.183
05/02/2014  19:52:00     -402.252      -30.311       -5.172      247.372      170.869       99.785    61192.786    29196.091     9957.002       13.153        5.017      403.392      122.027        0.092      344.278       20.980      861.193
05/02/2014  19:53:00     -259.390     -122.916        3.326      204.842      121.401       84.458    41960.425    14738.149     7133.219        7.310        3.192      287.039       98.765        0.118      344.286       20.992      861.200
05/02/2014  19:54:00     -450.780      -53.711      -26.054      279.198      134.628       77.311    77951.654    18124.681     5976.919       15.439        5.103      453.969       96.442        0.045      344.280       20.982      861.229
05/02/2014  19:55:00     -293.093      -68.204       -4.674      184.345      123.735       61.828    33983.052    15310.388     3822.713        7.184        2.656      300.924       82.938        0.076      344.231       20.900      861.227
05/02/2014  19:56:00     -361.101     -193.740      -17.908      198.076      173.955       79.885    39233.906    30260.181     6381.534       12.205        3.794      409.791       80.186        0.038      344.262       20.952      861.244
05/02/2014  19:57:00     -222.634      -72.349        5.554      192.735      156.010       95.207    37146.878    24339.230     9064.343        6.268        3.528      234.094      108.942        0.217      344.247       20.929      861.229
05/02/2014  19:58:00     -503.876     -159.997      -20.851      224.055      219.013      101.647    50200.460    47966.688    10332.131       19.419        5.425      528.668      113.787        0.046      344.265       20.958      861.257
05/02/2014  19:59:00     -266.850     -103.240        2.908      207.857      167.996      107.347    43204.440    28222.705    11523.324        8.240        4.148      286.125      100.195        0.123      344.253       20.938      861.263
05/02/2014  20:00:00     -384.822     -109.440      -20.798      319.217      190.127       78.434   101899.711    36148.293     6151.896       15.232        7.210      400.081       91.772        0.053      344.238       20.913      861.297
05/02/2014  20:01:00     -334.985     -147.047        1.048      208.008      131.393       88.988    43267.142    17264.025     7918.891       10.113        3.423      365.838      112.265        0.094      344.229       20.896      861.335
05/02/2014  20:02:00     -420.254     -203.153      -21.807      184.922      137.056       82.584    34196.212    18784.428     6820.161       13.907        2.990      466.781       82.730        0.031      344.236       20.908      861.363
05/02/2014  20:03:00     -392.714      -39.554      -27.083      181.467      123.047       69.947    32930.449    15140.597     4892.530       10.473        2.648      394.701       83.877        0.045      344.223       20.887      861.380
05/02/2014  20:04:00     -247.748     -124.743       -1.410      146.129      126.835       63.302    21353.789    16087.050     4007.126        5.919        2.072      277.381       66.321        0.057      344.193       20.834      861.411
05/02/2014  20:05:00     -240.021      -47.774        9.737      178.737      153.200       87.196    31946.984    23470.193     7603.128        6.149        3.151      244.729       97.111        0.157      344.153       20.767      861.413
05/02/2014  20:06:00     -164.181      -70.719        4.156      145.796      107.611       78.096    21256.541    11580.034     6098.984        3.545        1.947      178.764       74.161        0.172      344.161       20.781      861.451
05/02/2014  20:07:00     -332.319     -227.308      -16.409      181.453      199.493       77.905    32925.290    39797.316     6069.148       12.057        3.940      402.623       95.075        0.056      344.225       20.890      861.452
05/02/2014  20:08:00     -293.220      -92.469      -19.775      133.511       98.227       62.926    17825.213     9648.629     3959.701        6.317        1.572      307.455       63.568        0.043      344.183       20.816      861.443
05/02/2014  20:09:00     -191.071      -25.426       28.446      161.495      105.622       77.729    26080.608    11155.967     6041.785        4.061        2.164      192.755       69.741        0.131      344.134       20.734      861.441
05/02/2014  20:10:00     -548.627     -165.481      -31.179      206.335      177.905       82.072    42573.942    31650.331     6735.783       20.514        4.048      573.041       66.236        0.013      344.144       20.751      861.432
05/02/2014  20:11:00     -435.275     -145.717      -10.134      184.641      178.738       85.607    34092.188    31947.300     7328.629       14.207        3.668      459.018       82.884        0.033      344.142       20.749      861.438
05/02/2014  20:12:00     -574.844     -173.528      -11.096      212.414      192.125      104.559    45119.904    36911.947    10932.671       22.680        4.648      600.465      118.736        0.039      344.128       20.724      861.422
05/02/2014  20:13:00     -364.281      -66.654      -11.719      172.205      171.761       82.177    29654.552    29501.703     6753.061       10.158        3.295      370.329       81.207        0.048      344.114       20.700      861.437
05/02/2014  20:14:00     -328.136      -27.400        0.891      182.585      169.248       84.982    33337.290    28644.912     7221.858        8.880        3.460      329.278       96.908        0.087      344.046       20.585      861.446
05/02/2014  20:15:00     -423.170      -92.104       -0.491      169.945      134.842       78.852    28881.194    18182.386     6217.565       12.041        2.664      433.078       80.649        0.035      344.048       20.588      861.453
05/02/2014  20:16:00     -323.653      -46.365       -0.552      183.898      144.357       76.805    33818.625    20838.826     5899.025        8.372        3.028      326.957       85.503        0.068      344.008       20.519      861.430
05/02/2014  20:17:00     -488.080     -133.015      -28.155      171.340      166.415       83.206    29357.482    27694.017     6923.279       16.033        3.199      505.880       81.694        0.026      344.021       20.543      861.457
05/02/2014  20:18:00     -431.447      -39.119      -23.802      229.696      163.361       84.480    52760.064    26686.957     7136.927       13.740        4.329      433.216      101.411        0.055      344.030       20.557      861.462
05/02/2014  20:19:00     -429.176      -32.859      -25.946      229.007      164.081       91.475    52444.385    26922.666     8367.692       13.682        4.387      430.433       95.992        0.050      343.991       20.491      861.452
05/02/2014  20:20:00     -541.562      -67.369      -15.053      211.388      166.221       99.935    44684.917    27629.392     9986.969       19.016        4.115      545.736      101.164        0.034      344.011       20.524      861.481
05/02/2014  20:21:00     -452.190      -83.997       -4.645      177.879      107.839       73.761    31641.043    11629.180     5440.709       13.012        2.436      459.925       79.669        0.030      344.003       20.511      861.521
05/02/2014  20:22:00     -386.672     -113.086      -12.917      184.980      146.767       83.621    34217.713    21540.546     6992.525       11.260        3.138      402.869       89.754        0.050      343.996       20.499      861.498
05/02/2014  20:23:00     -485.399      -72.966      -31.233      141.381      149.112       71.398    19988.611    22234.525     5097.640       14.461        2.366      490.853       67.378        0.019      344.007       20.517      861.492
05/02/2014  20:24:00     -204.300      -85.689       10.181      205.719      116.545       81.090    42320.224    13582.696     6575.616        5.582        3.124      221.542       86.182        0.151      343.955       20.428      861.492
05/02/2014  20:25:00     -324.320      -51.686       -0.298      194.931      134.751       88.504    37998.047    18157.725     7832.924        8.591        3.199      328.413       93.324        0.081      343.961       20.438      861.523
05/02/2014  20:26:00     -327.665       -5.476        3.026      235.648      182.395       99.580    55529.978    33267.978     9916.207       10.304        4.936      327.711      114.283        0.122      343.930       20.386      861.539
05/02/2014  20:27:00     -306.830      -21.266       -2.062      180.068      145.587       76.153    32424.437    21195.694     5799.301        7.700        2.971      307.566       82.138        0.071      343.893       20.323      861.559
05/02/2014  20:28:00     -308.155      -70.629       11.585      205.400      210.478       90.624    42189.146    44301.025     8212.662        9.737        4.735      316.145      106.501        0.113      343.889       20.314      861.565
05/02/2014  20:29:00     -536.014     -121.090      -23.506      247.464      146.325       91.448    61238.521    21410.900     8362.810       19.675        4.551      549.522      102.270        0.035      343.966       20.447      861.568
05/02/2014  20:30:00     -465.442     -104.053      -28.038      214.012      159.847       68.823    45800.996    25551.165     4736.548       15.215        3.804      476.931       79.079        0.027      343.980       20.471      861.577
05/02/2014  20:31:00     -272.502      -81.078        6.895      165.632      113.180       74.403    27434.100    12809.758     5535.852        6.332        2.289      284.308       85.180        0.090      343.893       20.323      861.598
05/02/2014  20:32:00     -551.167     -152.895      -31.537      245.211      166.782       87.718    60128.335    27816.360     7694.440       21.188        4.782      571.981       86.421        0.023      343.881       20.302      861.552
05/02/2014  20:33:00     -564.958     -177.792      -35.123      230.346      164.603       78.482    53059.258    27094.003     6159.415       21.915        4.316      592.273       63.565        0.012      343.887       20.311      861.551
05/02/2014  20:34:00     -484.153     -128.851      -19.066      206.534      142.371       78.662    42656.231    20269.542     6187.637       16.023        3.456      501.006       89.765        0.032      343.877       20.294      861.602
05/02/2014  20:35:00     -420.548     -130.596      -10.450      163.772      131.527       73.718    26821.305    17299.456     5434.317       12.178        2.478      440.359       79.733        0.033      343.857       20.260      861.647
05/02/2014  20:36:00     -156.418        1.623       17.751      160.781      107.959       81.343    25850.444    11655.246     6616.743        3.444        2.206      156.427       90.854        0.337      343.777       20.127      861.639
05/02/2014  20:37:00     -244.433     -124.446       -7.756      178.870      113.969       79.080    31994.483    12989.019     6253.629        6.326        2.562      274.289       93.933        0.117      343.805       20.173      861.612
05/02/2014  20:38:00     -180.298      -12.592       23.523      134.961      112.246       71.298    18214.362    12599.126     5083.389        3.455        1.795      180.737       69.680        0.149      343.764       20.102      861.579
05/02/2014  20:39:00     -206.750     -109.912        0.223      159.978      145.660       90.172    25592.933    21216.950     8131.022        5.487        2.747      234.150       95.595        0.167      343.770       20.115      861.574
05/02/2014  20:40:00     -404.093     -210.320       -3.906      225.942      169.976      106.586    51049.978    28891.749    11360.612       14.940        4.565      455.550      111.199        0.060      343.793       20.152      861.600
05/02/2014  20:41:00     -374.480      -90.493      -14.563      218.581      139.883       92.829    47777.730    19567.337     8617.292       11.228        3.798      385.259       90.541        0.055      343.800       20.165      861.629
05/02/2014  20:42:00     -457.966     -162.057      -30.413      146.278      181.885       99.368    21397.367    33082.127     9873.991       15.062        3.218      485.794       76.227        0.025      343.797       20.158      861.648
05/02/2014  20:43:00     -203.538      -59.907        2.618      157.886      105.894       78.540    24927.920    11213.613     6168.578        4.366        2.116      212.171       84.222        0.158      343.753       20.084      861.602
05/02/2014  20:44:00     -360.620      -51.478       -8.106      167.804      154.268       63.479    28158.291    23798.522     4029.524        9.436        2.799      364.276       69.017        0.036      343.733       20.048      861.545
05/02/2014  20:45:00     -415.008     -161.624      -11.410      194.325      159.176       87.477    37762.168    25336.952     7652.161       13.460        3.538      445.369       93.889        0.044      343.737       20.056      861.555
05/02/2014  20:46:00     -356.872     -101.801       -8.904      214.905      151.475       86.422    46184.066    22944.579     7468.754       10.718        3.830      371.108       99.348        0.072      343.704       19.998      861.550
05/02/2014  20:47:00     -431.735      -53.487      -22.125      204.008      145.227       78.892    41619.304    21090.963     6224.006       12.933        3.447      435.036       85.856        0.039      343.729       20.041      861.579
05/02/2014  20:48:00     -313.948      -83.186       -6.480      155.540      147.347       75.714    24192.628    21711.047     5732.657        7.857        2.582      324.782       69.592        0.046      343.711       20.011      861.597
05/02/2014  20:49:00     -241.062      -70.755       -0.822      159.528      130.361       70.547    25449.142    16993.982     4976.864        5.526        2.371      251.231       67.786        0.073      343.700       19.994      861.614
05/02/2014  20:50:00     -189.818      -63.808        0.794      152.366       95.097       57.378    23215.429     9043.498     3292.264        3.782        1.778      200.256       69.583        0.121      343.637       19.886      861.619
05/02/2014  20:51:00     -323.575     -135.625        2.186      167.372      129.427       71.169    28013.435    16751.367     5065.002        8.645        2.491      350.849       73.108        0.043      343.702       19.995      861.633
05/02/2014  20:52:00     -259.610     -177.249      -20.157      140.861      123.043       80.603    19841.879    15139.462     6496.858        7.034        2.074      314.347       77.030        0.060      343.703       19.998      861.674
05/02/2014  20:53:00     -206.574     -150.074        0.229       97.431       92.991       56.309     9492.719     8647.333     3170.685        4.325        1.066      255.333       51.082        0.040      343.697       19.987      861.697
05/02/2014  20:54:00     -240.026     -148.830       -4.011      102.289       65.243       53.530    10463.041     4256.669     2865.412        4.868        0.879      282.423       38.784        0.019      343.703       19.997      861.717
05/02/2014  20:55:00      -21.654      -74.933        0.578       73.341       63.026       42.010     5378.913     3972.262     1764.880        0.860        0.556       77.999       36.657        0.221      343.659       19.927      861.692
05/02/2014  20:56:00     -124.503     -110.825        3.069       76.081       74.611       48.911     5788.280     5566.782     2392.241        2.077        0.687      166.683       44.031        0.070      343.687       19.974      861.684
05/02/2014  20:57:00     -110.472     -144.264        9.294      112.446       98.418       50.581    12644.014     9686.127     2558.405        2.899        1.244      181.704       42.034        0.054      343.660       19.927      861.685
05/02/2014  20:58:00     -202.944     -134.086      -10.265      142.136       63.371       59.928    20202.734     4015.946     3591.394        4.353        1.391      243.239       60.871        0.063      343.620       19.856      861.695
05/02/2014  20:59:00     -103.397      -44.267       14.657       90.152       59.960       40.521     8127.316     3595.244     1641.922        1.311        0.668      112.474       50.042        0.198      343.618       19.856      861.716
05/02/2014  21:00:00     -120.394      -77.897        6.910      111.432      107.276       66.159    12417.138    11508.213     4377.067        2.445        1.415      143.397       64.651        0.203      343.664       19.933      861.705
05/02/2014  21:01:00     -142.389     -155.650        1.692      131.264      128.098       54.928    17230.128    16409.159     3017.135        4.057        1.833      210.954       58.625        0.077      343.701       19.994      861.698
05/02/2014  21:02:00     -187.079     -145.279        2.424      154.683      117.871       71.120    23926.743    13893.603     5058.117        4.949        2.144      236.864       79.346        0.112      343.679       19.957      861.735
05/02/2014  21:03:00     -195.269     -108.132      -13.532      142.714      123.243       68.809    20367.375    15188.722     4734.650        4.514        2.015      223.209       68.169        0.093      343.671       19.943      861.741
05/02/2014  21:04:00     -192.057      -91.369       -6.222      126.385       82.244       54.942    15973.159     6764.026     3018.618        3.551        1.288      212.684       48.653        0.052      343.654       19.914      861.771
05/02/2014  21:05:00     -219.090     -125.809        2.082      109.441      103.829       52.552    11977.432    10780.544     2761.734        4.467        1.276      252.642       58.376        0.053      343.630       19.874      861.774
05/02/2014  21:06:00     -127.706     -115.490        7.269       78.858       66.603       36.790     6218.569     4435.982     1353.468        2.085        0.600      172.182       35.637        0.043      343.636       19.883      861.764
05/02/2014  21:07:00     -191.374     -117.442       -1.125       99.326       86.333       46.722     9865.594     7453.368     2182.926        3.496        0.975      224.536       45.415        0.041      343.604       19.829      861.755
05/02/2014  21:08:00     -229.733     -135.387      -22.319       75.623       59.505       48.245     5718.823     3540.810     2327.564        4.159        0.579      266.659       50.161        0.035      343.606       19.832      861.755
05/02/2014  21:09:00     -217.488      -93.344       -5.576       63.655       43.323       31.320     4051.991     1876.845      980.931        3.148        0.345      236.673       32.908        0.019      343.603       19.827      861.747
05/02/2014  21:10:00     -272.201      -50.596        1.574       89.281       78.803       48.682     7971.037     6209.893     2369.956        4.660        0.828      276.864       48.493        0.031      343.580       19.786      861.756
05/02/2014  21:11:00     -204.191      -78.459       -1.868      103.386      105.871       45.110    10688.692    11208.660     2034.957        3.589        1.197      218.746       42.261        0.037      343.609       19.839      861.757
05/02/2014  21:12:00     -162.255     -119.786       -4.970       89.982       77.510       48.659     8096.747     6007.867     2367.656        2.858        0.824      201.681       44.121        0.048      343.631       19.877      861.756
05/02/2014  21:13:00     -307.751     -212.652      -13.992      154.473      120.081       68.494    23861.925    14419.428     4691.438        9.154        2.149      374.074       70.943        0.036      343.653       19.912      861.721
05/02/2014  21:14:00     -300.581      -47.104      -13.941      112.391       96.345       53.904    12631.687     9282.440     2905.625        5.879        1.241      304.249       56.243        0.034      343.617       19.850      861.693
05/02/2014  21:15:00     -221.390      -34.136       -1.258      104.773       78.070       45.685    10977.313     6094.870     2087.157        3.467        0.958      224.006       45.236        0.041      343.722       20.030      861.665
05/02/2014  21:16:00     -159.678      -14.463       -3.012       66.825       52.455       32.064     4465.531     2751.513     1028.130        1.698        0.412      160.332       34.463        0.046      343.692       19.981      861.633
05/02/2014  21:17:00     -181.871      -60.668        1.122      123.098      108.924       53.047    15153.111    11864.431     2813.964        3.329        1.492      191.723       46.688        0.059      343.515       19.678      861.601
05/02/2014  21:18:00     -395.187      -41.878      -24.809      183.505      109.880       75.153    33674.008    12073.558     5647.993       10.496        2.570      397.399       91.030        0.052      343.735       20.054      861.589
05/02/2014  21:19:00     -303.421      -89.170       -6.442      138.674       92.401       51.494    19230.434     8537.964     2651.611        6.523        1.521      316.253       58.026        0.034      343.684       19.965      861.592
05/02/2014  21:20:00     -336.051      -80.155       -6.819      150.498      107.895       66.603    22649.684    11641.230     4435.942        7.906        1.936      345.478       70.385        0.042      343.711       20.013      861.593
05/02/2014  21:21:00     -234.233      -99.366        4.243      129.933       95.238       60.182    16882.618     9070.259     3621.896        4.716        1.479      254.438       69.923        0.076      343.661       19.926      861.575
05/02/2014  21:22:00     -328.986     -107.260        1.808      119.316       98.963       56.970    14236.349     9793.644     3245.625        7.350        1.364      346.030       55.439        0.026      343.652       19.911      861.581
05/02/2014  21:23:00     -250.340     -121.065       -0.520      130.177      106.981       58.968    16945.954    11444.911     3477.170        5.459        1.593      278.077       57.838        0.043      343.677       19.953      861.578
05/02/2014  21:24:00     -300.818     -239.732        1.993      173.870      131.972       88.765    30230.896    17416.477     7879.144       10.174        2.776      384.660       93.502        0.059      343.672       19.943      861.543
05/02/2014  21:25:00     -257.878     -238.663      -25.546      133.586      126.562       73.148    17845.143    16017.936     5350.571        8.166        1.961      351.370       78.227        0.050      343.643       19.895      861.533
05/02/2014  21:26:00     -209.514      -83.454       -1.196      123.954       68.445       43.897    15364.580     4684.711     1926.906        3.641        1.099      225.523       46.631        0.043      343.633       19.878      861.535
05/02/2014  21:27:00     -184.957     -116.543       -9.182       91.511       84.766       39.393     8374.274     7185.254     1551.781        3.249        0.856      218.612       42.412        0.038      343.602       19.826      861.529
05/02/2014  21:28:00     -154.554      -58.684        8.215       97.360       94.292       46.477     9478.891     8891.055     2160.074        2.396        1.027      165.320       43.170        0.068      343.568       19.771      861.525
05/02/2014  21:29:00     -220.993      -82.559       -9.665       93.345      106.537       52.233     8713.276    11350.097     2728.275        3.926        1.140      235.910       51.139        0.047      343.578       19.784      861.524
05/02/2014  21:30:00     -320.698      -42.564      -44.078      107.380       91.581       63.919    11530.561     8387.061     4085.665        6.530        1.200      323.510       55.516        0.029      343.595       19.811      861.526
05/02/2014  21:31:00     -299.160      -26.303      -13.370      137.459       96.289       60.249    18895.043     9271.528     3629.993        6.108        1.590      300.314       71.336        0.056      343.560       19.753      861.515
05/02/2014  21:32:00     -282.443      -63.638       -0.665      107.689       88.837       58.766    11597.003     7892.052     3453.420        5.338        1.147      289.524       57.659        0.040      343.566       19.764      861.535
05/02/2014  21:33:00     -129.706      -32.803       16.274       90.682       61.356       38.980     8223.214     3764.617     1519.426        1.583        0.675      133.789       43.486        0.106      343.476       19.613      861.549
05/02/2014  21:34:00     -107.131      -74.689       14.101       84.592       60.939       37.890     7155.874     3713.557     1435.639        1.478        0.615      130.597       46.460        0.127      343.524       19.695      861.558
05/02/2014  21:35:00     -129.115      -81.546       -0.044       82.391       47.724       33.186     6788.227     2277.578     1101.288        1.674        0.508      152.711       36.097        0.056      343.619       19.858      861.558
05/02/2014  21:36:00     -151.750     -118.961        0.087       55.727       37.566       36.232     3105.516     1411.207     1312.787        2.150        0.291      192.821       34.805        0.033      343.611       19.843      861.567
05/02/2014  21:37:00      -90.971     -110.356        4.175       56.023       62.669       30.036     3138.594     3927.369      902.153        1.422        0.398      143.018       29.475        0.042      343.636       19.887      861.575
05/02/2014  21:38:00     -128.714      -88.852       -2.240       48.315       54.319       26.994     2334.357     2950.604      728.671        1.524        0.301      156.403       24.292        0.024      343.567       19.770      861.580
05/02/2014  21:39:00      -75.475     -103.492       -6.502       22.972       27.063       17.871      527.711      732.385      319.361        0.901        0.079      128.091       14.981        0.014      343.535       19.716      861.572
05/02/2014  21:40:00      -98.403      -94.276        0.175       50.525       53.179       27.060     2552.804     2827.988      732.269        1.234        0.306      136.276       21.240        0.024      343.519       19.686      861.558
05/02/2014  21:41:00     -136.936     -102.950       -0.454       61.503       50.266       31.960     3782.617     2526.687     1021.451        1.834        0.367      171.319       32.129        0.035      343.487       19.632      861.566
05/02/2014  21:42:00     -191.336     -127.689        1.721       82.254       68.543       32.939     6765.803     4698.148     1084.952        3.273        0.627      230.030       35.802        0.024      343.495       19.645      861.579
05/02/2014  21:43:00     -121.633     -114.886        6.511       87.423       77.259       47.786     7642.765     5968.998     2283.465        2.196        0.795      167.312       45.532        0.074      343.462       19.588      861.591
05/02/2014  21:44:00     -136.806     -112.502        9.249       67.394       49.632       44.373     4541.999     2463.380     1968.958        2.021        0.449      177.123       39.283        0.049      343.475       19.611      861.605
05/02/2014  21:45:00      -88.436     -160.591        3.068       65.462       73.302       39.813     4285.209     5373.203     1585.070        2.243        0.562      183.331       23.107        0.016      343.531       19.705      861.605
05/02/2014  21:46:00      -85.866      -70.450        4.341       61.521       64.861       33.146     3784.839     4206.963     1098.689        1.072        0.455      111.069       31.532        0.081      343.511       19.673      861.586
05/02/2014  21:47:00     -109.987     -150.990       -0.277       71.154       75.349       39.144     5062.929     5677.498     1532.216        2.358        0.614      186.802       46.616        0.062      343.545       19.728      861.573
05/02/2014  21:48:00     -179.231     -116.030      -11.311       67.666       54.869       37.106     4578.685     3010.562     1376.883        2.734        0.448      213.511       35.404        0.027      343.539       19.721      861.563
05/02/2014  21:49:00     -167.592     -119.433       -3.504      110.559       81.773       41.081    12223.401     6686.847     1687.608        3.148        1.030      205.794       52.363        0.065      343.373       19.436      861.560
05/02/2014  21:50:00     -149.217     -112.264       -2.028       75.988       78.071       38.035     5774.138     6095.050     1446.692        2.409        0.666      186.732       37.971        0.041      343.360       19.414      861.573
05/02/2014  21:51:00     -122.748     -103.691        4.758       72.500       67.679       41.771     5256.244     4580.473     1744.827        1.871        0.579      160.682       37.527        0.055      343.320       19.348      861.570
05/02/2014  21:52:00     -176.704     -100.675       -4.563       78.951       89.854       44.754     6233.217     8073.663     2002.913        2.884        0.815      203.371       42.355        0.043      343.303       19.315      861.575
05/02/2014  21:53:00     -205.159     -102.425        2.672       92.228       70.486       49.314     8506.018     4968.327     2431.885        3.424        0.795      229.306       48.588        0.045      343.248       19.223      861.579
05/02/2014  21:54:00     -193.598     -105.447       -0.862      105.218       68.457       39.629    11070.768     4686.388     1570.422        3.296        0.866      220.452       38.002        0.030      343.243       19.213      861.577
05/02/2014  21:55:00     -183.406     -108.348        0.876      112.391       58.568       38.456    12631.637     3430.233     1478.846        3.146        0.877      213.019       39.264        0.034      343.231       19.194      861.569
05/02/2014  21:56:00     -121.809      -63.715       14.566       96.629       86.836       52.390     9337.080     7540.486     2744.729        1.936        0.981      137.467       55.738        0.164      343.221       19.178      861.560
05/02/2014  21:57:00     -140.303     -128.953        5.519      118.088      109.233       55.070    13944.661    11931.851     3032.750        3.262        1.445      190.562       65.914        0.120      343.499       19.653      861.560
05/02/2014  21:58:00     -193.172     -143.848       10.378      110.669       89.977       49.023    12247.586     8095.816     2403.293        4.043        1.137      240.848       51.790        0.046      343.474       19.607      861.585
05/02/2014  21:59:00     -162.330     -113.395       12.300       98.601       77.231       51.369     9722.124     5964.622     2638.764        2.884        0.916      198.014       58.658        0.088      343.258       19.240      861.604
05/02/2014  22:00:00      -79.705      -84.111       14.547       72.298       59.865       43.968     5227.066     3583.869     1933.196        1.219        0.537      115.877       42.291        0.133      343.220       19.178      861.612
05/02/2014  22:01:00     -186.675     -108.811        2.906       91.712       77.523       42.516     8411.036     6009.768     1807.641        3.146        0.811      216.072       45.570        0.044      343.230       19.192      861.595
05/02/2014  22:02:00     -181.868     -141.078        7.299      110.456      104.025       49.859    12200.475    10821.198     2485.897        3.926        1.275      230.172       46.208        0.040      343.378       19.444      861.582
05/02/2014  22:03:00     -153.072      -98.588       -4.221      119.470      100.409       53.106    14273.108    10082.027     2820.239        3.017        1.359      182.073       65.269        0.129      343.392       19.470      861.564
05/02/2014  22:04:00     -238.217      -74.897       -5.741      115.734      107.792       53.545    13394.333    11619.193     2867.088        4.513        1.394      249.714       61.545        0.061      343.428       19.529      861.569
05/02/2014  22:05:00     -220.983     -106.271        1.159      110.499       98.629       47.905    12210.139     9727.710     2294.860        4.218        1.212      245.208       54.984        0.050      343.424       19.525      861.571
05/02/2014  22:06:00     -172.442      -90.218       23.642      122.388       98.435       60.643    14978.734     9689.472     3677.567        3.338        1.417      194.616       70.003        0.129      343.385       19.456      861.567
05/02/2014  22:07:00     -226.977     -102.175        8.167      128.945      120.590       64.842    16626.799    14542.009     4204.517        4.869        1.769      248.914       75.818        0.093      343.380       19.447      861.583
05/02/2014  22:08:00     -242.121     -118.277        0.352      101.443       92.377       53.799    10290.721     8533.505     2894.359        4.716        1.086      269.467       56.183        0.043      343.485       19.626      861.604
05/02/2014  22:09:00     -140.492      -55.098       10.907      105.573       68.068       56.995    11145.750     4633.278     3248.459        2.096        0.951      150.910       44.503        0.087      343.480       19.620      861.626
05/02/2014  22:10:00      -58.727      -54.021       25.504       80.774       57.755       38.835     6524.469     3335.629     1508.145        0.919        0.568       79.794       35.231        0.195      343.420       19.518      861.643
05/02/2014  22:11:00     -159.168      -94.806       -5.342       99.930       73.327       43.591     9986.034     5376.849     1900.135        2.580        0.863      185.264       46.254        0.062      343.491       19.638      861.653
05/02/2014  22:12:00      -74.618      -64.564        9.347       59.949       49.521       27.428     3593.850     2452.325      752.278        0.831        0.340       98.673       23.823        0.058      343.487       19.632      861.658
05/02/2014  22:13:00     -153.337     -105.268       -2.102       94.130       69.686       44.651     8860.440     4856.178     1993.713        2.515        0.786      185.993       40.682        0.048      343.498       19.649      861.648
05/02/2014  22:14:00     -137.068     -138.685        1.349       78.029       89.622       54.564     6088.553     8032.064     2977.237        2.756        0.855      194.990       47.379        0.059      343.473       19.606      861.630
05/02/2014  22:15:00     -101.045     -228.814        0.871       95.565       88.337       50.366     9132.586     7803.510     2536.734        4.102        0.974      250.132       38.211        0.023      343.500       19.652      861.621
05/02/2014  22:16:00     -151.842     -163.075       -8.930      101.818       83.525       50.715    10366.994     6976.480     2572.017        3.482        0.996      222.822       48.679        0.048      343.470       19.601      861.608
05/02/2014  22:17:00     -183.582     -111.713        7.635      140.585       99.002       61.408    19764.253     9801.330     3770.931        3.978        1.667      214.900       59.506        0.077      343.447       19.562      861.604
05/02/2014  22:18:00     -179.176     -244.347        1.482      148.170      171.051       70.394    21954.362    29258.401     4955.276        7.398        2.808      303.001       87.866        0.084      343.511       19.671      861.609
05/02/2014  22:19:00      -89.631     -245.378       10.295       85.364      101.614       58.405     7286.944    10325.441     3411.176        4.468        1.051      261.236       45.565        0.030      343.555       19.746      861.616
05/02/2014  22:20:00     -148.700     -106.931       12.867      151.873      109.676       54.350    23065.264    12028.808     2953.959        3.587        1.902      183.155       60.832        0.110      343.545       19.729      861.614
05/02/2014  22:21:00     -253.110     -164.962        0.724      145.737       99.121       57.873    21239.203     9825.038     3349.260        6.284        1.721      302.121       56.197        0.035      343.592       19.809      861.601
05/02/2014  22:22:00     -237.918     -165.956       -5.030      164.012      134.303       65.041    26899.811    18037.271     4230.315        6.666        2.458      290.079       72.215        0.062      343.645       19.900      861.578
05/02/2014  22:23:00     -269.494     -166.681        1.063      163.559      120.341       65.035    26751.653    14482.006     4229.547        7.293        2.273      316.874       70.202        0.049      343.691       19.977      861.582
05/02/2014  22:24:00     -204.907     -141.715       -7.503      108.520       85.365       47.316    11776.696     7287.256     2238.822        4.171        1.065      249.139       37.419        0.023      343.659       19.923      861.592
05/02/2014  22:25:00     -280.908     -171.374       -0.474      130.846       90.144       55.611    17120.650     8125.853     3092.620        6.830        1.417      329.057       51.917        0.025      343.643       19.895      861.600
05/02/2014  22:26:00     -311.053     -188.484        0.296      117.960       86.542       56.498    13914.647     7489.589     3192.078        7.843        1.230      363.704       59.546        0.027      343.599       19.822      861.593
05/02/2014  22:27:00     -202.466     -142.253        7.007      130.168      117.078       66.102    16943.818    13707.272     4369.534        4.814        1.751      247.444       72.518        0.086      343.576       19.783      861.616
05/02/2014  22:28:00     -196.816     -239.947        2.855      117.335      129.992       67.759    13767.596    16897.891     4591.336        6.578        1.763      310.340       64.949        0.044      343.646       19.899      861.663
05/02/2014  22:29:00     -196.686     -300.316       -5.210      135.822      143.102       80.284    18447.529    20478.069     6445.443        8.713        2.269      358.992       76.576        0.046      343.621       19.858      861.687
05/02/2014  22:30:00     -189.325     -211.315        1.864      172.232      150.375       84.815    29663.753    22612.533     7193.573        6.997        2.973      283.721       77.656        0.075      343.604       19.828      861.678
05/02/2014  22:31:00      -33.630     -145.364       -0.354       98.545       92.794       55.989     9711.019     8610.635     3134.811        2.185        1.073      149.203       44.565        0.089      343.572       19.775      861.637
05/02/2014  22:32:00      -88.181     -235.345        9.863      117.673      122.668       50.985    13846.981    15047.371     2599.496        4.737        1.575      251.323       45.951        0.033      343.589       19.804      861.672
05/02/2014  22:33:00     -249.358     -175.370       -0.399      118.953       98.963       56.640    14149.726     9793.728     3208.054        6.004        1.358      304.851       59.685        0.038      343.503       19.657      861.687
05/02/2014  22:34:00     -197.358     -164.975       -0.778       95.750       96.314       53.007     9168.116     9276.473     2809.738        4.371        1.063      257.229       56.910        0.049      343.485       19.627      861.685
05/02/2014  22:35:00     -123.524     -113.402        2.229      100.200       84.838       46.799    10040.035     7197.442     2190.169        2.377        0.971      167.684       46.243        0.076      343.421       19.520      861.688
05/02/2014  22:36:00     -136.274      -96.677        7.873       96.990       58.784       37.528     9407.120     3455.610     1408.359        2.112        0.714      167.084       40.038        0.057      343.411       19.500      861.681
05/02/2014  22:37:00     -209.771     -122.729       -5.089      108.202       68.225       47.631    11707.620     4654.614     2268.694        3.886        0.932      243.035       52.103        0.046      343.416       19.509      861.674
05/02/2014  22:38:00     -106.932      -73.695        0.927       95.484       95.911       44.060     9117.103     9198.988     1941.280        1.856        1.013      129.867       55.491        0.183      343.330       19.365      861.675
05/02/2014  22:39:00      -88.763      -61.343       -1.720       39.964       51.917       24.949     1597.095     2695.403      622.444        0.828        0.246      107.897       18.596        0.030      343.439       19.551      861.664
05/02/2014  22:40:00      -29.714      -87.179        5.815       35.613       34.635       19.212     1268.295     1199.597      369.098        0.568        0.142       92.104       16.239        0.031      343.469       19.603      861.649
05/02/2014  22:41:00      -69.948      -49.375        8.443       89.426       87.568       35.215     7997.075     7668.117     1240.128        1.215        0.845       85.619       46.717        0.298      343.341       19.382      861.659
05/02/2014  22:42:00     -177.576       10.454       -7.140       66.682       41.771       36.280     4446.513     1744.780     1316.257        1.960        0.375      177.883       36.530        0.042      343.296       19.306      861.666
05/02/2014  22:43:00     -109.206       19.987        2.791       76.398       47.467       45.424     5836.630     2253.143     2063.345        1.124        0.508      111.020       43.530        0.154      343.284       19.287      861.660
05/02/2014  22:44:00     -213.925     -107.910       16.544      116.552       77.164       51.334    13584.470     5954.228     2635.167        3.992        1.109      239.601       51.674        0.047      343.378       19.446      861.631
05/02/2014  22:45:00     -210.177     -207.461       11.985      159.742      112.801       85.775    25517.395    12724.090     7357.324        6.647        2.280      295.321       97.377        0.109      343.383       19.454      861.606
05/02/2014  22:46:00     -237.099     -171.728        3.486      166.127       91.994       72.813    27598.065     8462.959     5301.681        6.353        2.068      292.756       69.574        0.056      343.413       19.504      861.604
05/02/2014  22:47:00     -227.320      -78.884      -14.437       88.235       74.193       48.191     7785.492     5504.626     2322.379        3.686        0.781      240.618       43.207        0.032      343.418       19.510      861.632
05/02/2014  22:48:00     -298.771      -24.000       -9.283      182.074      111.941       64.516    33150.834    12530.700     4162.296        6.988        2.492      299.734       73.391        0.060      343.308       19.326      861.616
05/02/2014  22:49:00     -194.802       -0.353      -10.645      120.874       97.213       63.693    14610.504     9450.293     4056.739        3.308        1.406      194.803       65.713        0.114      343.225       19.184      861.636
05/02/2014  22:50:00     -110.461      -23.394       15.744      109.191       80.796       49.843    11922.749     6527.958     2484.356        1.696        1.047      112.911       37.027        0.108      343.144       19.048      861.634
05/02/2014  22:51:00     -104.693      -29.052        4.217       95.021       38.221       36.642     9029.022     1460.837     1342.638        1.183        0.592      108.649       42.742        0.155      343.174       19.099      861.634
05/02/2014  22:52:00     -139.095       11.307       -5.542       85.243       51.951       30.933     7266.439     2698.953      956.861        1.521        0.546      139.553       31.454        0.051      343.260       19.244      861.624
05/02/2014  22:53:00     -271.591       22.794       -9.794       94.771       65.378       44.507     8981.528     4274.315     1980.874        4.480        0.762      272.546       38.019        0.019      343.287       19.288      861.608
05/02/2014  22:54:00     -298.707     -126.111      -11.264      114.424      107.414       59.413    13092.816    11537.863     3529.963        6.670        1.408      324.237       48.405        0.022      343.201       19.141      861.601
05/02/2014  22:55:00     -219.609      -58.144        2.285      120.295       82.089       47.070    14470.771     6738.549     2215.561        3.751        1.171      227.176       56.274        0.061      343.091       18.957      861.598
05/02/2014  22:56:00     -153.661     -115.824        7.729       97.904       86.929       43.960     9585.122     7556.727     1932.504        2.808        0.954      192.424       50.325        0.068      343.142       19.042      861.593
05/02/2014  22:57:00     -239.687      -59.275        5.982      133.906       95.551       56.349    17930.911     9130.001     3175.225        4.561        1.512      246.908       52.922        0.046      343.141       19.041      861.602
05/02/2014  22:58:00     -371.303     -169.651      -17.685      148.497      130.538       72.824    22051.337    17040.238     5303.269       10.567        2.220      408.224       80.137        0.039      343.253       19.231      861.602
05/02/2014  22:59:00     -219.323     -101.929        8.613      126.829      101.598       54.675    16085.633    10322.101     2989.400        4.398        1.470      241.852       49.019        0.041      343.242       19.213      861.639
05/02/2014  23:00:00     -154.430     -129.733       -9.746      104.380       55.974       48.001    10895.158     3133.144     2304.087        2.855        0.817      201.691       44.801        0.049      343.238       19.205      861.639
05/02/2014  23:01:00      -94.663     -130.233       23.273       97.829       95.319       54.316     9570.477     9085.766     2950.261        2.403        1.080      161.003       44.673        0.077      343.177       19.102      861.631
05/02/2014  23:02:00     -176.379     -125.077       -9.553      126.973       93.609       56.915    16122.044     8762.702     3239.265        3.748        1.406      216.226       62.019        0.082      343.137       19.035      861.616
05/02/2014  23:03:00     -271.851      -55.547       -6.092      148.151      110.507       64.806    21948.585    12211.882     4199.824        5.769        1.918      277.468       78.294        0.080      343.109       18.986      861.625
05/02/2014  23:04:00     -398.422      -58.791      -10.830      213.066      115.203       79.945    45397.165    13271.829     6391.141       11.367        3.253      402.736       96.549        0.057      343.110       18.987      861.625
05/02/2014  23:05:00     -233.308     -158.172       -4.148      109.872      110.918       57.528    12071.944    12302.897     3309.478        5.357        1.384      281.870       51.564        0.033      343.241       19.209      861.618
05/02/2014  23:06:00     -165.140      -53.147        0.674       92.659       71.996       42.157     8585.770     5183.356     1777.228        2.282        0.777      173.482       40.285        0.054      343.212       19.164      861.616
05/02/2014  23:07:00     -243.901     -107.339       -3.931      145.304       78.678       63.394    21113.352     6190.159     4018.758        5.117        1.566      266.476       62.785        0.056      343.120       19.004      861.630
05/02/2014  23:08:00     -281.802     -155.284       -9.175      147.457      118.220       56.143    21743.678    13976.083     3152.082        7.123        1.944      321.754       71.022        0.049      343.108       18.984      861.636
05/02/2014  23:09:00     -269.050     -106.155        3.228      184.213      132.567       76.047    33934.327    17573.968     5783.160        7.047        2.865      289.235       90.199        0.097      343.046       18.878      861.613
05/02/2014  23:10:00     -233.783     -205.795       -0.552      164.350      130.098       87.651    27011.037    16925.390     7682.735        7.430        2.581      311.458       97.245        0.097      343.009       18.815      861.592
05/02/2014  23:11:00     -256.732     -156.100       -9.633      135.127      105.146       55.736    18259.439    11055.693     3106.447        6.139        1.621      300.463       65.745        0.048      343.014       18.826      861.584
05/02/2014  23:12:00     -178.793     -120.983       -0.478       88.881       89.551       47.664     7899.752     8019.407     2271.851        3.239        0.910      215.879       47.636        0.049      342.959       18.731      861.567
05/02/2014  23:13:00     -220.866     -164.219        7.931      176.599      109.709       80.725    31187.273    12036.092     6516.601        6.277        2.487      275.227       95.064        0.119      342.929       18.680      861.543
05/02/2014  23:14:00     -247.939     -143.447       16.759      158.158       99.004       70.423    25013.968     9801.749     4959.344        6.105        1.989      286.445       73.961        0.067      342.918       18.661      861.519
05/02/2014  23:15:00     -265.949     -139.806       -0.957      113.627      102.656       64.017    12911.157    10538.342     4098.127        5.891        1.377      300.457       61.437        0.042      342.904       18.636      861.527
05/02/2014  23:16:00     -108.033      -75.442       11.010      103.297       83.490       45.209    10670.251     6970.578     2043.818        1.858        0.984      131.767       49.765        0.143      342.897       18.628      861.516
05/02/2014  23:17:00     -291.811     -185.491        7.028      143.554       96.960       59.140    20607.822     9401.240     3497.592        7.655        1.675      345.775       67.300        0.038      342.847       18.539      861.506
05/02/2014  23:18:00     -308.581     -206.258      -17.825      151.268      125.879       81.071    22882.015    15845.614     6572.468        9.168        2.265      371.166       88.329        0.057      342.819       18.492      861.510
05/02/2014  23:19:00     -408.488      -90.547      -18.704      164.915      124.039       70.166    27196.896    15385.615     4923.250       11.145        2.375      418.403       73.179        0.031      342.801       18.460      861.491
05/02/2014  23:20:00     -220.335      -30.123       -3.427      114.986      122.655       54.743    13221.702    15044.240     2996.843        4.036        1.563      222.385       51.916        0.055      342.709       18.307      861.500
05/02/2014  23:21:00     -188.189     -168.733       20.002      178.306       87.201       59.347    31793.023     7604.038     3522.040        5.359        2.146      252.757       67.219        0.071      342.763       18.397      861.504
05/02/2014  23:22:00     -368.211     -223.760       -9.517      145.229      158.713       60.438    21091.422    25189.741     3652.757       11.783        2.497      430.869       58.914        0.019      342.759       18.390      861.488
05/02/2014  23:23:00     -402.418     -258.386      -15.404      177.059      152.372       84.041    31349.769    23217.350     7062.928       14.527        3.082      478.229       88.927        0.035      342.773       18.416      861.499
05/02/2014  23:24:00     -288.996     -188.492       -6.164      191.240      142.652       80.277    36572.858    20349.490     6444.454        9.121        3.168      345.033      101.721        0.087      342.762       18.396      861.501
05/02/2014  23:25:00     -260.143     -188.746        1.606      149.739      117.666       75.809    22421.702    13845.225     5747.031        7.265        2.101      321.402       79.736        0.062      342.692       18.276      861.504
05/02/2014  23:26:00     -357.556     -259.922       -3.252      202.930      116.505       80.828    41180.389    13573.402     6533.223       12.834        3.064      442.047       97.863        0.049      342.717       18.319      861.502
05/02/2014  23:27:00     -430.695     -285.513       -0.598      170.051      132.509       82.195    28917.186    17558.651     6755.970       16.011        2.662      516.736       91.008        0.031      342.730       18.341      861.496
05/02/2014  23:28:00     -422.391     -203.423      -20.430      166.590       91.072       58.381    27752.390     8294.185     3408.344       12.983        1.973      468.823       55.203        0.014      342.816       18.489      861.503
05/02/2014  23:29:00     -383.355     -194.135        2.514      176.708      128.487       82.467    31225.890    16508.837     6800.868       11.958        2.727      429.709       92.703        0.047      342.779       18.424      861.484
05/02/2014  23:30:00     -272.156     -141.930       -0.991      158.389      115.892       67.981    25087.052    13430.871     4621.396        6.867        2.157      306.942       67.162        0.048      342.777       18.423      861.496
05/02/2014  23:31:00     -293.864     -197.162        5.894      218.060      174.436       86.438    47550.323    30428.021     7471.607       10.534        4.272      353.877      109.311        0.095      342.770       18.410      861.495
05/02/2014  23:32:00     -320.698     -171.368        0.290      158.287      115.414       71.130    25054.734    13320.474     5059.454        8.782        2.172      363.612       71.800        0.039      342.772       18.411      861.465
05/02/2014  23:33:00     -333.130     -130.853       -2.159      165.883      102.471       72.308    27517.028    10500.348     5228.388        8.567        2.162      357.908       81.887        0.052      342.750       18.375      861.434
05/02/2014  23:34:00     -563.066      -50.370      -45.917      203.982      132.228       82.830    41608.738    17484.209     6860.791       19.381        3.298      565.315       97.988        0.030      342.718       18.321      861.410
05/02/2014  23:35:00     -523.086     -112.098       -9.606      221.079      166.694       81.358    48876.100    27786.950     6619.197       18.476        4.164      534.963       96.839        0.033      342.714       18.312      861.389
05/02/2014  23:36:00     -513.634      -77.762      -21.054      210.767      170.495       98.996    44422.637    29068.672     9800.155       17.678        4.165      519.487      105.059        0.041      342.745       18.366      861.383
05/02/2014  23:37:00     -419.330     -208.364        5.529      222.543      177.139       87.126    49525.587    31378.185     7590.930       15.387        4.425      468.244       92.854        0.039      342.818       18.492      861.374
05/02/2014  23:38:00     -422.033      -46.546      -24.780      128.828      127.845       76.205    16596.775    16344.325     5807.162       10.981        1.937      424.592       62.139        0.021      342.811       18.479      861.376
05/02/2014  23:39:00     -507.090      -74.709      -29.632      146.913      153.041       67.693    21583.437    23421.510     4582.280       15.658        2.479      512.564       62.473        0.015      342.773       18.414      861.354
05/02/2014  23:40:00     -653.479      -85.946      -21.135      263.373      195.629      111.643    69365.515    38270.599    12464.266       27.746        6.005      659.106      131.289        0.040      342.797       18.456      861.292
05/02/2014  23:41:00     -572.638     -113.326      -15.071      211.135      127.478       87.886    44577.966    16250.620     7723.970       20.475        3.428      583.744       94.825        0.026      342.758       18.389      861.278
05/02/2014  23:42:00     -475.034      -76.900      -10.422      213.976      126.689       78.759    45785.714    16050.199     6202.911       14.985        3.402      481.218       91.020        0.036      342.752       18.378      861.282
05/02/2014  23:43:00     -446.083      -38.146      -29.541      226.271      135.775       78.633    51198.563    18434.892     6183.175       13.855        3.791      447.711       91.975        0.042      342.749       18.373      861.288
05/02/2014  23:44:00     -579.983      -15.955      -40.247      186.689      172.127       83.871    34852.942    29627.675     7034.366       20.487        3.576      580.202       86.351        0.022      342.802       18.465      861.254
05/02/2014  23:45:00     -568.696     -175.821       -7.136      225.756      131.264       82.025    50965.894    17230.302     6728.076       21.464        3.746      595.254       94.144        0.025      342.754       18.382      861.211
05/02/2014  23:46:00     -295.079     -174.648       -3.826      248.858      115.515       71.426    61930.392    13343.701     5101.617        9.897        4.019      342.891       88.410        0.066      342.741       18.359      861.246
05/02/2014  23:47:00     -324.175      -28.502      -11.186      175.575      141.982       79.870    30826.724    20159.029     6379.277        8.168        2.868      325.425       88.247        0.074      342.775       18.418      861.250
05/02/2014  23:48:00     -519.517      -88.328      -46.162      160.343      124.787       77.598    25709.762    15571.815     6021.521       16.356        2.365      526.972       79.015        0.022      342.840       18.528      861.282
05/02/2014  23:49:00     -356.646       23.249      -38.435      112.714      150.962       66.684    12704.432    22789.505     4446.760        8.457        1.997      357.403       43.684        0.015      342.884       18.603      861.337
05/02/2014  23:50:00     -387.431     -104.898      -37.978      134.207      156.971       72.300    18011.467    24639.961     5227.248       10.520        2.394      401.381       56.279        0.020      342.853       18.550      861.338
05/02/2014  23:51:00     -529.666      -91.056      -34.300      158.396      127.441       78.435    25089.417    16241.320     6152.027       16.874        2.374      537.436       79.922        0.022      342.779       18.424      861.352
05/02/2014  23:52:00     -449.313      -40.597      -49.429      138.018      164.803       63.443    19048.943    27160.122     4024.994       12.809        2.512      451.143       48.445        0.012      342.781       18.427      861.375
05/02/2014  23:53:00     -346.942      -21.558      -35.310       99.095      112.875       62.485     9819.733    12740.782     3904.428        7.427        1.323      347.611       55.251        0.025      342.783       18.429      861.402
05/02/2014  23:54:00     -185.650     -128.374        1.459      107.350       74.855       50.860    11524.092     5603.306     2586.755        3.533        0.986      225.711       46.381        0.042      342.722       18.327      861.408
05/02/2014  23:55:00     -323.304      -68.835      -21.067       90.387       81.900       46.213     8169.878     6707.655     2135.648        6.336        0.851      330.551       39.404        0.014      342.720       18.325      861.405
05/02/2014  23:56:00     -279.848      -63.268       -5.282      105.780       90.683       52.548    11189.479     8223.449     2761.283        5.226        1.109      286.911       53.733        0.035      342.704       18.297      861.404
05/02/2014  23:57:00     -198.843      -75.946       -2.368      104.055       57.054       35.920    10827.346     3255.135     1290.280        3.034        0.769      212.853       46.073        0.047      342.692       18.278      861.389
05/02/2014  23:58:00     -140.126      -42.266       -5.837       86.578       68.758       36.460     7495.811     4727.634     1329.347        1.750        0.678      146.362       36.992        0.064      342.601       18.124      861.373
05/02/2014  23:59:00     -143.445      -37.888       -4.910       41.933       45.931       28.694     1758.353     2109.633      823.372        1.336        0.235      148.364       22.534        0.023      342.654       18.215      861.345
